[[{"header":{"parameterUnit":"m.s-1","parameterCategory":1,"la1":30.6,"la2":28.766,"lo1":-90.7593,"lo2":-88.6598,"dx":0.0162,"dy":0.0183,"nx":116,"ny":114,"refTime":"2022-12-10T18:00:00:Z","depth":0,"parameterNumber":2,"parameterNumberName":"U-component_of_WINDS"},"data":[0.0,0.0,0.0,0.0,0.0,0.0,0.0,0.0,0.0,0.0,0.0,0.0,0.0,0.0,0.0,0.0,0.0,0.0,0.0,0.0,0.0,0.0,0.0,0.0,0.0,0.0,0.0,0.0,0.0,0.0,0.0,0.0,0.0,0.0,0.0,0.0,0.0,0.0,0.0,0.0,0.0,0.0,0.0,0.0,0.0,0.0,0.0,0.0,0.0,0.0,0.0,0.0,0.0,0.0,0.0,0.0,0.0,0.0,0.0,0.0,0.0,0.0,0.0,0.0,0.0,0.0,0.0,0.0,0.0,0.0,0.0,0.0,0.0,0.0,0.0,0.0,0.0,0.0,0.0,0.0,0.0,0.0,0.0,0.0,0.0,0.0,0.0,0.0,0.0,0.0,0.0,0.0,0.0,0.0,0.0,0.0,0.0,0.0,0.0,0.0,0.0,0.0,0.0,0.0,0.0,0.0,0.0,0.0,0.0,0.0,0.0,0.0,0.0,0.0,0.0,0.0,0.0,0.0,0.0,0.0,0.0,0.0,0.0,0.0,0.0,0.0,0.0,0.0,0.0,0.0,0.0,0.0,0.0,0.0,0.0,0.0,0.0,0.0,0.0,0.0,0.0,0.0,0.0,0.0,0.0,0.0,0.0,0.0,0.0,0.0,0.0,0.0,0.0,0.0,0.0,0.0,0.0,0.0,0.0,0.0,0.0,0.0,0.0,0.0,0.0,0.0,0.0,0.0,0.0,0.0,0.0,0.0,0.0,0.0,0.0,0.0,0.0,0.0,0.0,0.0,0.0,0.0,0.0,0.0,0.0,0.0,0.0,0.0,0.0,0.0,0.0,0.0,0.0,0.0,0.0,0.0,0.0,0.0,0.0,0.0,0.0,0.0,0.0,0.0,0.0,0.0,0.0,0.0,0.0,0.0,0.0,0.0,0.0,0.0,0.0,0.0,0.0,0.0,0.0,0.0,0.0,0.0,0.0,0.0,0.0,0.0,0.0,0.0,0.0,0.0,0.0,0.0,0.0,0.0,0.0,0.0,0.0,0.0,0.0,0.0,0.0,0.0,0.0,0.0,0.0,0.0,0.0,0.0,0.0,0.0,0.0,0.0,0.0,0.0,0.0,0.0,0.0,0.0,0.0,0.0,0.0,0.0,0.0,0.0,0.0,0.0,0.0,0.0,0.0,0.0,0.0,0.0,0.0,0.0,0.0,0.0,0.0,0.0,0.0,0.0,0.0,0.0,0.0,0.0,0.0,0.0,0.0,0.0,0.0,0.0,0.0,0.0,0.0,0.0,0.0,0.0,0.0,0.0,0.0,0.0,0.0,0.0,0.0,0.0,0.0,0.0,0.0,0.0,0.0,0.0,0.0,0.0,0.0,0.0,0.0,0.0,0.0,0.0,0.0,0.0,0.0,0.0,0.0,0.0,0.0,0.0,0.0,0.0,0.0,0.0,0.0,0.0,0.0,0.0,0.0,0.0,0.0,0.0,0.0,0.0,0.0,0.0,0.0,0.0,0.0,0.0,0.0,0.0,0.0,0.0,0.0,0.0,0.0,0.0,0.0,0.0,0.0,0.0,0.0,0.0,0.0,0.0,0.0,0.0,0.0,0.0,0.0,0.0,0.0,0.0,0.0,0.0,0.0,0.0,0.0,0.0,0.0,0.0,0.0,0.0,0.0,0.0,0.0,0.0,0.0,0.0,0.0,0.0,0.0,0.0,0.0,0.0,0.0,0.0,0.0,0.0,0.0,0.0,0.0,0.0,0.0,0.0,0.0,0.0,0.0,0.0,0.0,0.0,0.0,0.0,0.0,0.0,0.0,0.0,0.0,0.0,0.0,0.0,0.0,0.0,0.0,0.0,0.0,0.0,0.0,0.0,0.0,0.0,0.0,0.0,0.0,0.0,0.0,0.0,0.0,0.0,0.0,0.0,0.0,0.0,0.0,0.0,0.0,0.0,0.0,0.0,0.0,0.0,0.0,0.0,0.0,0.0,0.0,0.0,0.0,0.0,0.0,0.0,0.0,0.0,0.0,0.0,0.0,0.0,0.0,0.0,0.0,0.0,0.0,0.0,0.0,0.0,0.0,0.0,0.0,0.0,0.0,0.0,0.0,0.0,0.0,0.0,0.0,0.0,0.0,0.0,0.0,0.0,0.0,0.0,0.0,0.0,0.0,0.0,0.0,0.0,0.0,0.0,0.0,0.0,0.0,0.0,0.0,0.0,0.0,0.0,0.0,0.0,0.0,0.0,0.0,0.0,0.0,0.0,0.0,0.0,0.0,0.0,0.0,0.0,0.0,0.0,0.0,0.0,0.0,0.0,0.0,0.0,0.0,0.0,0.0,0.0,0.0,0.0,0.0,0.0,0.0,0.0,0.0,0.0,0.0,0.0,0.0,0.0,0.0,0.0,0.0,0.0,0.0,0.0,0.0,0.0,0.0,0.0,0.0,0.0,0.0,0.0,0.0,0.0,0.0,0.0,0.0,0.0,0.0,0.0,0.0,0.0,0.0,0.0,0.0,0.0,0.0,0.0,0.0,0.0,0.0,0.0,0.0,0.0,0.0,0.0,0.0,0.0,0.0,0.0,0.0,0.0,0.0,0.0,0.0,0.0,0.0,0.0,0.0,0.0,0.0,0.0,0.0,0.0,0.0,0.0,0.0,0.0,0.0,0.0,0.0,0.0,0.0,0.0,0.0,0.0,0.0,0.0,0.0,0.0,0.0,0.0,0.0,0.0,0.0,0.0,0.0,0.0,0.0,0.0,0.0,0.0,0.0,0.0,0.0,0.0,0.0,0.0,0.0,0.0,0.0,0.0,0.0,0.0,0.0,0.0,0.0,0.0,0.0,0.0,0.0,0.0,0.0,0.0,0.0,0.0,0.0,0.0,0.0,0.0,0.0,0.0,0.0,0.0,0.0,0.0,0.0,0.0,0.0,0.0,0.0,0.0,0.0,0.0,0.0,0.0,0.0,0.0,0.0,0.0,0.0,0.0,0.0,0.0,0.0,0.0,0.0,0.0,0.0,0.0,0.0,0.0,0.0,0.0,0.0,0.0,0.0,0.0,0.0,0.0,0.0,0.0,0.0,0.0,0.0,0.0,0.0,0.0,0.0,0.0,0.0,0.0,0.0,0.0,0.0,0.0,0.0,0.0,0.0,0.0,0.0,0.0,0.0,0.0,0.0,0.0,0.0,0.0,0.0,0.0,0.0,0.0,0.0,0.0,0.0,0.0,0.0,0.0,0.0,0.0,0.0,0.0,0.0,0.0,0.0,0.0,0.0,0.0,0.0,0.0,0.0,0.0,0.0,0.0,0.0,0.0,0.0,0.0,0.0,0.0,0.0,0.0,0.0,0.0,0.0,0.0,0.0,0.0,0.0,0.0,0.0,0.0,0.0,0.0,0.0,0.0,0.0,0.0,0.0,0.0,0.0,0.0,0.0,0.0,0.0,0.0,0.0,0.0,0.0,0.0,0.0,0.0,0.0,0.0,0.0,0.0,0.0,0.0,0.0,0.0,0.0,0.0,0.0,0.0,0.0,0.0,0.0,0.0,0.0,0.0,0.0,0.0,0.0,0.0,0.0,0.0,0.0,0.0,0.0,0.0,0.0,0.0,0.0,0.0,0.0,0.0,0.0,0.0,0.0,0.0,0.0,0.0,0.0,0.0,0.0,0.0,0.0,0.0,0.0,0.0,0.0,0.0,0.0,0.0,0.0,0.0,0.0,0.0,0.0,0.0,0.0,0.0,0.0,0.0,0.0,0.0,0.0,0.0,0.0,0.0,0.0,0.0,0.0,0.0,0.0,0.0,0.0,0.0,0.0,0.0,0.0,0.0,0.0,0.0,0.0,0.0,0.0,0.0,0.0,0.0,0.0,0.0,0.0,0.0,0.0,0.0,0.0,0.0,0.0,0.0,0.0,0.0,0.0,0.0,0.0,0.0,0.0,0.0,0.0,0.0,0.0,0.0,0.0,0.0,0.0,0.0,0.0,0.0,0.0,0.0,0.0,0.0,0.0,0.0,0.0,0.0,0.0,0.0,0.0,0.0,0.0,0.0,0.0,0.0,0.0,0.0,0.0,0.0,0.0,0.0,0.0,0.0,0.0,0.0,0.0,0.0,0.0,0.0,0.0,0.0,0.0,0.0,0.0,0.0,0.0,0.0,0.0,0.0,0.0,0.0,0.0,0.0,0.0,0.0,0.0,0.0,0.0,0.0,0.0,0.0,0.0,0.0,0.0,0.0,0.0,0.0,0.0,0.0,0.0,0.0,0.0,0.0,0.0,0.0,0.0,0.0,0.0,0.0,0.0,0.0,0.0,0.0,0.0,0.0,0.0,0.0,0.0,0.0,0.0,0.0,0.0,0.0,0.0,0.0,0.0,0.0,0.0,0.0,0.0,0.0,0.0,0.0,0.0,0.0,0.0,0.0,0.0,0.0,0.0,0.0,0.0,0.0,0.0,0.0,0.0,0.0,0.0,0.0,0.0,0.0,0.0,0.0,0.0,0.0,0.0,0.0,0.0,0.0,0.0,0.0,0.0,0.0,0.0,0.0,0.0,0.0,0.0,0.0,0.0,0.0,0.0,0.0,0.0,0.0,0.0,0.0,0.0,0.0,0.0,0.0,0.0,0.0,0.0,0.0,0.0,0.0,0.0,0.0,0.0,0.0,0.0,0.0,0.0,0.0,0.0,0.0,0.0,0.0,0.0,0.0,0.0,0.0,0.0,0.0,0.0,0.0,0.0,0.0,0.0,0.0,0.0,0.0,0.0,0.0,0.0,0.0,0.0,0.0,0.0,0.0,0.0,0.0,0.0,0.0,0.0,0.0,0.0,0.0,0.0,0.0,0.0,0.0,0.0,0.0,0.0,0.0,0.0,0.0,0.0,0.0,0.0,0.0,0.0,0.0,0.0,0.0,0.0,0.0,0.0,0.0,0.0,0.0,0.0,0.0,0.0,0.0,0.0,0.0,0.0,0.0,0.0,0.0,0.0,0.0,0.0,0.0,0.0,0.0,0.0,0.0,0.0,0.0,0.0,0.0,0.0,0.0,0.0,0.0,0.0,0.0,0.0,0.0,0.0,0.0,0.0,0.0,0.0,0.0,0.0,0.0,0.0,0.0,0.0,0.0,0.0,0.0,0.0,0.0,0.0,0.0,0.0,0.0,0.0,0.0,0.0,0.0,0.0,0.0,0.0,0.0,0.0,0.0,0.0,0.0,0.0,0.0,0.0,0.0,0.0,0.0,0.0,0.0,0.0,0.0,0.0,0.0,0.0,0.0,0.0,0.0,0.0,0.0,0.0,0.0,0.0,0.0,0.0,0.0,0.0,0.0,0.0,0.0,0.0,0.0,0.0,0.0,0.0,0.0,0.0,0.0,0.0,0.0,0.0,0.0,0.0,0.0,0.0,0.0,0.0,0.0,0.0,0.0,0.0,0.0,0.0,0.0,0.0,0.0,0.0,0.0,0.0,0.0,0.0,0.0,0.0,0.0,0.0,0.0,0.0,0.0,0.0,0.0,0.0,0.0,0.0,0.0,0.0,0.0,0.0,0.0,0.0,0.0,0.0,0.0,0.0,0.0,0.0,0.0,0.0,0.0,0.0,0.0,0.0,0.0,0.0,0.0,0.0,0.0,0.0,0.0,0.0,0.0,0.0,0.0,0.0,0.0,0.0,0.0,0.0,0.0,0.0,0.0,0.0,0.0,0.0,0.0,0.0,0.0,0.0,0.0,0.0,0.0,0.0,0.0,0.0,0.0,0.0,0.0,0.0,0.0,0.0,0.0,0.0,0.0,0.0,0.0,0.0,0.0,0.0,0.0,0.0,0.0,0.0,0.0,0.0,0.0,0.0,0.0,0.0,0.0,0.0,0.0,0.0,0.0,0.0,0.0,0.0,0.0,0.0,0.0,0.0,0.0,0.0,0.0,0.0,0.0,0.0,0.0,0.0,0.0,0.0,0.0,0.0,0.0,0.0,0.0,0.0,0.0,0.0,0.0,0.0,0.0,0.0,0.0,0.0,0.0,0.0,0.0,0.0,0.0,0.0,0.0,0.0,0.0,0.0,0.0,0.0,0.0,0.0,0.0,0.0,0.0,0.0,0.0,-1.2256,0.0,0.0,0.0,0.0,0.0,0.0,0.0,0.0,0.0,0.0,0.0,0.0,0.0,0.0,0.0,0.0,0.0,0.0,0.0,0.0,0.0,0.0,0.0,0.0,-1.3202,-1.3971,-1.5182,-1.5303,0.0,0.0,0.0,0.0,0.0,0.0,0.0,0.0,0.0,-1.036,-1.0714,-1.1043,-1.2098,-1.3788,-1.2906,-1.205,-1.1244,0.0,0.0,0.0,0.0,0.0,0.0,0.0,0.0,0.0,0.0,0.0,0.0,0.0,0.0,0.0,0.0,0.0,0.0,0.0,0.0,0.0,0.0,0.0,0.0,0.0,0.0,0.0,0.0,0.0,0.0,0.0,0.0,0.0,0.0,0.0,0.0,0.0,0.0,0.0,0.0,0.0,0.0,0.0,0.0,0.0,0.0,0.0,0.0,0.0,0.0,0.0,0.0,0.0,0.0,0.0,0.0,0.0,0.0,0.0,0.0,0.0,0.0,0.0,0.0,0.0,0.0,0.0,0.0,0.0,0.0,0.0,-1.2571,0.0,0.0,0.0,0.0,0.0,0.0,0.0,0.0,0.0,0.0,0.0,0.0,0.0,0.0,0.0,0.0,0.0,0.0,0.0,0.0,0.0,-1.0846,-1.2608,-1.2805,-1.3418,-1.4941,-1.5065,-1.4694,-1.3829,-1.2978,0.0,0.0,0.0,0.0,-1.02,-1.0334,-1.0794,-1.1571,-1.2738,-1.4027,-1.5447,-1.5455,-1.4762,-1.3457,-1.2467,0.0,0.0,0.0,0.0,0.0,0.0,0.0,0.0,0.0,0.0,0.0,0.0,0.0,0.0,0.0,0.0,0.0,0.0,0.0,0.0,0.0,0.0,0.0,0.0,0.0,0.0,0.0,0.0,0.0,0.0,0.0,0.0,0.0,0.0,0.0,0.0,0.0,0.0,0.0,0.0,0.0,0.0,0.0,0.0,0.0,0.0,0.0,0.0,0.0,0.0,0.0,0.0,0.0,0.0,0.0,0.0,0.0,0.0,0.0,0.0,0.0,0.0,0.0,-1.5954,-1.5167,-1.4488,-1.4488,-1.4183,-1.3624,-1.3163,-1.3436,-1.4141,0.0,0.0,0.0,0.0,0.0,0.0,0.0,0.0,0.0,0.0,0.0,0.0,0.0,0.0,0.0,0.0,0.0,0.0,0.0,0.0,-1.0808,-1.2606,-1.2792,-1.3161,-1.4097,-1.418,-1.38,-1.2931,-1.2114,0.0,0.0,0.0,-1.0208,-1.0207,-1.0883,-1.1584,-1.2269,-1.5331,-1.6946,-1.718,-1.7296,-1.7265,-1.7065,-1.6113,-1.566,-1.5496,0.0,0.0,0.0,0.0,0.0,0.0,0.0,0.0,0.0,0.0,0.0,0.0,0.0,0.0,0.0,0.0,0.0,0.0,0.0,0.0,0.0,0.0,0.0,0.0,0.0,0.0,0.0,0.0,0.0,0.0,0.0,0.0,0.0,0.0,0.0,0.0,0.0,0.0,0.0,0.0,0.0,-1.7205,-1.7347,0.0,0.0,0.0,0.0,0.0,0.0,0.0,0.0,0.0,0.0,0.0,0.0,0.0,-1.7127,-1.7137,-1.744,-1.7268,-1.6639,-1.678,-1.613,-1.4824,-1.4824,-1.4491,-1.3859,-1.4011,0.0,-1.4964,-1.4954,0.0,0.0,0.0,0.0,0.0,0.0,0.0,0.0,0.0,0.0,0.0,0.0,0.0,0.0,0.0,0.0,0.0,0.0,0.0,0.0,0.0,-1.2878,-1.3649,-1.5062,-1.5555,-1.5082,-1.3422,-1.3065,0.0,0.0,-1.0397,-1.0193,-1.0191,-1.1359,-1.2964,-1.499,-1.698,-1.824,-1.8789,-1.8859,-1.8988,-1.9181,-1.8302,-1.7342,-1.6293,-1.55,0.0,0.0,0.0,0.0,0.0,0.0,0.0,0.0,0.0,0.0,0.0,0.0,0.0,0.0,0.0,0.0,0.0,0.0,0.0,0.0,0.0,0.0,0.0,0.0,0.0,0.0,0.0,0.0,0.0,0.0,0.0,0.0,0.0,0.0,0.0,0.0,0.0,0.0,0.0,-1.776,-1.8079,-1.8693,-1.8896,-1.8717,0.0,0.0,0.0,0.0,0.0,0.0,0.0,0.0,0.0,-1.7733,-1.7306,-1.7262,-1.766,-1.7216,-1.6715,-1.6197,-1.6087,-1.5452,-1.4383,-1.4383,-1.4073,-1.3529,-1.3665,-1.395,-1.4322,-1.4213,-1.3779,-1.3132,0.0,0.0,0.0,0.0,-1.1779,-1.1865,0.0,0.0,0.0,0.0,0.0,0.0,0.0,0.0,0.0,0.0,0.0,0.0,-1.2529,-1.3204,-1.413,-1.562,-1.6314,-1.5809,-1.378,-1.3582,-1.262,-1.0522,-1.0218,-1.0101,-1.0121,-1.1919,-1.4267,-1.7119,-1.8074,-1.8819,-1.9344,-1.9435,-1.9533,-1.9569,-1.8976,-1.8107,-1.7012,-1.633,-1.5431,-1.4321,0.0,0.0,0.0,0.0,0.0,0.0,0.0,0.0,0.0,0.0,0.0,0.0,0.0,0.0,0.0,0.0,0.0,0.0,0.0,0.0,0.0,0.0,0.0,0.0,0.0,0.0,0.0,0.0,0.0,0.0,0.0,0.0,0.0,0.0,0.0,0.0,0.0,-1.8426,-1.8326,-1.8921,-1.8929,-1.8485,0.0,0.0,0.0,0.0,0.0,0.0,-1.6908,-1.6908,-1.7151,-1.7694,-1.7146,-1.7081,-1.7654,-1.6701,-1.5976,-1.554,-1.5064,-1.432,-1.3416,-1.3416,-1.3151,-1.2727,-1.2822,-1.3024,-1.3257,-1.3395,-1.344,-1.3382,-1.2839,-1.2424,-1.2157,-1.2414,-1.2428,-1.2482,0.0,0.0,0.0,0.0,0.0,0.0,0.0,0.0,0.0,0.0,0.0,-1.1681,-1.336,-1.39,-1.4324,-1.4727,-1.5044,-1.4648,-1.3328,-1.2647,-1.1926,-1.1087,-1.0264,-0.9846,-0.991,-1.2665,-1.5203,-1.7461,-1.8599,-1.879,-1.8098,-1.8488,-1.8336,-1.7729,-1.7689,-1.8125,-1.8715,-1.634,-1.5717,-1.5972,-1.2687,0.0,0.0,0.0,0.0,0.0,0.0,0.0,0.0,0.0,0.0,0.0,0.0,0.0,0.0,0.0,0.0,0.0,0.0,0.0,0.0,0.0,0.0,0.0,0.0,0.0,0.0,0.0,0.0,0.0,0.0,0.0,0.0,0.0,0.0,0.0,0.0,0.0,0.0,-1.6927,-1.7912,0.0,0.0,0.0,0.0,-1.772,-1.7888,-1.7697,-1.6945,-1.6908,-1.684,-1.6682,-1.6646,-1.6571,-1.6487,-1.6168,-1.554,-1.4554,-1.4025,-1.3089,-1.1831,-1.1831,-1.165,-1.1417,-1.1598,-1.1795,-1.2097,-1.3362,-1.3538,-1.3051,-1.3205,-1.2589,-1.175,-1.2713,-1.2908,-1.2798,0.0,0.0,0.0,-1.0763,-1.0417,-1.0169,-1.0051,-0.9775,-0.9647,-0.9802,-0.9937,-1.0431,-1.1548,-1.2632,-1.3728,-1.4784,-1.5694,-1.5834,-1.4932,-1.3847,-1.298,-1.2408,-1.1068,-1.1269,-1.3272,-1.4778,-1.6415,-1.8217,-1.8143,-1.8007,-1.7803,-1.7607,-1.7423,-1.7263,-1.6835,-1.6812,-1.713,-1.7018,-1.6494,-1.5644,-1.4346,-1.2962,0.0,0.0,0.0,0.0,0.0,0.0,0.0,0.0,0.0,0.0,0.0,0.0,0.0,0.0,0.0,0.0,0.0,0.0,0.0,0.0,0.0,0.0,0.0,0.0,0.0,0.0,0.0,0.0,0.0,0.0,0.0,0.0,0.0,0.0,0.0,0.0,0.0,-1.831,-1.8672,0.0,0.0,-1.8348,-1.8301,-1.7738,-1.7472,-1.7202,-1.6927,-1.6908,-1.6821,-1.6613,-1.6107,-1.5731,-1.5584,-1.4838,-1.4127,-1.3475,-1.3138,-1.2438,-1.1424,-1.1424,-1.1304,-1.102,-1.0833,-1.0902,-1.1147,-1.1418,-1.2038,-1.2839,-1.3116,-1.2979,-1.269,-1.318,-1.32,-1.3106,0.0,0.0,0.0,-1.0302,-1.0195,-1.0141,-0.9992,-0.9656,-0.9519,-0.9755,-0.9653,-0.993,-1.0838,-1.1949,-1.3123,-1.4385,-1.5474,-1.5766,-1.5035,-1.3985,-1.3006,-1.2159,-1.123,-1.2098,-1.5003,-1.554,-1.6457,-1.7792,-1.7389,-1.7029,-1.6717,-1.6439,-1.6224,-1.6075,-1.562,-1.5448,-1.5545,-1.6426,-1.6381,-1.5688,-1.5005,-1.3884,-1.2551,0.0,0.0,0.0,0.0,0.0,0.0,0.0,0.0,0.0,0.0,0.0,0.0,0.0,0.0,0.0,0.0,0.0,0.0,0.0,0.0,0.0,0.0,0.0,0.0,0.0,0.0,0.0,0.0,0.0,0.0,0.0,0.0,0.0,0.0,0.0,-1.78,-1.8492,-1.8747,-1.861,-1.7986,-1.8032,-1.78,-1.7089,-1.6694,-1.6376,-1.6101,-1.6083,-1.5973,-1.5713,-1.5178,-1.4777,-1.4522,-1.3861,-1.3328,-1.2931,-1.2708,-1.2143,-1.1281,-1.1075,-1.0746,-1.036,-0.997,-0.9894,-1.0043,-0.9805,-1.0268,-1.1204,-1.2221,-1.261,-1.2695,-1.3009,-1.3126,-1.3177,0.0,0.0,-1.0311,-1.0222,-1.0195,-1.013,-0.9938,-0.9552,-0.961,-1.0522,-1.0157,-1.0262,-1.1368,-1.1864,-1.245,-1.3324,-1.4162,-1.4271,-1.3463,-1.288,-1.1859,-1.0297,-1.0791,-1.2257,-1.475,-1.4815,-1.5259,-1.6197,-1.6407,-1.5911,-1.4762,-1.4953,-1.4702,-1.408,-1.4093,-1.4162,-1.4297,-1.4495,-1.526,-1.6181,-1.4508,-1.437,-1.4979,0.0,0.0,0.0,0.0,0.0,0.0,0.0,0.0,0.0,0.0,0.0,0.0,0.0,0.0,0.0,0.0,0.0,0.0,0.0,0.0,0.0,0.0,0.0,0.0,0.0,0.0,0.0,0.0,0.0,0.0,0.0,0.0,0.0,-1.7248,-1.728,-1.7226,-1.711,-1.7993,-1.8093,-1.6748,-1.7501,-1.7417,-1.5821,-1.5674,-1.5325,-1.4543,-1.4488,-1.4307,-1.3927,-1.3896,-1.3741,-1.3413,-1.3396,-1.3277,-1.2995,-1.2741,-1.2148,-1.1298,-1.0634,-0.9995,-0.9396,-0.8953,-0.8789,-0.875,-0.8661,-0.8339,-0.816,-1.0399,-1.1353,-1.1514,-1.2046,-1.2469,-1.2827,-1.2207,-1.1562,-1.1014,-1.0321,-1.0195,-1.013,-0.9938,-0.9437,-0.9111,-0.9163,-0.8544,-0.8325,-0.9004,-0.9335,-1.0057,-1.1408,-1.2418,-1.32,-1.373,-1.2493,-1.1398,-1.0679,-1.2598,-1.4085,-1.4928,-1.5023,-1.536,-1.5893,-1.4946,-1.4329,-1.4012,-1.3661,-1.3514,-1.3518,-1.3619,-1.3793,-1.4011,-1.4082,-1.4344,-1.473,-1.4743,-1.4489,-1.4084,0.0,0.0,0.0,0.0,0.0,0.0,0.0,0.0,0.0,0.0,0.0,0.0,0.0,0.0,0.0,0.0,0.0,0.0,0.0,0.0,0.0,0.0,0.0,0.0,0.0,0.0,0.0,0.0,0.0,0.0,0.0,0.0,-1.6554,-1.6892,-1.6942,-1.6995,-1.7209,-1.8052,-1.8233,-1.7275,-1.7201,-1.6798,-1.5784,-1.516,-1.4738,-1.4506,-1.4488,-1.4387,-1.4136,-1.3983,-1.3783,-1.3556,-1.3446,-1.3277,-1.3013,-1.2924,-1.2443,-1.1592,-1.1193,-1.0524,-0.965,-0.8744,-0.8238,-0.7925,-0.6987,-0.6517,-0.6572,-0.8229,-0.8495,-0.8002,-0.8365,-0.8345,-0.8287,-1.2832,-1.2383,-1.1854,-1.0909,-1.0744,-1.0571,-1.0024,-0.9474,-0.906,-0.8916,-0.7909,-0.74,-0.7977,-0.8133,-0.8751,-1.0098,-1.1006,-1.1658,-1.2033,-1.0865,-1.0409,-1.0973,-1.2653,-1.3766,-1.417,-1.4422,-1.4483,-1.4329,-1.3498,-1.3044,-1.3009,-1.2703,-1.2716,-1.3019,-1.3092,-1.321,-1.3359,-1.344,-1.353,-1.3657,-1.4264,-1.4339,-1.4102,-1.4357,-1.4114,-1.3666,-1.3789,-1.3817,-1.4026,-1.554,0.0,0.0,0.0,0.0,0.0,0.0,0.0,0.0,0.0,0.0,0.0,0.0,0.0,0.0,0.0,0.0,0.0,0.0,0.0,0.0,0.0,0.0,0.0,0.0,-1.6421,-1.6367,-1.6554,-1.6712,-1.6977,-1.7406,-1.7755,-1.7697,-1.6994,-1.6517,-1.5936,-1.5134,-1.4721,-1.4488,-1.4488,-1.4488,-1.4399,-1.4219,-1.3997,-1.3795,-1.36,-1.3462,-1.3329,-1.3156,-1.3049,-1.2614,-1.1854,-1.1285,-1.0521,0.0,-0.8458,-0.7685,-0.713,-0.5991,-0.5235,0.0,0.0,0.0,0.0,0.0,-0.571,-0.5327,-1.4121,-1.3535,-1.2733,-1.1812,-1.1646,-1.1305,-1.0291,-0.9761,-0.944,-0.9338,-0.7947,-0.7209,-0.7944,-0.7914,-0.827,-0.9415,-1.0133,-1.0256,-0.9638,-0.9055,-0.9439,-1.103,-1.1682,-1.2224,-1.278,-1.3165,-1.2934,-1.2033,-1.1962,-1.189,-1.1845,-1.1845,-1.2041,-1.2388,-1.2388,-1.2388,-1.2463,-1.2662,-1.2738,-1.2742,-1.3284,-1.3901,-1.4531,-1.4907,-1.5053,-1.51,-1.5287,-1.5324,-1.5332,-1.5522,0.0,0.0,0.0,0.0,0.0,0.0,0.0,0.0,0.0,0.0,0.0,0.0,0.0,0.0,0.0,0.0,0.0,0.0,0.0,0.0,0.0,0.0,0.0,0.0,-1.6203,-1.6148,-1.6148,-1.6459,-1.6887,-1.7462,-1.7226,-1.6793,-1.6183,-1.5675,-1.5035,-1.4216,-1.432,-1.4453,-1.4464,0.0,0.0,0.0,0.0,-1.3795,-1.36,-1.3462,-1.3396,-1.3396,-1.3156,-1.2727,-1.2137,-1.1263,-1.0337,-0.9365,-0.8273,-0.7326,-0.6477,-0.5536,-0.4267,-0.3015,-0.3611,-0.3973,-0.4187,-0.4205,-0.3632,-0.3077,-1.4238,-1.3965,-1.3593,-1.2707,-1.2551,-1.2201,-1.1204,-1.0691,-1.0238,-0.9706,-0.8172,-0.7552,-0.8667,-0.8265,-0.8477,-0.9905,-1.092,-1.1091,-1.0206,-1.056,-1.0541,-0.9959,-1.1149,-1.1722,-1.1464,-1.1383,-1.1092,-1.0523,-1.0353,-1.0259,-1.0226,-1.0226,-1.0539,-1.107,-1.107,-1.1204,-1.1409,-1.1716,-1.1701,-1.1493,-1.2019,-1.289,-1.3918,-1.448,-1.4766,-1.4891,-1.5013,-1.5165,-1.5501,-1.6914,-1.6366,-1.5368,-1.6871,-1.6401,0.0,0.0,0.0,0.0,0.0,0.0,0.0,0.0,0.0,0.0,0.0,0.0,0.0,0.0,0.0,0.0,0.0,0.0,0.0,-1.634,-1.5754,-1.533,-1.533,-1.5621,-1.6002,-1.6427,-1.6605,-1.6262,-1.5193,-1.5123,-1.4816,-1.4023,-1.3997,-1.4096,-1.4257,-1.4257,0.0,-1.4201,-1.3997,-1.3795,-1.36,-1.3462,-1.3396,-1.3396,0.0,0.0,-1.2498,-1.2041,-1.1203,-1.0045,-0.8974,-0.7901,-0.6789,-0.5304,-0.3152,-0.0772,-0.048,-0.0162,0.0161,0.0508,0.0767,0.067,-1.5391,-1.5059,-1.4472,-1.3609,-1.3444,-1.3128,-1.2141,-1.1741,-1.137,-1.0863,-0.9658,-0.8976,-0.9326,-0.8921,-0.8822,-0.9392,-0.9691,-0.9584,-0.8938,-0.9291,-0.9427,-0.9169,-1.0083,-1.0291,-0.9645,-0.977,-0.953,-0.8895,-0.8778,-0.8648,-0.8608,-0.8608,-0.8838,-0.9304,-0.9304,-0.9504,-0.9863,-1.0033,-0.9873,-0.9528,-0.9684,-0.9991,-1.0594,-1.2865,-1.3682,-1.3617,-1.413,-1.4334,-1.4564,-1.5603,-1.5303,-1.4703,-1.5873,-1.5879,-1.563,0.0,0.0,0.0,0.0,0.0,0.0,0.0,0.0,0.0,0.0,0.0,0.0,0.0,0.0,-1.6922,0.0,0.0,-1.5792,-1.5448,-1.5016,-1.4665,-1.4477,-1.4176,-1.4357,-1.5318,-1.5577,-1.5284,-1.4341,-1.4109,-1.3883,-1.3619,-1.3656,-1.3803,-1.4038,-1.4051,-1.4051,-1.4051,-1.3838,-1.3691,-1.36,-1.3462,-1.3396,-1.3396,-1.3396,-1.3122,-1.2591,-1.2254,-1.1439,-1.0245,-0.9174,-0.7955,-0.6538,-0.4392,-0.2345,-0.0464,0.0418,0.1271,0.2009,0.2173,0.228,0.2175,-1.6758,-1.6113,-1.5176,-1.4489,-1.4348,-1.402,-1.3089,-1.2781,-1.2534,-1.2184,-1.1197,-1.0431,-1.0161,-0.9734,-0.9342,-0.9041,-0.8623,-0.8109,-0.7471,-0.7739,-0.7986,-0.8179,-0.8787,-0.8655,-0.7706,-0.8043,-0.7812,-0.6964,-0.6902,-0.6792,-0.6571,-0.6571,-0.6727,-0.6961,-0.7045,-0.7305,-0.7657,-0.7841,-0.7582,-0.7063,-0.69,-0.6439,-0.6241,-0.9367,-1.0665,-1.0885,-1.1369,-1.1932,-1.2453,-1.2401,-1.2845,-1.3419,-1.3577,-1.423,-1.5106,-1.5988,-1.6806,0.0,0.0,0.0,0.0,0.0,0.0,0.0,0.0,0.0,-1.7745,-1.7209,-1.6224,-1.543,-1.5267,-1.5008,-1.4722,-1.4384,-1.4311,-1.4042,-1.3355,-1.2551,-1.2394,-1.3444,-1.39,-1.3872,-1.3246,-1.2851,-1.2757,-1.3055,-1.3177,-1.3387,-1.3766,-1.378,-1.3795,-1.3838,-1.3676,-1.3586,-1.3555,-1.3396,-1.3346,-1.3396,-1.3295,-1.3016,-1.2591,-1.2269,-1.1439,-1.0184,-0.8874,-0.7575,-0.619,-0.3668,-0.2031,-0.0997,0.0137,0.13,0.2363,0.2395,0.2499,0.2543,-1.7539,-1.6523,-1.5371,-1.5273,-1.5218,-1.4873,-1.3995,-1.3725,-1.3474,-1.3042,-1.1632,-1.093,-1.158,-1.0715,-1.0108,-1.0129,-0.985,-0.8977,-0.7327,-0.8084,-0.7947,-0.6451,-0.741,-0.7299,-0.5844,-0.5791,-0.5324,-0.4327,-0.4329,-0.4081,-0.3658,-0.3658,-0.3654,-0.3645,-0.4017,-0.419,-0.431,-0.5062,-0.4914,-0.4154,-0.4094,-0.3212,-0.1942,-0.2103,-0.3575,-0.5422,-0.4519,-0.6128,-0.8482,-0.7089,-0.8835,-1.142,-1.046,-1.0917,-1.2445,-1.5757,0.0,-1.8282,-2.0392,0.0,0.0,-2.0019,-2.0133,-2.0008,0.0,0.0,-1.6797,-1.5277,-1.4216,-1.3677,-1.3855,-1.3938,-1.3909,-1.3819,-1.379,-1.3201,-1.1552,-1.093,-1.0347,-0.9645,-1.103,-1.188,-1.1424,-1.1598,-1.1871,-1.2202,-1.2246,-1.259,-1.3328,-1.3378,-1.3443,-1.3632,-1.36,-1.354,-1.3413,-1.3173,-1.3156,-1.3396,-1.2926,-1.2668,-1.2591,-1.2316,-1.1389,-0.9911,-0.7818,-0.673,-0.6241,-0.4221,-0.2772,-0.18,-0.0884,0.0153,0.118,0.1819,0.2228,0.2303,-1.6992,-1.625,-1.5391,-1.5391,-1.5381,-1.5221,-1.4815,-1.4713,-1.4415,-1.372,-1.2997,-1.2293,-1.1608,-1.0354,-0.9275,-0.8552,-0.8578,-0.7888,-0.6153,-0.6782,-0.6748,-0.5674,-0.5766,-0.5443,-0.4653,-0.4272,-0.363,-0.2805,-0.2794,-0.2293,-0.1346,-0.1346,-0.1208,-0.0941,-0.1132,-0.1319,-0.1563,-0.1695,-0.1253,-0.0458,0.009,0.1163,0.2633,0.3987,0.37,0.2109,-0.1474,-0.4386,0.0,-0.6464,-0.7988,-0.9821,-0.9379,-1.0021,-1.1579,-1.507,-1.6105,0.0,-1.8804,0.0,0.0,0.0,-1.9894,-1.9225,-1.8586,-1.7082,-1.5503,-1.4316,-1.2946,-1.2171,-1.2873,-1.283,-1.283,0.0,-1.3216,-1.2646,-1.1107,-0.9836,-0.8962,-0.8633,-0.9164,-0.9675,-0.9952,-1.0731,-1.1306,-1.1555,-1.1755,-1.2178,-1.2857,-1.3035,-1.3158,-1.3244,-1.3395,-1.3379,-1.3173,-1.3067,-1.2979,-1.2926,-1.2706,-1.2514,-1.2356,-1.1851,-1.0708,-0.9039,-0.7576,-0.6582,-0.5898,-0.4701,-0.3548,-0.2516,-0.1835,-0.0979,-0.0045,0.0903,0.1471,0.1678,-1.6523,-1.5996,-1.5391,-1.5409,-1.538,-1.536,-1.5318,-1.509,-1.4701,-1.4086,-1.3555,-1.2665,-1.1122,-0.994,-0.8783,-0.7586,-0.7712,-0.7081,-0.527,-0.5813,-0.5747,-0.4644,-0.4323,-0.3846,-0.317,-0.2573,-0.1912,-0.1079,-0.0948,-0.0228,0.1069,0.1069,0.1355,0.1856,0.1726,0.1588,0.1413,0.1587,0.2154,0.3044,0.3876,0.5082,0.6552,0.836,0.881,0.7757,0.224,-0.1585,-0.4114,-0.4616,-0.6448,-0.8472,-0.8197,-0.9,-1.0755,-1.4453,-1.5843,-1.656,-1.8287,0.0,0.0,-2.0538,-1.955,-1.849,-1.8364,-1.6361,-1.417,-1.297,-1.1295,-1.0314,-1.1202,-1.1351,0.0,-1.2191,-1.2554,-1.2238,-1.0724,-0.9278,-0.8406,-0.8519,-0.8456,-0.862,-0.9211,-1.0181,-1.0818,-1.0968,-1.1291,-1.1736,-1.2325,-1.263,-1.2813,-1.2887,-1.3069,-1.3086,-1.2887,-1.2813,-1.2722,-1.261,-1.2249,-1.2015,-1.182,-1.0762,-0.9653,-0.8482,-0.7344,-0.6511,-0.5915,-0.5137,-0.4244,-0.3302,-0.2682,-0.1952,-0.1154,-0.0189,0.0489,0.0909,-1.6523,-1.5996,-1.541,-1.5398,-1.5358,-1.5299,-1.5296,-1.457,-1.4024,-1.3995,-1.2579,-1.1214,-1.0241,-0.9859,-0.927,-0.8254,-0.8241,-0.7343,-0.5148,-0.5802,-0.5255,-0.2887,-0.3279,-0.272,-0.105,-0.052,0.0211,0.1188,0.1652,0.2531,0.378,0.378,0.4225,0.5035,0.4579,0.458,0.4924,0.4484,0.494,0.6035,0.6712,0.7913,0.939,1.0495,1.0588,0.9903,0.8116,0.3982,-0.0507,0.0431,-0.2934,-0.7346,-0.6242,-0.7124,0.0,-1.4061,-1.7407,-1.9712,0.0,0.0,-1.9137,-1.955,-1.8968,-1.8074,-1.7161,-1.5176,-1.2908,-1.0685,-0.8806,-0.7791,-0.842,-0.9244,-1.0068,-1.0659,-1.1854,-1.1994,-1.0021,-0.9339,-0.9036,-0.8912,-0.9156,-0.9392,0.0,-1.0043,-1.0421,-1.0421,-1.0739,-1.1159,-1.17,-1.2035,-1.2352,-1.261,-1.263,-1.263,-1.261,-1.2352,-1.2352,-1.2591,-1.1412,-1.0872,-1.0855,-0.8898,-0.8257,-0.861,-0.6939,-0.6401,-0.6576,-0.5521,-0.4758,-0.4183,-0.339,-0.2693,-0.209,-0.1471,-0.0692,0.0,-1.6641,-1.6465,-1.6269,-1.6258,-1.6217,-1.5974,-1.5392,-1.5047,-1.4652,-1.4078,-1.3034,0.0,0.0,0.0,0.0,0.0,-0.8509,-0.791,-0.6486,-0.647,-0.5919,-0.4665,-0.3821,-0.2716,-0.1329,-0.0245,0.0944,0.2222,0.2924,0.379,0.4771,0.5325,0.5869,0.6414,0.65,0.6631,0.6778,0.6868,0.7496,0.8451,0.8951,1.017,1.1743,1.2453,1.1311,0.9131,0.0,0.4117,0.0104,-0.1646,-0.4512,0.0,-0.6703,0.0,0.0,-1.3837,-1.6503,-1.8327,-1.8976,0.0,-1.8881,-1.8877,-1.8249,-1.7404,-1.6501,-1.4068,-1.1404,-0.9377,-0.7663,-0.661,-0.695,-0.7885,-0.9105,-1.0647,-1.153,-1.1651,-1.0581,-0.9814,-0.9479,-0.974,-0.9734,0.0,0.0,0.0,0.0,-1.0671,-1.0973,-1.1341,-1.1738,-1.203,-1.2231,-1.2332,-1.2514,-1.2514,-1.2332,-1.2251,-1.2149,-1.2071,-1.1076,-1.0088,-0.9083,-0.8273,-0.7766,-0.7477,-0.6772,-0.6367,-0.6136,-0.577,-0.5098,-0.4236,-0.3619,-0.3012,-0.2428,-0.1604,-0.1005,-0.0557,-1.7168,-1.7147,-1.7122,-1.7123,-1.682,0.0,0.0,0.0,0.0,0.0,0.0,0.0,0.0,0.0,0.0,0.0,0.0,-0.8386,-0.7368,-0.7072,-0.6562,-0.5711,-0.4403,-0.3124,-0.1957,-0.0672,0.0779,0.237,0.3148,0.419,0.5418,0.6097,0.6738,0.7268,0.7511,0.779,0.8055,0.8536,0.9538,1.0838,1.1103,1.2113,1.3396,1.2825,1.0828,0.0,0.5287,0.2214,-0.0913,-0.3326,0.0,0.0,0.0,0.0,-1.1178,-1.3698,-1.5658,-1.7188,-1.8045,-1.8283,-1.8314,-1.8385,-1.7621,-1.6732,-1.6244,-1.2908,-0.9514,-0.8122,-0.6176,-0.4845,-0.5339,-0.6867,-0.8766,-1.088,-1.1679,-1.1948,-1.1646,-1.1069,-1.0776,-1.1033,-1.1002,0.0,0.0,0.0,0.0,-1.1142,-1.1395,-1.1637,-1.176,-1.203,-1.2107,-1.1882,-1.2056,-1.2014,-1.1732,-1.1732,-1.1423,-1.0818,-0.9982,-0.8917,-0.7727,-0.7517,-0.7161,-0.6647,-0.6522,-0.6141,-0.5601,-0.5601,-0.5098,-0.4244,-0.3598,-0.3144,-0.2708,-0.1573,-0.0981,-0.0646,-1.8066,-1.8021,-1.7959,0.0,0.0,0.0,0.0,0.0,0.0,0.0,0.0,0.0,0.0,0.0,0.0,0.0,0.0,0.0,-0.7856,-0.7663,-0.7081,-0.5994,-0.5047,-0.3996,-0.2858,-0.1785,-0.0304,0.1589,0.2309,0.362,0.5467,0.5937,0.6597,0.7386,0.7434,0.7844,0.853,0.9082,1.0514,1.2423,1.2418,1.3089,1.3829,1.1383,0.9018,0.639,0.1959,-0.1103,0.0,0.0,0.0,0.0,0.0,0.0,0.0,-1.3518,-1.4877,-1.6332,-1.7322,-1.7458,-1.7434,-1.7941,-1.7074,-1.6118,-1.6252,-1.176,-0.7408,-0.6851,-0.4402,-0.2673,0.0,0.0,-0.8902,-1.1156,-1.2105,-1.2664,-1.2881,-1.2804,-1.2681,0.0,0.0,0.0,0.0,0.0,0.0,-1.182,0.0,-1.2041,-1.1749,-1.204,-1.1924,-1.1318,-1.1296,-1.1173,-1.0897,-1.0897,-1.0275,-0.9026,-0.8279,-0.7575,-0.6861,-0.6672,-0.6436,-0.6171,-0.6171,-0.5764,-0.5088,-0.5059,-0.4738,-0.4163,-0.3376,-0.306,-0.2863,-0.1408,-0.0664,-0.0311,0.0,0.0,0.0,0.0,0.0,0.0,0.0,0.0,0.0,0.0,0.0,0.0,0.0,0.0,0.0,0.0,0.0,0.0,-0.9202,-0.8731,-0.824,-0.7748,-0.6874,-0.5817,-0.4517,-0.3583,-0.2548,-0.1414,-0.0912,-0.0179,0.0829,0.1487,0.2277,0.3176,0.3784,0.4146,0.4323,0.4121,0.4304,0.4706,0.441,0.5007,0.6022,0.5757,0.44,0.2384,0.0659,-0.1692,0.0,0.0,0.0,0.0,0.0,0.0,-1.1609,0.0,0.0,-1.4063,-1.5694,-1.6096,-1.6116,-1.6349,-1.614,-1.5645,-1.4733,-1.0708,-0.691,-0.6078,-0.3891,-0.2427,0.0,0.0,0.0,-1.0004,-1.072,0.0,-1.1674,-1.1687,0.0,-1.253,0.0,-1.3039,-1.341,-1.3659,0.0,0.0,-1.3076,-1.2742,-1.2317,-1.2372,-1.2087,-1.1318,-1.1296,-1.1173,-1.0897,-1.0897,-0.9988,-0.8212,-0.8398,-0.7758,-0.6376,-0.6324,-0.6195,-0.5973,-0.5767,-0.5355,-0.4788,-0.4584,-0.4067,-0.3355,-0.2906,-0.2483,-0.1993,-0.0931,-0.0222,0.031,0.0,0.0,0.0,0.0,0.0,0.0,0.0,0.0,0.0,0.0,0.0,0.0,0.0,0.0,0.0,0.0,0.0,0.0,0.0,-0.9862,-0.9583,-0.9494,-0.8688,-0.7851,-0.7006,-0.5745,-0.4817,-0.421,-0.3333,-0.2651,-0.2108,-0.1138,-0.03,0.0397,0.0834,0.1125,0.1255,0.1267,0.1588,0.0,0.0,0.179,0.2746,0.1932,0.0709,-0.0713,-0.1688,0.0,0.0,0.0,0.0,-0.9389,-0.9797,-1.0027,-1.0386,-1.1603,0.0,-1.2709,-1.4373,-1.4821,-1.4948,-1.5347,-1.5358,-1.4455,-1.1284,-0.8215,-0.532,-0.2826,-0.1617,0.0,0.0,0.0,0.0,0.0,0.0,0.0,-1.1503,-1.1678,-1.1963,0.0,-1.2769,0.0,-1.3553,-1.3853,-1.4024,0.0,-1.3701,-1.3326,-1.2862,-1.2734,-1.2242,-1.1327,-1.1015,-1.0589,-0.9983,-0.9741,-0.905,-0.794,-0.781,-0.7243,-0.6326,-0.6023,-0.5756,-0.5526,0.0,-0.4788,-0.4171,-0.4022,-0.346,-0.2671,-0.2207,-0.1782,-0.1262,-0.0088,0.0528,0.0966,0.0,0.0,0.0,0.0,0.0,0.0,0.0,0.0,0.0,-1.5547,-1.5469,-1.5095,0.0,0.0,0.0,0.0,0.0,0.0,0.0,0.0,-1.0909,-1.1028,-1.0354,-0.9866,-0.9562,0.0,0.0,0.0,0.0,-0.4801,-0.4426,-0.3309,-0.2536,-0.2094,-0.2046,-0.1849,-0.1551,-0.1084,-0.0269,0.0627,-0.0358,-0.0164,0.0472,0.0,0.0,0.0,0.0,0.0,0.0,0.0,-0.7579,-0.8491,-0.8892,-0.9042,-0.9308,-1.0708,-1.1276,-1.1749,-1.305,-1.3505,-1.3785,-1.4544,-1.459,-1.3087,-0.7908,-0.5819,-0.3805,0.0304,0.0,0.0,-0.3401,0.0,-0.7609,-0.9705,0.0,-1.0645,-1.1571,-1.1895,-1.2167,-1.2503,-1.275,-1.3091,-1.3553,-1.3969,-1.4188,-1.4188,-1.4051,-1.3795,-1.3377,-1.3126,-1.2444,-1.1246,-1.0572,-0.9703,-0.8634,-0.8279,-0.8009,-0.779,-0.6991,-0.654,-0.638,-0.5737,-0.5289,-0.4972,0.0,0.0,-0.3431,-0.3326,-0.2778,-0.1974,-0.1405,-0.0968,-0.0506,0.0811,0.1403,0.1725,0.0,0.0,0.0,0.0,0.0,0.0,0.0,0.0,0.0,0.0,-1.5801,-1.5311,0.0,0.0,0.0,0.0,0.0,0.0,0.0,0.0,0.0,-1.1711,-1.1596,-1.1166,0.0,0.0,0.0,0.0,0.0,0.0,-0.8314,-0.8096,-0.7577,-0.6805,-0.6422,-0.6219,-0.6174,-0.6454,-0.7163,-0.8134,-0.8672,-0.8779,-0.8666,-0.8661,0.0,0.0,0.0,0.0,0.0,0.0,-0.646,-0.7882,-0.7639,-0.8104,-0.8796,-0.9046,-0.9397,-0.9944,-1.0955,-1.1615,-1.2234,-1.3109,-1.348,-1.2804,-0.9731,-0.7401,0.0,0.0,0.0,-0.283,-0.434,-0.5906,-0.7228,-0.8032,0.0,0.0,0.0,0.0,-1.1015,0.0,0.0,0.0,0.0,0.0,0.0,0.0,0.0,-1.4196,-1.3736,-1.3511,-1.2593,-1.0856,-1.0205,-0.9149,-0.7661,-0.8327,-0.806,-0.6848,-0.7053,-0.6705,-0.5829,-0.5373,-0.4904,-0.4398,-0.3922,0.0,-0.3108,-0.2385,-0.1701,-0.1082,-0.0708,-0.0088,0.064,0.1119,0.1894,0.2773,0.0,0.0,0.0,0.0,0.0,0.0,0.0,-1.6577,-1.6871,-1.7635,-1.7532,-1.7009,-1.6029,-1.5407,-1.4772,0.0,0.0,0.0,0.0,0.0,0.0,0.0,0.0,0.0,0.0,0.0,0.0,0.0,0.0,0.0,0.0,0.0,0.0,0.0,0.0,0.0,0.0,-0.9055,-0.9838,-1.0972,0.0,0.0,0.0,0.0,0.0,0.0,0.0,0.0,0.0,0.0,-0.5007,-0.6096,-0.6508,-0.6901,-0.7346,-0.7803,-0.8015,-0.8272,-0.9117,-0.9951,-1.0706,-1.1293,-1.2223,-1.1802,-0.7283,0.0,0.0,0.0,0.0,-0.3767,-0.5228,-0.5825,0.0,0.0,0.0,0.0,0.0,0.0,0.0,0.0,0.0,0.0,0.0,0.0,0.0,0.0,0.0,0.0,-1.4011,-1.332,-1.217,-1.0474,-0.9869,-0.8813,-0.727,-0.7701,-0.7451,-0.6557,-0.6557,-0.6213,-0.5539,-0.4984,-0.4427,-0.3868,-0.3458,0.0,-0.238,-0.1789,-0.1106,-0.0377,0.0243,0.0839,0.146,0.2186,0.2783,0.3363,0.0,0.0,0.0,0.0,0.0,0.0,0.0,-1.7407,-1.7696,-1.919,-1.9729,-1.9283,-1.7519,-1.6978,-1.621,0.0,0.0,0.0,0.0,0.0,0.0,0.0,0.0,0.0,0.0,0.0,0.0,0.0,0.0,0.0,0.0,0.0,0.0,0.0,0.0,0.0,0.0,0.0,0.0,0.0,0.0,0.0,0.0,0.0,0.0,0.0,0.0,0.0,0.0,0.0,-0.3644,-0.416,-0.5081,-0.5567,-0.5963,-0.6658,-0.676,-0.6829,-0.753,-0.8344,-0.9029,-0.9307,-1.0614,-1.0405,-0.5003,-0.5831,0.0,0.0,0.0,-0.4607,-0.5814,0.0,-0.5413,0.0,0.0,0.0,0.0,0.0,0.0,0.0,0.0,0.0,0.0,0.0,0.0,0.0,0.0,0.0,-1.4188,-1.3174,-1.194,-1.049,-0.9692,-0.8579,-0.71,-0.702,-0.6721,-0.6228,-0.5887,-0.551,-0.5052,-0.4439,-0.3849,-0.3305,-0.2977,0.0,0.0,-0.1211,-0.0552,0.0266,0.1079,0.1676,0.2189,0.3151,0.3619,0.3881,0.0,0.0,0.0,0.0,0.0,0.0,0.0,-1.8461,-1.9539,-2.1128,-2.1959,-2.1754,-2.0135,-1.9069,-1.7675,0.0,0.0,0.0,0.0,0.0,0.0,0.0,0.0,0.0,0.0,0.0,0.0,0.0,0.0,0.0,0.0,0.0,0.0,0.0,0.0,0.0,0.0,0.0,0.0,0.0,0.0,0.0,0.0,0.0,0.0,0.0,0.0,0.0,0.0,0.0,0.0,-0.2713,-0.2944,-0.4186,-0.555,-0.5496,0.0,0.0,-0.638,-0.6721,-0.6952,-0.7273,-0.8311,-0.861,-0.6199,0.0,0.0,-0.5496,-0.5617,-0.5908,-0.5754,-0.548,0.0,0.0,0.0,-0.5285,0.0,0.0,0.0,0.0,0.0,0.0,0.0,0.0,0.0,0.0,0.0,0.0,0.0,-1.3576,-1.2621,-1.1329,-0.9936,-0.8502,-0.7025,-0.6704,-0.6136,-0.5324,-0.5283,-0.483,-0.4022,-0.359,-0.318,-0.274,-0.2172,0.0,0.0,-0.0464,0.0244,0.0885,0.151,0.225,0.3018,0.3368,0.3971,0.4646,0.0,0.0,0.0,0.0,0.0,0.0,-1.9215,-1.9243,-1.9928,-2.1932,-2.2591,-2.2599,-2.1833,-2.1326,-1.9754,-1.6532,0.0,0.0,0.0,0.0,0.0,0.0,0.0,0.0,0.0,0.0,0.0,0.0,0.0,0.0,0.0,0.0,0.0,0.0,0.0,0.0,0.0,0.0,0.0,0.0,0.0,0.0,0.0,0.0,0.0,0.0,0.0,0.0,0.0,0.0,0.0,0.0,-0.2913,-0.3217,0.0,0.0,-0.4104,-0.431,-0.4471,-0.4708,-0.4967,-0.513,-0.5976,-0.6575,-0.5773,0.0,0.0,-0.6295,-0.5857,-0.5558,-0.5763,-0.5118,-0.4377,-0.3948,-0.4139,-0.4733,-0.58,0.0,0.0,0.0,0.0,0.0,0.0,0.0,0.0,0.0,0.0,0.0,0.0,-1.3526,-1.2668,-1.1433,-1.0203,-0.8729,-0.7025,-0.6386,-0.5667,-0.4839,-0.43,-0.3785,-0.3279,-0.2829,-0.234,-0.1852,-0.1609,0.0,0.0,-0.0111,0.051,0.0994,0.1967,0.2751,0.3382,0.3827,0.4389,0.5069,0.0,0.0,0.0,0.0,0.0,-1.9303,-2.018,-2.0102,-2.0707,-2.2834,-2.3221,-2.3252,-2.3183,-2.2602,-2.1062,-1.8182,-1.6798,0.0,0.0,0.0,0.0,0.0,0.0,0.0,0.0,0.0,0.0,-1.6595,0.0,0.0,0.0,0.0,0.0,0.0,0.0,0.0,0.0,0.0,0.0,0.0,0.0,0.0,0.0,0.0,0.0,0.0,0.0,0.0,0.0,0.0,0.0,0.0,0.0,-0.3101,-0.269,0.0,-0.2784,-0.2887,-0.2719,-0.275,-0.2823,-0.2646,-0.3473,-0.446,0.0,0.0,0.0,-0.6826,-0.6059,-0.5377,-0.5875,-0.4951,-0.3963,-0.3554,-0.3812,-0.4453,-0.5629,-0.7625,-0.9521,0.0,0.0,0.0,0.0,0.0,0.0,0.0,0.0,0.0,0.0,-1.3407,-1.2626,-1.1581,-1.0288,-0.8771,-0.6989,-0.596,-0.4966,-0.4038,-0.3135,-0.2501,-0.2148,-0.1731,-0.1329,-0.0968,0.0,0.0,0.0,0.0404,0.0945,0.1278,0.2464,0.3256,0.3805,0.4349,0.4914,0.5595,0.0,0.0,0.0,0.0,0.0,0.0,-2.0255,-2.111,-2.2305,-2.4046,-2.4117,-2.4062,-2.4266,-2.2509,-2.1193,-2.0888,-1.8918,0.0,0.0,0.0,0.0,0.0,0.0,0.0,0.0,0.0,-1.616,-1.7283,-1.7501,-1.8106,0.0,0.0,0.0,0.0,0.0,0.0,0.0,0.0,0.0,0.0,0.0,0.0,0.0,0.0,0.0,0.0,0.0,0.0,0.0,0.0,0.0,0.0,0.0,-0.3999,-0.2554,-0.1824,-0.1637,-0.1532,-0.121,-0.0931,-0.0545,0.0265,-0.0734,-0.2203,0.0,0.0,0.0,-0.7495,-0.6699,-0.578,-0.6126,-0.5211,-0.4204,-0.3588,-0.3561,-0.4308,-0.6411,-0.8122,0.0,0.0,0.0,0.0,0.0,0.0,0.0,0.0,0.0,0.0,0.0,-1.326,-1.2597,-1.1911,-1.0142,-0.8458,-0.6917,-0.538,-0.3975,-0.2695,-0.1753,-0.0997,-0.0427,-0.0143,-0.008,0.0,0.0,0.0,0.0,0.1288,0.1793,0.1897,0.3045,0.3818,0.4359,0.4895,0.555,0.6313,0.0,0.0,0.0,0.0,0.0,0.0,0.0,-2.0608,-2.1216,-2.2361,-2.247,-2.2683,-2.3334,-2.2769,-2.2267,-2.2136,-1.95,0.0,0.0,0.0,0.0,0.0,0.0,0.0,0.0,0.0,-1.7103,-1.7782,-1.862,-1.9008,-1.8954,-1.8519,-1.7734,0.0,0.0,0.0,0.0,0.0,0.0,0.0,0.0,0.0,0.0,0.0,0.0,0.0,0.0,0.0,0.0,0.0,0.0,0.0,0.0,0.0,0.0,-0.2264,-0.1153,-0.0374,0.0245,0.0708,0.1104,0.1421,0.0468,-0.0872,-0.1992,0.0,0.0,-0.718,-0.681,-0.6224,-0.6394,-0.5511,-0.4668,-0.4495,-0.4684,-0.5531,0.0,0.0,0.0,0.0,0.0,0.0,0.0,0.0,0.0,0.0,0.0,0.0,0.0,-1.2911,-1.2568,-1.2249,-1.0527,-0.8843,-0.7253,-0.5446,-0.3597,-0.1737,-0.0559,0.0424,0.1245,0.1598,0.0,0.0,0.0,0.0,0.0,0.2482,0.3229,0.3539,0.4593,0.5502,0.6271,0.6672,0.7188,0.7859,0.0,0.0,0.0,0.0,0.0,0.0,0.0,-2.0604,-2.106,-2.1629,-2.1692,-2.2024,-2.2904,-2.2639,-2.2474,-2.267,-2.0788,0.0,0.0,0.0,0.0,0.0,0.0,0.0,-1.4924,-1.6448,-1.7524,-1.8143,-1.9469,-1.9964,-1.9643,-1.9589,-1.8886,-1.7656,-1.6914,0.0,0.0,0.0,0.0,0.0,0.0,0.0,-1.8906,0.0,0.0,0.0,0.0,0.0,0.0,0.0,0.0,0.0,0.0,0.0,0.0,0.0,-0.1453,-0.0383,0.0983,0.1699,0.2089,0.2237,0.1067,0.0,0.0,0.0,-0.6428,-0.8307,-0.8188,-0.7666,-0.7532,-0.6513,-0.5602,-0.5404,-0.5489,-0.6124,0.0,0.0,0.0,0.0,0.0,0.0,0.0,0.0,0.0,0.0,0.0,0.0,0.0,0.0,-1.2207,-1.1734,-1.0315,-0.8597,-0.6557,-0.452,-0.2434,-0.0293,0.0982,0.2001,0.2734,0.2946,0.0,0.0,0.0,0.0,0.0,0.3839,0.4661,0.5099,0.6031,0.6896,0.7627,0.7977,0.8461,0.9113,0.0,0.0,0.0,0.0,0.0,0.0,0.0,-2.0997,-2.1535,-2.1593,-2.1601,-2.1913,-2.2715,-2.2181,-2.2036,-2.2659,0.0,0.0,0.0,0.0,0.0,0.0,0.0,0.0,-1.5003,-1.6443,-1.7584,-1.8446,-1.9921,-2.0717,-2.083,-2.0458,-1.9921,-1.9238,-1.7545,-1.679,0.0,0.0,0.0,0.0,0.0,-1.8712,0.0,0.0,0.0,0.0,0.0,0.0,0.0,0.0,0.0,0.0,0.0,0.0,0.0,0.0,0.0,0.0,0.0,0.1816,0.2336,0.2466,0.1025,-0.1113,-0.372,-0.6086,0.0,-1.045,-1.0446,-0.9922,-0.9408,-0.8079,-0.6914,-0.6374,-0.6085,-0.6333,0.0,-0.8967,0.0,0.0,0.0,0.0,0.0,0.0,0.0,0.0,0.0,0.0,0.0,0.0,-1.1523,-1.0478,-0.9491,-0.7708,-0.5084,-0.2917,-0.0768,0.1401,0.2758,0.3616,0.4035,0.3995,0.0,0.0,0.0,0.0,0.0,0.5336,0.6132,0.6604,0.745,0.8103,0.8616,0.8948,0.9456,1.0088,0.0,0.0,0.0,0.0,0.0,0.0,0.0,0.0,0.0,0.0,-2.0632,-2.0709,-2.0909,-2.1894,-2.2639,0.0,0.0,0.0,0.0,0.0,0.0,0.0,0.0,0.0,-1.7003,-1.7622,-1.8257,-1.886,-1.9152,-1.9593,-2.0208,-2.0171,-1.9846,-1.9277,-1.8794,-1.8239,0.0,0.0,0.0,0.0,-1.848,-1.8271,0.0,0.0,0.0,0.0,-1.7585,-1.7591,0.0,0.0,0.0,0.0,0.0,0.0,0.0,0.0,-0.444,-0.319,-0.2926,0.0,0.0611,0.0609,-0.1075,-0.3227,0.0,-0.7826,-1.025,-1.1322,-1.1667,-1.1494,-1.0646,-0.9578,-0.8692,-0.8312,-0.8105,-0.8154,-0.8524,0.0,0.0,0.0,0.0,0.0,0.0,0.0,0.0,0.0,0.0,0.0,0.0,0.0,-1.0379,-0.8955,-0.7599,-0.6129,-0.4508,-0.2458,-0.0192,0.2326,0.3662,0.4708,0.5418,0.5425,0.0,0.0,0.0,0.0,0.5743,0.7023,0.7936,0.8584,0.9367,0.9923,1.0359,1.063,1.085,1.1059,0.0,0.0,0.0,0.0,0.0,0.0,0.0,0.0,0.0,0.0,0.0,-2.0255,-2.0173,-2.1772,0.0,0.0,0.0,0.0,0.0,0.0,0.0,0.0,0.0,-1.7218,-1.7556,-1.7971,-1.8566,-1.9324,-1.955,-1.9879,-2.0326,-2.0603,-2.0438,-1.9883,-1.9431,-1.8979,0.0,0.0,0.0,0.0,-1.9312,0.0,0.0,0.0,0.0,0.0,-1.7351,-1.7382,0.0,-1.5905,-1.5291,-1.4611,0.0,0.0,0.0,0.0,-0.6073,-0.5341,-0.5457,-0.3386,-0.1299,-0.1839,-0.3486,-0.54,-0.7047,-0.9488,-1.1635,-1.226,-1.253,-1.239,-1.1425,-1.043,-0.9591,-0.9093,-0.8701,0.0,0.0,0.0,-1.0179,0.0,0.0,0.0,0.0,0.0,0.0,0.0,0.0,0.0,0.0,0.0,-0.8673,-0.7157,-0.5804,-0.449,-0.3211,-0.0947,0.1275,0.3479,0.4834,0.5814,0.6457,0.6244,0.6215,0.0,0.0,0.0,0.7632,0.8528,0.9383,1.0204,1.061,1.1075,1.1512,1.1666,1.1867,1.2123,0.0,0.0,0.0,0.0,0.0,0.0,0.0,0.0,0.0,0.0,0.0,0.0,0.0,0.0,0.0,0.0,0.0,0.0,0.0,0.0,0.0,0.0,0.0,-1.7315,-1.7577,-1.7999,-1.8665,-1.9597,-2.0136,-2.0464,-2.0594,-2.106,-2.1034,-2.0566,-1.9961,-1.9687,0.0,0.0,0.0,-2.0466,-2.0314,0.0,0.0,0.0,0.0,0.0,0.0,0.0,0.0,-1.571,-1.5336,-1.4815,-1.1884,0.0,0.0,0.0,0.0,0.0,-0.7462,-0.5555,-0.3764,-0.4707,-0.6048,-0.7536,-0.9212,-1.1053,-1.2527,-1.2923,-1.3073,-1.2798,-1.1748,-1.0871,-1.0012,0.0,0.0,0.0,-0.8346,-0.8822,-0.9051,0.0,0.0,0.0,0.0,0.0,0.0,0.0,0.0,0.0,0.0,0.0,0.0,-0.5464,-0.4241,-0.2971,-0.1627,0.0737,0.2754,0.4434,0.5822,0.6661,0.699,0.6781,0.6883,0.0,0.0,0.0,0.9331,0.9716,1.0441,1.1296,1.1363,1.171,1.2205,1.2205,1.251,1.2942,0.0,0.0,0.0,0.0,0.0,0.0,0.0,0.0,0.0,0.0,0.0,0.0,0.0,0.0,0.0,0.0,0.0,0.0,0.0,0.0,0.0,-2.0285,-1.8808,-1.8136,-1.8408,-1.8261,-1.8502,-1.9111,-1.9088,-1.9412,-2.0038,-2.0215,-2.0398,-2.0534,-2.121,-2.1462,-2.1399,-2.1153,-2.1151,-2.1179,0.0,0.0,0.0,0.0,0.0,0.0,0.0,0.0,0.0,-1.4526,-1.4094,-1.3646,-1.1184,0.0,0.0,0.0,0.0,0.0,-0.9771,-0.93,-0.8207,-0.7914,-0.8381,-0.934,-1.0936,-1.2177,-1.2889,-1.2649,-1.2857,-1.2662,-1.1273,-1.0802,-1.0233,0.0,0.0,0.0,0.0,0.0,0.0,0.0,0.0,0.0,0.0,0.0,0.0,0.0,0.0,0.0,0.0,0.0,0.0,-0.4704,-0.3447,-0.1998,-0.0297,0.1208,0.2683,0.4103,0.5729,0.654,0.6601,0.7237,0.7744,0.0,0.0,0.8722,0.9741,1.007,1.0647,1.1318,1.1615,1.1918,1.2205,1.2205,1.2392,1.2727,0.0,0.0,0.0,0.0,0.0,0.0,0.0,0.0,0.0,0.0,0.0,0.0,0.0,0.0,0.0,0.0,0.0,0.0,0.0,0.0,0.0,-2.0663,-1.867,-1.7673,-1.7829,-1.8082,-1.8488,-1.9114,-1.9665,-2.0307,-2.1037,-2.1056,-2.0856,-2.0484,-2.1424,-2.1815,-2.1749,-2.1898,-2.2106,-2.2197,0.0,0.0,0.0,0.0,0.0,0.0,0.0,0.0,0.0,0.0,-1.3807,-1.3276,-1.1176,0.0,0.0,0.0,0.0,0.0,-0.9359,-0.9338,-0.899,-0.9163,-1.0054,-1.1105,-1.1882,-1.2567,-1.2985,-1.2491,-1.2278,-1.173,-1.0321,0.0,-0.9636,-0.8318,0.0,0.0,0.0,0.0,0.0,0.0,0.0,0.0,0.0,0.0,0.0,0.0,0.0,0.0,0.0,0.0,0.0,0.0,-0.1981,-0.0829,0.07,0.1553,0.2766,0.4328,0.6037,0.6931,0.7178,0.7744,0.8354,0.8883,0.0,0.9348,1.0146,1.0481,1.0902,1.1318,1.1681,1.2066,1.2435,1.2741,1.2926,1.307,0.0,0.0,0.0,0.0,0.0,0.0,0.0,0.0,0.0,0.0,0.0,0.0,0.0,0.0,0.0,0.0,0.0,0.0,0.0,0.0,-2.171,-2.0411,-1.8207,-1.6967,-1.6976,-1.7345,-1.7867,-1.8591,-1.9737,-2.0879,-2.2007,-2.2084,-2.1717,-2.1013,-2.1754,-2.2142,-2.2294,-2.2724,-2.3092,-2.321,0.0,0.0,0.0,0.0,0.0,0.0,0.0,0.0,0.0,0.0,0.0,0.0,0.0,0.0,0.0,-0.9297,-0.8546,-0.8173,-0.8865,-0.8848,-0.884,-0.9632,-1.0841,-1.1902,-1.2151,-1.2586,-1.2787,-1.2277,-1.1706,-1.0811,-0.93,-0.8844,0.0,-0.7108,0.0,0.0,0.0,0.0,0.0,0.0,0.0,0.0,0.0,0.0,0.0,0.0,0.0,0.0,0.0,0.0,0.0,0.0,-0.0601,0.0167,0.1303,0.1958,0.3033,0.4483,0.606,0.7071,0.755,0.8145,0.8773,0.9408,0.9475,0.9855,1.0434,1.0763,1.1071,1.1341,1.1747,1.2344,1.3038,1.3678,1.3921,1.3921,0.0,0.0,0.0,0.0,0.0,0.0,0.0,0.0,0.0,0.0,0.0,0.0,0.0,0.0,0.0,0.0,0.0,0.0,0.0,0.0,-2.1966,-1.9414,-1.7596,-1.6564,-1.6384,-1.5806,-1.5941,-1.6779,-1.7924,-1.9691,-2.201,-2.2561,-2.2786,-2.272,-2.2867,-2.3295,-2.392,-2.3839,-2.3966,-2.4068,-2.2413,0.0,0.0,0.0,0.0,0.0,0.0,0.0,0.0,0.0,0.0,0.0,0.0,0.0,-1.0271,-1.0064,-0.8776,-0.7833,-0.9541,-0.9256,-0.8738,-0.9653,-1.0122,-1.0627,-1.1787,-1.2229,-1.2307,-1.1834,-1.1308,-1.0335,-0.8448,-0.7199,-0.6207,-0.5542,0.0,0.0,0.0,0.0,0.0,0.0,0.0,0.0,0.0,0.0,0.0,0.0,0.0,0.0,0.0,0.0,0.0,0.0,0.0,0.0834,0.1298,0.258,0.3477,0.4053,0.5318,0.6318,0.7084,0.8245,0.8981,0.9408,0.9724,1.0072,1.0434,1.0763,1.1071,1.1363,1.1946,1.2911,1.4106,1.5095,1.5443,1.5482,0.0,0.0,0.0,0.0,0.0,0.0,0.0,0.0,0.0,0.0,0.0,0.0,0.0,0.0,0.0,0.0,0.0,0.0,0.0,-2.2758,-2.1657,-2.004,-1.7687,-1.5762,-1.4389,-1.4165,-1.4725,-1.6118,-1.9211,-2.1325,-2.2515,-2.3245,-2.2971,-2.1946,-2.306,-2.3462,-2.3345,-2.4215,-2.4631,-2.4606,-2.3046,-2.1437,0.0,0.0,0.0,0.0,0.0,0.0,0.0,0.0,-1.1183,-1.0693,-1.0191,-0.999,-0.9848,-0.9375,-0.8538,-0.7921,-0.8545,-0.8321,-0.798,-0.8312,-0.8719,-0.9384,-1.0705,-1.1456,-1.1707,-1.126,-1.1013,-1.0249,-0.8203,0.0,-0.502,0.0,0.0,0.0,0.0,0.0,0.0,0.0,0.0,0.0,0.0,0.0,0.0,0.0,0.0,0.0,0.0,0.0,0.0,0.0,0.0,0.221,0.2917,0.3405,0.4273,0.55,0.5991,0.6776,0.7761,0.8479,0.9143,0.9724,0.9841,1.0097,1.046,1.1223,1.1789,1.2351,1.3584,1.4353,1.4837,1.5398,1.5595,1.5615,0.0,0.0,0.0,0.0,0.0,0.0,0.0,0.0,0.0,0.0,0.0,0.0,0.0,0.0,0.0,0.0,0.0,0.0,-2.2498,-2.2172,-2.1429,-2.024,-1.7846,-1.5672,-1.3766,-1.3441,-1.391,-1.5216,-1.967,-2.218,-2.2831,-2.3423,-2.3226,-2.2437,-2.3108,-2.3252,-2.3071,-2.3824,-2.4157,-2.4062,-2.3176,-2.1698,0.0,0.0,0.0,0.0,0.0,0.0,0.0,0.0,-1.0001,-0.959,-0.9408,-0.9321,-0.9235,-0.9044,-0.8478,-0.8006,-0.8232,-0.7874,-0.7533,-0.7589,-0.7857,-0.8296,-0.9204,-1.0204,-1.0849,-1.0663,-1.0116,-0.9158,-0.7541,0.0,0.0,0.0,0.0,0.0,0.0,0.0,0.0,0.0,0.0,0.0,0.0,0.0,0.0,0.0,0.0,0.0,0.0,0.0,0.0,0.0,0.0,0.3928,0.472,0.4999,0.5805,0.7071,0.7404,0.7861,0.8413,0.8805,0.9331,0.9905,1.0238,1.0572,1.0949,1.206,1.2921,1.37,1.5038,1.5544,1.5577,1.6101,1.6227,1.6147,0.0,0.0,0.0,0.0,0.0,0.0,0.0,0.0,0.0,0.0,0.0,0.0,0.0,0.0,0.0,0.0,0.0,0.0,-2.0867,-2.1607,-2.1379,-1.9767,-1.8047,-1.6435,-1.4947,-1.3905,-1.3569,-1.4024,-1.8688,-2.1634,-2.2888,-2.2978,-2.364,-2.471,-2.3054,-2.2733,-2.3421,-2.264,-2.2274,-2.2329,-2.2873,-2.1658,-1.9429,0.0,0.0,0.0,0.0,0.0,0.0,0.0,-0.8989,-0.8684,-0.9305,-0.8932,-0.849,-0.9328,-0.8747,-0.8023,-0.8887,-0.8341,-0.7587,-0.7802,-0.7695,-0.7445,-0.7324,-0.8531,-0.9801,-1.0115,-0.8488,-0.6788,-0.6288,-0.4659,0.0,0.0,0.0,0.0,0.0,0.0,0.0,0.0,0.0,0.0,0.0,0.0,0.0,0.0,0.0,0.0,0.0,0.0,0.0,0.0,0.0,0.0,0.6536,0.747,0.8128,0.8536,0.9474,0.953,0.8838,0.9235,0.9605,0.9969,1.0978,1.1598,1.2014,1.3302,1.4381,1.5296,1.6028,1.627,1.6341,1.7412,1.7572,1.7344,0.0,0.0,0.0,0.0,0.0,0.0,0.0,0.0,0.0,0.0,0.0,0.0,0.0,0.0,0.0,0.0,0.0,0.0,-2.1498,-2.1606,-2.1384,-2.0704,-1.9613,-1.8296,-1.6747,-1.6562,-1.6656,-1.7009,-1.9327,-2.1238,-2.2768,-2.2879,-2.2817,-2.2626,-2.2696,-2.232,-2.1658,-2.1628,-2.1795,-2.2145,-2.2873,-2.181,-1.9776,0.0,0.0,0.0,0.0,0.0,0.0,0.0,0.0,0.0,-0.8032,-0.859,-0.9147,-0.916,-0.931,-0.9327,-0.8931,-0.8596,-0.8112,-0.7111,-0.708,-0.7197,-0.6676,-0.7635,-0.8637,-0.8421,-0.6686,-0.5107,-0.495,0.0,0.0,0.0,0.0,0.0,0.0,0.0,0.0,0.0,0.0,0.0,0.0,0.0,0.0,0.0,0.0,0.0,0.0,0.0,0.0,0.0,0.0,0.0,0.8881,0.9167,0.9637,1.026,1.0536,1.0564,1.0362,1.0463,1.0887,1.1555,1.2089,1.2663,1.3357,1.4932,1.6,1.6733,1.7171,1.7209,1.7023,1.7597,1.7572,1.7375,0.0,0.0,0.0,0.0,0.0,0.0,0.0,0.0,0.0,0.0,-2.3996,-2.3996,0.0,0.0,0.0,0.0,0.0,0.0,-2.1307,-2.1787,-2.1745,-2.1022,-2.0679,-1.989,-1.8512,-1.8763,-1.9119,-1.9618,-2.0088,-2.0899,-2.2014,-2.2418,-2.2391,-2.2079,-2.2539,-2.2132,-2.1083,-2.0789,-2.068,-2.0844,-2.2105,-2.1366,-1.9588,0.0,0.0,0.0,0.0,0.0,0.0,0.0,0.0,0.0,-0.7438,-0.7971,-0.868,-0.8783,-0.9024,-0.9177,-0.8622,-0.83,-0.7863,-0.6775,-0.6673,-0.6632,-0.5711,-0.639,-0.7039,0.0,-0.5058,-0.3981,-0.3981,0.0,0.0,0.0,0.0,0.0,0.0,0.0,0.0,0.0,0.0,0.0,0.0,0.0,0.0,0.0,0.0,0.0,0.0,0.0,0.0,0.0,0.0,0.0,1.0321,1.072,1.1146,1.159,1.1798,1.1979,1.2146,1.1677,1.1746,1.2268,1.3297,1.4293,1.5271,1.6417,1.7126,1.7526,1.7726,1.7612,1.7344,1.7681,1.7664,1.7522,0.0,0.0,0.0,0.0,0.0,0.0,0.0,0.0,0.0,-2.3795,-2.3753,-2.3753,0.0,0.0,0.0,-2.3162,-2.3052,-2.2337,-2.0833,-2.2135,-2.2388,-2.1011,-2.1441,-2.1216,-2.0169,-2.0495,-2.0999,-2.1582,-2.0821,-2.065,-2.1034,-2.1674,-2.2121,-2.2411,-2.235,-2.19,-2.1166,-1.9919,-1.9103,-1.8804,-2.0637,-2.0388,-1.9005,-2.0065,0.0,0.0,0.0,0.0,0.0,0.0,0.0,0.0,-0.7432,-0.7341,-0.7526,-0.8175,-0.8215,-0.8063,-0.7944,-0.7635,-0.7132,-0.6503,-0.6091,-0.5527,-0.4338,-0.4634,-0.495,-0.4341,0.0,0.0,0.0,0.0,0.0,0.0,0.0,0.0,0.0,0.0,0.0,0.0,0.0,0.0,0.0,0.0,0.0,0.0,0.0,0.0,0.0,0.0,0.0,0.0,0.0,0.0,1.1207,1.209,1.2579,0.0,1.3047,1.3514,1.3927,1.2834,1.2414,1.2616,1.4569,1.6152,1.7344,1.7658,1.7811,1.7811,1.7811,1.7612,1.7344,1.7704,1.7783,1.7737,0.0,0.0,0.0,0.0,0.0,0.0,0.0,0.0,-2.417,-2.4094,-2.4094,-2.4094,-2.4094,-2.4094,0.0,-2.3951,-2.3364,-2.2832,-2.2483,-2.2795,-2.2738,-2.2165,-2.2353,-2.2078,-2.1262,-2.1351,-2.1464,-2.1582,-2.0594,-2.0473,-2.1153,-2.0949,-2.0943,-2.1086,-2.0982,-2.0547,-1.9772,-1.7843,-1.7209,-1.7555,-1.8554,-1.8591,-1.8211,-1.9648,-1.9087,0.0,0.0,0.0,0.0,0.0,0.0,0.0,-0.8065,-0.7686,-0.7539,-0.7502,-0.7666,-0.7702,-0.688,-0.6886,-0.6646,-0.498,-0.3785,-0.2863,-0.2001,-0.1947,-0.2168,-0.2611,-0.2114,0.0,0.0,0.0,0.0,0.0,0.0,0.0,0.0,0.0,0.0,0.0,0.0,0.0,0.0,0.0,0.0,0.0,0.0,0.0,0.0,0.0,0.0,0.0,0.0,1.2234,1.272,1.2943,1.3242,0.0,1.3702,1.3967,1.436,1.3797,1.4012,1.4919,1.6009,1.679,1.7344,1.7658,1.7811,1.7811,1.7811,1.7612,1.7368,1.7915,1.7941,1.7803,0.0,0.0,0.0,0.0,0.0,0.0,0.0,0.0,-2.4572,-2.4032,-2.3976,-2.3976,-2.3976,-2.361,0.0,0.0,-2.3474,-2.2997,-2.2997,-2.3364,-2.3356,-2.2847,-2.2418,-2.1989,-2.1612,-2.1399,-2.1144,-2.0833,-2.0097,-2.0032,-2.0619,-2.017,-2.0,-2.0092,-2.0378,-1.9908,-1.8863,-1.7929,-1.7304,-1.7013,-1.8258,-1.8302,-1.7695,-1.895,-1.8431,-1.6954,-1.6332,0.0,0.0,0.0,0.0,0.0,0.0,0.0,-0.7267,-0.6979,-0.6843,-0.6632,-0.6,-0.5748,-0.5259,-0.3551,-0.2417,-0.1563,-0.1174,-0.0838,-0.0671,-0.1062,0.0,0.0,0.0,0.0,0.0,0.0,0.0,0.0,0.0,0.0,0.0,0.0,0.0,0.0,0.0,0.0,0.0,0.0,0.0,0.0,0.0,0.0,0.0,0.0,1.3007,1.3383,1.3619,1.4131,1.4523,1.4756,1.4715,1.4713,1.4783,1.4741,1.5345,1.6444,1.6869,1.7224,1.7549,1.7726,1.7811,1.7811,1.7811,1.7681,1.7595,1.804,1.817,1.8217,0.0,0.0,0.0,0.0,0.0,0.0,0.0,0.0,0.0,-2.3907,-2.3795,-2.3795,-2.3795,-2.3069,-2.2968,0.0,0.0,0.0,-2.2795,-2.3453,-2.3629,-2.3212,-2.2169,-2.1552,-2.1491,-2.0974,-2.0448,-1.9906,-1.9321,-1.9246,-1.9613,-1.9424,-1.9317,-1.9351,-1.9947,-1.9485,-1.8205,-1.8195,-1.7474,-1.6448,-1.7851,-1.7765,-1.6906,-1.7824,-1.7294,-1.6061,-1.5862,-1.5161,-1.4231,-1.3298,0.0,0.0,0.0,0.0,-0.6668,-0.6399,-0.5853,-0.5335,-0.5056,-0.4401,-0.3484,-0.2318,-0.1452,-0.0895,-0.0895,-0.0336,0.0168,0.0,0.0,0.0,0.0,0.0,0.0,0.0,0.0,0.0,0.0,0.0,0.0,0.0,0.0,0.0,0.0,0.0,0.0,0.0,0.0,0.0,0.0,0.0,1.3023,1.3529,1.399,1.4229,1.4229,1.5196,1.5731,1.5791,1.5868,1.578,1.5651,1.6008,1.6519,1.7134,1.7248,1.7455,1.7726,1.7789,1.7811,1.7811,1.7856,1.7861,1.7922,1.8229,1.8469,1.8715,0.0,0.0,0.0,0.0,0.0,0.0,0.0,0.0,0.0,0.0,-2.4113,-2.4113,-2.4113,-2.3417,-2.2978,-2.3143,-2.2409,-2.1951,-2.1951,0.0,0.0,-2.3153,-2.2169,-2.143,-2.1086,-2.0098,-1.9576,-1.9482,-1.8217,-1.7804,-1.8184,-1.8717,-1.8965,-1.8965,-1.9066,-1.8642,-1.7771,-1.6066,-1.5126,-1.478,-1.4562,-1.4621,-1.4967,-1.5723,-1.588,-1.5638,-1.5392,-1.5016,-1.4569,-1.3947,-1.235,0.0,0.0,0.0,0.0,-0.5255,-0.4596,-0.4004,-0.3872,-0.2984,-0.1954,-0.1375,-0.0671,-0.0168,0.0,0.0,0.095,0.0,0.0,0.0,0.0,0.0,0.0,0.0,0.0,0.0,0.0,0.0,0.0,0.0,0.0,0.0,0.0,0.0,0.0,0.0,0.0,0.0,0.0,1.3372,1.3938,1.4018,1.4528,1.4787,1.4787,1.541,1.5878,1.6225,1.7035,1.7537,1.7808,1.8257,1.7713,1.6474,1.7052,1.7344,1.7392,1.7681,1.7811,1.7833,1.8057,1.8146,1.8208,1.8715,1.8914,1.8984,0.0,0.0,0.0,0.0,0.0,0.0,0.0,0.0,0.0,0.0,0.0,-2.419,-2.419,-2.307,-2.252,-2.296,-2.1822,-2.1272,-2.1784,-2.1411,-2.1575,-2.2493,-2.1323,-2.0492,-2.0099,-1.915,-1.8182,-1.721,-1.6766,-1.6458,-1.63,-1.7035,-1.7625,-1.8,-1.776,-1.7253,-1.6505,-1.5461,-1.4726,-1.4272,-1.4312,-1.4664,-1.5129,-1.4697,-1.4747,-1.4986,-1.4509,-1.4031,-1.3559,-1.3524,-1.2298,-1.0623,-0.9816,0.0,0.0,0.0,-0.4149,-0.2942,-0.2282,-0.1466,-0.0628,0.0,0.067,0.1229,0.1229,0.0,0.0,0.0,0.0,0.0,0.0,0.0,0.0,0.0,0.0,0.0,0.0,0.0,0.0,0.0,0.0,0.0,0.0,0.0,0.0,0.0,0.0,0.0,1.4179,1.4685,1.5109,1.5426,1.5657,1.5793,1.5793,1.6625,1.7251,1.7644,1.8051,1.8125,1.7941,1.8345,1.8342,1.8065,1.8592,1.8809,1.8801,1.8542,1.8674,1.9012,1.8711,1.8955,1.9539,1.9937,2.0188,2.0373,0.0,0.0,0.0,0.0,0.0,0.0,0.0,0.0,0.0,0.0,0.0,-2.419,-2.419,0.0,0.0,0.0,-2.1076,-2.0491,-2.1349,-2.0625,-2.065,-2.1675,-2.0389,-1.9481,-1.9124,-1.8127,-1.6832,-1.531,-1.5403,-1.5114,-1.4475,-1.5314,-1.6006,-1.6537,-1.6663,-1.633,-1.5604,0.0,-1.4565,-1.4018,-1.4465,-1.4915,-1.5241,-1.4583,-1.457,-1.4789,-1.3829,-1.3205,-1.2843,-1.274,-1.1737,-1.0385,-0.9626,-0.7874,0.0,0.0,0.0,-0.2056,-0.095,-0.0195,0.0462,0.1143,0.1775,0.2174,0.0,0.0,0.0,0.0,0.0,0.0,0.0,0.0,0.0,0.0,0.0,0.0,0.0,0.0,0.0,0.0,0.0,0.0,0.0,0.0,0.0,0.0,0.0,0.0,1.5543,1.5764,1.6051,1.6479,1.6522,1.6522,1.6522,1.7544,1.8385,1.8957,1.8957,1.8687,1.8223,1.8588,1.9136,1.9813,1.9824,1.9908,1.9951,1.9418,1.9502,1.9934,1.9457,1.982,2.0643,2.0909,2.1213,2.1534,0.0,0.0,0.0,0.0,0.0,0.0,0.0,0.0,0.0,0.0,0.0,-2.419,-2.419,-2.2758,-2.1715,-2.1496,-2.0011,-1.9415,-2.0228,-1.9706,-1.9848,-2.0905,-1.966,0.0,-1.8376,-1.6946,-1.5713,-1.4732,-1.42,-1.3595,-1.3041,-1.3953,-1.4418,-1.4511,-1.6103,-1.6392,-1.5623,0.0,0.0,-1.3653,-1.4054,-1.4247,-1.4417,-1.5545,0.0,0.0,0.0,0.0,-1.3078,-1.1808,-1.0496,-0.936,-0.9178,-0.7725,-0.5855,0.0,0.0,0.0,-0.0345,0.0493,0.1204,0.1816,0.2072,0.2174,0.0,0.0,0.0,0.0,0.0,0.0,0.0,0.0,0.0,0.0,0.0,0.0,0.0,0.0,0.0,0.0,0.0,0.0,0.0,0.0,0.0,0.0,0.0,0.0,1.5588,1.6139,1.6466,1.6522,1.6522,1.6522,1.6522,1.7544,1.8636,1.963,1.963,1.9615,1.9621,2.0016,2.044,2.0846,1.985,1.9658,2.0002,1.9951,1.9968,2.001,2.0254,2.0563,2.0909,2.1173,2.1497,2.1785,0.0,0.0,0.0,0.0,0.0,0.0,0.0,0.0,0.0,0.0,0.0,0.0,0.0,-2.1978,-2.1054,-2.0643,-1.932,-1.869,-1.9144,-1.8813,-1.8978,-1.9835,-1.896,-1.8055,-1.7227,-1.6242,-1.5076,-1.3735,-1.3161,-1.296,-1.3101,-1.3332,-1.3673,-1.4073,-1.4776,-1.4984,-1.4775,-1.3267,0.0,0.0,-1.3451,-1.4259,-1.5261,0.0,0.0,0.0,0.0,0.0,0.0,-1.2365,-1.0561,-0.8466,-0.8497,-0.7102,0.0,0.0,-0.1696,-0.0636,0.0199,0.1281,0.2189,0.2507,0.3054,0.3531,0.366,0.0,0.0,0.0,0.0,0.0,0.0,0.0,0.0,0.0,0.0,0.0,0.0,0.0,0.0,0.0,0.0,0.0,0.0,0.0,0.0,0.0,0.0,0.0,1.5588,1.6194,1.6522,1.6522,1.6522,1.6837,1.7504,1.8263,1.8968,1.969,1.969,1.969,1.9711,1.9839,2.0139,2.0567,2.0447,2.0842,2.1421,2.0974,2.1059,2.1448,2.1045,2.1376,2.21,2.2402,2.2722,2.3042,0.0,0.0,0.0,0.0,0.0,0.0,0.0,0.0,0.0,-2.3165,0.0,0.0,0.0,0.0,-2.0542,-1.9608,-1.863,-1.8166,-1.845,-1.829,-1.8412,-1.8914,-1.8255,-1.7369,-1.6247,-1.5527,-1.4445,-1.2922,-1.2415,-1.2251,-1.2377,-1.2291,-1.2475,-1.2859,-1.294,-1.351,0.0,0.0,0.0,-1.2708,0.0,0.0,-1.4905,0.0,0.0,0.0,0.0,0.0,0.0,0.0,0.0,0.0,0.0,0.0,0.0,0.0,0.0,-0.0033,0.0798,0.1913,0.2887,0.0,0.3618,0.4209,0.4729,0.0,0.0,0.0,0.0,0.0,0.0,0.0,0.0,0.0,0.0,0.0,0.0,0.0,0.0,0.0,0.0,0.0,0.0,0.0,0.0,0.0,0.0,0.0,1.5908,1.6281,1.6522,1.6522,1.6522,1.6909,1.7827,1.838,1.8893,1.9442,1.9603,1.969,1.969,1.969,1.9909,2.0314,2.0797,2.1415,2.2027,2.1697,2.1854,2.226,2.1752,2.2099,2.2873,2.2996,2.3392,2.3896,0.0,0.0,0.0,0.0,0.0,0.0,0.0,0.0,-2.2797,-2.3117,0.0,0.0,0.0,0.0,0.0,-1.8364,-1.7983,-1.7922,-1.8166,-1.8187,-1.8187,-1.8187,-1.7563,-1.6683,-1.5557,-1.4852,-1.3834,-1.2429,-1.1955,-1.1405,-1.0833,-1.081,-1.081,-1.0829,-1.0747,-1.2063,-1.4342,0.0,-1.3116,-1.2816,0.0,-1.4249,-1.3164,0.0,0.0,0.0,-1.5082,-1.5008,0.0,0.0,0.0,0.0,0.0,0.0,0.0,0.0,0.0,0.0398,0.0,0.0,0.0,0.0,0.0,0.0,0.0,0.0,0.0,0.0,0.0,0.0,0.0,0.0,0.0,0.0,0.0,0.0,0.0,0.0,0.0,0.0,0.0,0.0,0.0,0.0,0.0,0.0,0.0,1.5864,1.6423,1.6479,1.6522,1.6522,1.6522,1.6752,1.7312,1.7867,1.838,1.8893,1.9442,1.969,1.969,1.969,1.9909,2.0314,2.0797,2.1213,2.1628,2.2106,2.231,2.231,2.231,2.266,2.3141,2.2822,2.3346,2.4151,0.0,0.0,0.0,0.0,0.0,-2.2338,-2.2415,-2.2398,-2.2453,0.0,0.0,0.0,-2.0999,-2.0209,-1.9455,-1.8785,-1.8636,-1.8392,-1.7939,-1.8082,-1.8103,-1.7927,-1.7704,-1.7068,-1.6037,-1.5257,-1.4408,-1.3467,-1.2254,-1.174,-1.195,-1.1117,-1.0956,-1.1381,-1.1058,-1.1308,-1.1914,-1.0894,0.0,0.0,-1.2255,-1.3031,0.0,0.0,0.0,0.0,0.0,-1.6214,0.0,0.0,-1.4028,-1.1134,0.0,0.0,0.0,0.0,0.0,0.0055,0.0774,0.0,0.0,0.0,0.0,0.0,0.0,0.0,0.0,0.0,0.0,0.0,0.0,0.0,0.0,0.0,0.0,0.0,0.0,0.0,0.0,0.0,0.0,0.0,0.0,0.0,0.0,0.0,1.4994,1.5676,1.582,1.6238,1.6522,1.6522,1.6879,1.7146,1.7312,1.8224,1.8727,1.8893,1.9442,1.969,1.969,1.969,1.9747,1.9909,2.0665,2.1055,2.1213,2.1991,2.231,2.231,2.231,2.2517,2.2873,2.3021,2.3392,2.3876,0.0,0.0,-2.236,-2.2699,-2.2589,-2.2513,-2.2738,-2.2767,-2.2649,0.0,0.0,0.0,-2.0849,-2.0052,-1.9423,-1.8951,-1.8894,-1.8589,-1.7862,-1.8057,-1.8082,-1.7811,-1.7743,-1.7245,-1.6204,-1.5403,-1.4651,-1.3901,-1.2365,-1.1751,-1.204,-1.091,-1.0558,-1.0885,-1.0302,-1.0067,-0.9991,0.0,0.0,0.0,-1.1714,0.0,0.0,-1.4043,-1.4633,0.0,0.0,0.0,-1.5011,-1.6327,-1.4378,0.0,0.0,0.0,0.0,0.0,0.0,-0.0724,-0.0063,0.0688,0.1401,0.0,0.0,0.0,0.0,0.0,0.0,0.0,0.0,0.0,0.0,0.0,0.0,0.0,0.0,0.0,0.0,0.0,0.0,0.0,0.0,0.0,0.0,0.0,0.0,0.0,1.505,1.572,1.5952,1.6293,1.6522,1.6522,1.6795,1.6951,1.6951,1.8027,1.8574,1.8574,1.9332,1.969,1.969,1.969,1.9782,2.0,2.0698,2.1103,2.1306,2.2003,2.231,2.231,2.231,2.2463,2.2721,2.2923,2.33,2.3714,0.0,0.0,-2.201,-2.3063,-2.2903,-2.2793,-2.3257,-2.3257,-2.3034,0.0,-2.2243,-2.1955,-2.1363,-2.0619,-1.9875,-1.9198,-1.9063,-1.8707,-1.798,-1.807,-1.8057,-1.7811,-1.7743,-1.7261,-1.63,-1.5519,-1.4744,-1.3967,-1.2479,-1.1698,-1.1563,-1.0495,-0.993,-0.9828,-0.9116,-0.8789,-0.8679,-0.7627,0.0,-0.9598,-1.1697,-1.1556,0.0,0.0,-1.2571,0.0,-1.3728,-1.3951,-1.3615,-1.5995,-1.4675,0.0,0.0,0.0,0.0,0.0,-0.2488,-0.1894,-0.1077,-0.0477,0.0067,0.0,0.0,0.0,0.4818,0.5717,0.0,0.0,0.0,0.0,0.0,0.0,0.0,0.0,0.0,0.0,0.0,0.0,0.0,0.0,0.0,0.0,0.0,0.0,1.3967,1.4652,1.532,1.5908,1.6466,1.6522,1.6522,1.6522,1.6522,1.6522,1.6595,1.7585,1.8145,1.8224,1.9207,1.969,1.969,1.969,1.9909,2.0314,2.0797,2.1213,2.1658,2.2106,2.231,2.231,2.231,2.2463,2.2695,2.2746,2.3165,2.3714,-2.2487,-2.2152,-2.2061,-2.2232,-2.2214,-2.2264,-2.2699,-2.2476,-2.2263,-2.231,-2.1786,-2.1583,-2.204,-2.1414,-2.0906,-2.0763,-2.0162,-1.9461,-1.8724,-1.8178,-1.7839,-1.7811,-1.7794,-1.7439,-1.6696,-1.6219,-1.5447,-1.4374,-1.3267,-1.2346,-1.1575,-1.0885,-1.0158,-0.9487,-0.9008,-0.8662,-0.8358,0.0,0.0,-0.8335,-0.8469,0.0,-1.0056,-1.0277,-1.0874,-1.1799,-1.2802,-1.3611,-1.4267,0.0,-1.359,-1.2041,0.0,0.0,0.0,0.0,0.0,0.0,0.0,0.0,0.0,0.0,0.0,0.0,0.0,0.545,0.0,0.0,0.0,0.0,0.0,0.0,0.0,0.0,0.0,0.0,0.0,0.0,0.0,0.0,0.0,0.0,0.0,0.0,1.3515,1.4617,1.57,1.638,1.6466,1.6522,1.6522,1.6522,1.6522,1.671,1.7146,1.7787,1.8341,1.8727,1.9406,1.969,1.969,1.969,1.9909,2.0314,2.0797,2.1213,2.1658,2.2106,2.231,2.231,2.231,2.2463,2.2746,2.2996,2.3369,2.3735,-2.253,-2.1955,-2.1817,-2.2703,-2.2489,-2.235,-2.2763,-2.2678,-2.2341,-2.1732,-2.1508,-2.1556,-2.1924,-2.1827,-2.1583,-2.1237,-2.0467,-1.9681,-1.8944,-1.8217,-1.7811,-1.7811,-1.7658,-1.7313,-1.6815,-1.6208,-1.5447,-1.4501,-1.3216,-1.2268,-1.1575,-1.0709,-1.0211,-1.0003,-0.9181,-0.8743,-0.8519,0.0,-0.7068,-0.7023,-0.7956,0.0,-0.9767,-1.0062,-1.063,-1.129,-1.1688,-1.2377,-1.3083,-1.2957,-1.2197,0.0,0.0,-0.873,-0.724,0.0,-0.4371,-0.4266,0.0,0.0,0.0,-0.1089,0.0,0.0,0.0,0.0,0.0,0.0,0.0,0.0,0.0,0.0,0.0,0.0,0.0,0.0,0.0,0.0,0.0,0.0,0.0,0.0,0.0,0.0,1.3826,1.505,1.5964,1.6522,1.6522,1.6522,1.6522,1.6522,1.6752,1.7034,1.7312,1.8106,1.8612,1.8893,1.9442,1.969,1.9726,1.9909,2.0227,2.0682,2.1118,2.1538,2.1974,2.2209,2.231,2.231,2.231,2.2388,2.2554,2.3038,2.3323,2.3522,-2.2574,-2.1681,-2.1488,-2.2979,-2.258,-2.2211,-2.2683,-2.2699,-2.2204,-2.1021,-2.1244,-2.1521,-2.1582,-2.1928,-2.1956,-2.1448,-2.0703,-1.9925,-1.9164,-1.835,-1.7899,-1.7899,-1.7342,-1.6905,-1.6712,-1.5948,-1.514,-1.4304,-1.309,-1.217,-1.1563,-1.0478,-1.0084,-1.029,-0.9208,0.0,0.0,0.0,0.0,-0.62,0.0,-0.8747,-0.8931,-0.9737,-1.0042,-1.0058,-1.03,-1.0881,-1.1536,-1.156,0.0,-0.9996,-1.0065,-0.8907,0.0,0.0,0.0,0.0,0.0,0.0,0.0,0.0,0.0,0.0558,0.0,0.0,0.0,0.0,0.0,0.0,0.0,0.0,0.0,0.0,0.0,0.0,0.0,0.0,0.0,0.0,0.0,0.0,0.0,0.0,1.422,1.5487,1.5966,1.6311,1.6466,1.6522,1.6522,1.6522,1.7034,1.7353,1.7463,1.8419,1.8968,1.9043,1.9479,1.969,1.9711,2.0124,2.055,2.1023,2.143,2.1869,2.231,2.231,2.231,2.231,2.231,2.231,2.2377,2.2908,2.3141,2.33,-2.1861,-2.1321,-2.1133,-2.1518,-2.1201,-2.1046,-2.1461,-2.1201,-2.081,-2.0423,-2.0781,-2.1213,-2.1552,-2.1658,0.0,0.0,0.0,0.0,-1.9917,0.0,-1.8319,-1.8251,-1.6784,-1.6094,-1.6367,-1.5681,-1.4758,-1.361,-1.3562,-1.288,-1.1575,-1.0619,-0.9756,-0.9018,-0.8678,0.0,0.0,0.0,-0.6659,0.0,-0.6434,-0.6441,0.0,-0.7101,-0.7249,-0.7407,-0.8544,-0.9769,-1.0797,0.0,-1.006,-0.9611,0.0,-0.8085,-0.8121,0.0,0.0,0.0,0.0,0.0,0.0,0.0,-0.1144,0.0,0.0,0.0,0.0,0.0,0.0,0.0,0.0,0.0,0.0,0.0,0.0,0.0,0.0,0.0,0.0,0.0,0.0,0.0,0.0,0.0,0.0,1.5463,1.5343,1.5562,1.6441,1.6522,1.6522,1.6522,1.7034,1.7544,1.7987,1.8612,1.9132,1.9603,1.969,1.969,1.9711,2.0124,2.055,2.1023,2.143,2.1869,2.231,2.231,2.231,2.231,2.231,2.231,2.2349,2.2652,2.2947,2.3236,-2.2015,-2.1446,-2.115,-2.1632,-2.113,-2.0745,-2.0925,-2.0206,-1.9641,-1.95,-1.9904,-2.0234,0.0,0.0,0.0,0.0,0.0,-2.0565,0.0,0.0,-1.8202,-1.7733,-1.6655,-1.5973,-1.5738,-1.5076,-1.4163,-1.305,-1.2355,-1.1609,-1.0782,-0.9826,-0.9182,-0.8859,-0.8603,0.0,-0.7622,0.0,0.0,0.0,0.0,0.0,0.0,-0.6304,-0.6664,-0.6742,-0.7301,-0.7847,-0.8436,0.0,-0.8447,0.0,0.0,0.0,0.0,0.0,0.0,0.0,0.0,0.0,0.0,0.0,0.0,0.0,0.0939,0.0,0.39,0.0,0.0,0.0,0.0,0.0,0.0,0.0,0.0,0.0,0.0,0.0,0.0,0.0,0.0,0.0,0.0,0.0,0.0,0.0,0.0,1.5447,1.6441,1.6522,1.6522,1.6522,1.7312,1.7867,1.8106,1.893,1.9479,1.969,1.969,1.969,1.9711,2.0398,2.0829,2.1039,2.1705,2.2106,2.231,2.231,2.231,2.231,2.231,2.231,2.2321,2.2599,2.2923,2.3236,-2.1886,-2.1323,-2.0955,-2.1462,-2.0926,-2.0385,-2.0235,-1.9476,0.0,0.0,0.0,0.0,-1.9375,-2.0131,0.0,0.0,0.0,-2.0467,0.0,0.0,-1.8243,-1.785,-1.6445,0.0,0.0,-1.4348,-1.3305,-1.2155,-1.1235,-1.059,-1.0196,-0.9051,-0.8579,-0.8703,0.0,-0.7746,-0.7379,0.0,0.0,-0.5224,-0.4805,-0.4547,-0.4548,-0.5681,-0.6158,-0.6312,-0.6312,-0.6421,-0.6725,-0.7622,-0.6947,0.0,-0.7124,0.0,0.0,0.0,0.0,0.0,-0.2822,0.0,0.0,0.0,0.0,0.0,0.0,0.0,0.0,0.0,0.0,0.0,0.0,0.0,0.0,0.0,0.0,0.0,0.0,0.0,0.0,0.0,0.0,0.0,0.0,0.0,0.0,0.0,0.0,0.0,1.6441,1.6522,1.6522,1.6522,1.7544,1.8106,1.8106,1.9169,1.969,1.969,1.969,1.969,1.9726,2.0599,2.0991,2.1055,2.1915,2.231,2.231,2.231,2.231,2.231,2.231,2.231,2.2321,2.2527,2.284,2.3236,-2.1039,-2.0649,-2.0314,-2.0345,-1.9995,-1.956,-1.9035,0.0,0.0,0.0,0.0,0.0,0.0,0.0,0.0,0.0,0.0,-2.0671,-1.9952,0.0,-1.861,0.0,0.0,-1.453,0.0,0.0,-1.2101,-1.0752,-1.0795,-1.0631,-1.025,-0.853,-0.794,-0.8264,-0.6937,-0.6156,-0.5776,-0.5598,-0.5222,-0.4718,-0.4722,-0.4624,-0.4497,0.0,-0.5079,-0.5538,-0.5538,0.0,0.0,-0.6032,-0.5873,0.0,0.0,0.0,0.0,0.0,0.0,0.0,0.0,0.0,0.0,-0.1422,0.0,0.0,0.0,0.0,0.2478,0.0,0.0,0.0,0.0,0.0,0.0,0.0,0.0,0.0,0.0,0.0,0.0,0.0,0.0,0.0,0.0,0.0,0.0,0.0,0.0,0.0,1.6416,1.6522,1.6522,1.6522,1.7544,1.8106,1.8106,1.9169,1.969,1.969,1.969,1.969,1.9726,2.0599,2.0991,2.1055,2.1915,2.231,2.231,2.231,2.231,2.231,2.231,2.231,2.231,2.231,2.2686,2.3189,-2.0147,-1.9692,-1.9456,-1.9763,-1.9471,-1.9006,0.0,-1.8066,0.0,0.0,0.0,0.0,0.0,0.0,-1.9151,0.0,0.0,-1.9331,-1.8873,-1.7972,0.0,0.0,0.0,-1.4329,0.0,0.0,0.0,0.0,0.0,-0.931,-0.8835,-0.8096,-0.7503,-0.695,0.0,-0.6129,0.0,0.0,0.0,0.0,0.0,-0.4033,-0.3779,0.0,0.0,-0.4842,-0.4842,-0.5007,0.0,-0.5504,-0.5144,-0.4672,-0.498,-0.4536,-0.3986,-0.3949,-0.3877,0.0,0.0,0.0,-0.2335,-0.1193,0.0,0.0,0.0,0.0,0.0,0.0,0.0,0.0,0.0,0.0,0.0,0.0,0.0,0.0,0.0,0.0,0.0,0.0,0.0,0.0,0.0,0.0,0.0,0.0,0.0,0.0,0.0,1.6522,1.6522,1.6522,1.7188,1.7747,1.8106,1.8817,1.9369,1.969,1.969,1.969,1.9711,2.0296,2.055,2.0583,2.146,2.184,2.1853,2.2163,2.231,2.231,2.231,2.231,2.231,2.231,2.2527,2.2947,-1.9732,-1.9251,-1.8954,-1.9074,-1.8826,0.0,0.0,0.0,0.0,0.0,-1.8098,0.0,-1.7829,0.0,-1.8284,0.0,-1.8198,-1.8238,-1.8231,-1.7292,0.0,-1.6872,-1.5181,0.0,0.0,0.0,0.0,0.0,0.0,-0.8581,-0.8056,-0.7531,-0.7007,-0.6528,0.0,-0.5624,-0.5555,0.0,-0.4833,0.0,0.0,-0.3836,0.0,0.0,-0.407,-0.4125,0.0,-0.4519,-0.457,-0.5003,-0.4702,-0.4313,-0.4934,-0.4399,-0.3538,-0.3709,-0.3435,-0.2949,-0.2213,-0.2132,0.0,-0.0768,-0.0602,0.0,0.0296,0.0,0.0,0.0,0.0,0.0,0.0,0.0,0.0,0.0,0.0,0.0,0.0,0.0,0.0,0.0,0.0,0.0,0.0,0.0,0.0,0.0,0.0,0.0,0.0,0.0,1.6281,1.6466,1.7034,1.7463,1.7827,1.8535,1.908,1.9406,1.9603,1.969,1.9711,2.0124,2.0382,2.0583,2.129,2.1688,2.1869,2.218,2.231,2.231,2.231,2.231,2.231,2.231,2.2463,2.2772,-1.9773,-1.9118,0.0,0.0,-1.7973,0.0,0.0,0.0,-1.7873,0.0,-1.7809,-1.787,-1.7144,-1.7093,-1.7115,-1.7024,-1.7055,0.0,-1.788,-1.6784,0.0,0.0,-1.4874,-1.3679,-1.3748,0.0,0.0,0.0,0.0,0.0,-0.7924,-0.6838,-0.6562,-0.6861,-0.5156,0.0,-0.4794,-0.4353,-0.4227,-0.4415,-0.4408,-0.3925,-0.321,-0.3281,0.0,-0.3294,-0.4128,-0.446,-0.446,-0.4463,-0.4519,-0.4519,-0.446,-0.3959,-0.34,-0.3287,-0.2732,-0.2036,-0.129,-0.1115,-0.0896,-0.0138,0.0,0.0,0.0,0.0,0.1941,0.0,0.0,0.0,0.0,0.0,0.0,0.0,0.0,0.0,0.0,0.0,0.0,0.0,0.0,0.0,0.0,0.0,0.0,0.0,0.0,0.0,0.0,0.0,0.0,1.6516,1.7005,1.7284,1.7352,1.8316,1.8855,1.8893,1.9406,1.969,1.9711,2.0089,2.0516,2.0959,2.1399,2.1823,2.2237,2.2282,2.231,2.231,2.231,2.231,2.231,2.231,2.2463,2.2721,-1.8679,-1.741,-1.6409,0.0,-1.6262,-1.6046,0.0,0.0,0.0,0.0,-1.688,-1.7077,-1.6911,-1.6619,-1.6247,-1.582,-1.5498,0.0,0.0,0.0,0.0,-1.5318,-1.3967,-1.3187,-1.3282,-1.1497,0.0,-0.9472,0.0,0.0,-0.7378,-0.7002,-0.6492,-0.5837,0.0,0.0,-0.3552,-0.3326,-0.3075,-0.2828,-0.3378,-0.2845,0.0,0.0,-0.2142,-0.1846,-0.3149,-0.3622,-0.368,-0.4294,-0.4519,-0.4405,-0.379,-0.3511,-0.3289,-0.2676,-0.2343,-0.2057,-0.1314,-0.109,-0.0804,0.0499,0.0834,0.1008,0.0,0.0,0.0,0.0,0.0,0.0,0.0,0.0,0.0,0.0,0.0,0.0,0.0,0.0,0.0,0.0,0.0,0.0,0.0,0.0,0.0,0.0,0.0,0.0,0.0,0.0,0.0,1.7137,1.6865,1.7127,1.7985,1.7826,1.8106,1.8893,1.9043,1.9332,1.9711,1.9818,1.9909,2.0085,2.0829,2.1213,2.1385,2.202,2.231,2.231,2.231,2.231,2.231,2.231,2.2349,2.2436,-1.8319,0.0,0.0,-1.4983,0.0,0.0,-1.4998,0.0,0.0,-1.6121,-1.6602,0.0,-1.6417,-1.6177,-1.584,-1.5261,-1.4822,0.0,0.0,0.0,0.0,-1.4272,-1.3671,-1.3375,-1.3415,-1.2404,0.0,-1.0473,0.0,0.0,-0.7484,-0.6906,-0.6249,-0.5478,0.0,-0.4056,0.0,-0.3145,-0.2737,-0.2352,-0.2683,0.0,0.0,-0.1558,-0.1269,-0.0793,-0.1944,-0.2573,-0.2899,-0.3345,-0.3511,-0.34,-0.2954,-0.2619,-0.2286,-0.1842,-0.1507,-0.1174,-0.0727,-0.0391,0.0055,0.0907,0.1319,0.176,0.2351,0.2492,0.2916,0.0,0.0,0.0,0.0,0.0,0.0,0.0,0.0,0.0,0.0,0.0,0.0,0.0,0.0,0.0,0.0,0.0,0.0,0.0,0.0,0.0,0.0,0.0,0.0,1.6593,1.6542,1.6789,1.7454,1.7608,1.7947,1.8574,1.9043,1.9406,1.969,1.969,1.9782,2.0,2.0499,2.091,2.1306,2.1794,2.2106,2.231,2.231,2.231,2.231,2.231,2.231,2.2321,-1.8233,0.0,0.0,0.0,0.0,0.0,0.0,-1.529,0.0,-1.5968,0.0,-1.6525,-1.592,-1.5813,-1.5571,-1.5101,0.0,-1.4475,-1.4735,-1.4226,-1.391,-1.4005,-1.4025,-1.4039,-1.4039,-1.4149,0.0,0.0,0.0,0.0,-0.7903,-0.6827,-0.5961,0.0,0.0,0.0,0.0,-0.3203,-0.2695,0.0,-0.2161,-0.1625,-0.0929,-0.0929,-0.0567,-0.0064,-0.0751,-0.143,-0.209,-0.2193,-0.2189,-0.2188,-0.2068,-0.1619,-0.1062,-0.1006,-0.0504,0.0,0.0,0.056,0.1118,0.1229,0.1786,0.2471,0.2997,0.3107,0.3509,0.4865,0.5418,0.578,0.0,0.0,0.0,0.0,0.0,0.0,0.0,0.0,0.0,0.0,0.0,0.0,0.0,0.0,0.0,0.0,0.0,0.0,0.0,0.0,0.0,0.0,1.6231,0.0,1.6635,0.0,1.8027,1.8106,1.9132,1.9639,1.969,1.969,1.9909,2.0212,2.028,2.0732,2.1413,2.1491,2.1794,2.2209,2.2282,2.231,2.231,2.231,2.231,2.231,0.0,0.0,0.0,0.0,0.0,-1.3908,-1.428,-1.464,-1.4954,-1.5034,-1.5415,0.0,-1.5524,-1.5206,-1.4968,-1.4844,-1.4429,0.0,0.0,0.0,0.0,-1.5159,-1.5177,-1.5206,-1.5206,-1.4856,-1.4134,0.0,0.0,0.0,-0.8062,-0.7247,-0.6119,0.0,0.0,0.0,-0.3205,-0.248,0.0,-0.1507,-0.1353,-0.0871,-0.0192,-0.0192,-0.0129,0.0,-0.0128,-0.0688,-0.1386,-0.1993,-0.2208,-0.2083,-0.1465,-0.1229,-0.1006,-0.0392,-0.0112,0.0,0.0,0.056,0.1229,0.1842,0.2621,0.339,0.4066,0.4219,0.4433,0.5288,0.5468,0.5326,0.4603,0.0,0.0,0.0,0.0,0.0,0.0,0.0,0.0,0.0,0.0,0.0,0.0,0.0,0.0,0.0,0.0,0.0,0.0,0.0,0.0,0.0,0.0,0.0,0.0,0.0,0.0,1.8106,1.8727,1.9281,1.969,1.969,1.9747,1.9803,2.0158,2.0382,2.055,2.0959,2.1354,2.1764,2.2135,2.231,2.231,2.231,2.231,2.231,0.0,0.0,0.0,0.0,0.0,0.0,0.0,-1.4834,0.0,-1.4814,-1.4961,-1.5088,-1.5088,-1.5098,-1.5029,-1.4805,-1.4954,-1.5088,-1.5195,-1.534,-1.546,-1.5497,-1.6063,0.0,-1.5966,-1.6306,-1.5839,-1.4447,0.0,0.0,-0.9156,-0.7927,-0.6585,-0.5156,0.0,-0.3753,0.0,0.0,0.0,-0.0617,-0.0564,-0.0319,0.0,0.0,0.0,0.0,0.0,-0.0196,-0.0577,-0.0918,-0.1072,-0.0996,-0.0635,-0.0511,-0.0448,-0.0112,0.028,0.056,0.056,0.1396,0.2343,0.2676,0.34,0.407,0.4405,0.4519,0.4677,0.5378,0.5487,0.487,0.2794,0.0231,0.0,0.0,0.0,0.0,0.0,0.0,0.0,0.0,0.0,0.0,0.0,0.0,0.0,0.0,0.0,0.0,0.0,0.0,0.0,0.0,0.0,0.0,0.0,0.0,0.0,1.8521,1.8768,1.9169,1.969,1.969,1.969,1.9711,1.9894,2.0089,2.0348,2.0797,2.1244,2.1612,2.1853,2.2077,2.231,2.231,2.231,2.231,0.0,-1.5121,0.0,0.0,-1.4492,0.0,-1.4785,-1.5146,-1.5293,-1.4961,-1.4922,-1.4922,-1.4922,-1.5215,-1.5341,-1.5167,-1.5663,-1.5977,-1.5962,-1.644,-1.6566,-1.6261,-1.711,-1.7422,-1.7175,-1.8126,-1.7832,0.0,0.0,0.0,0.0,-0.8734,-0.7134,0.0,0.0,0.0,0.0,0.0,-0.1433,-0.0244,-0.0064,0.0,0.0,0.0,0.0,0.0,0.0,0.0,0.0,0.0,0.0,0.0,0.0,0.0,0.0057,0.0168,0.0671,0.1118,0.1284,0.2343,0.3345,0.3287,0.3901,0.4519,0.4519,0.4519,0.4625,0.5164,0.5046,0.4,0.1389,-0.0238,0.0,0.0,0.0,0.0,0.0,0.0,0.0,0.0,0.0,0.0,0.0,0.0,0.0,0.0,0.0,0.0,0.0,0.0,0.0,0.0,0.0,0.0,1.7375,0.0,1.8521,0.0,1.9237,1.9505,1.9899,1.9899,1.9824,1.969,1.969,1.9874,2.0227,2.0649,2.1039,2.1321,2.1521,2.1823,2.2163,2.2254,2.231,2.231,0.0,0.0,0.0,0.0,0.0,0.0,0.0,-1.5146,-1.54,-1.5361,-1.5352,-1.5352,-1.5352,-1.5391,-1.568,-1.626,-1.6419,-1.7003,-1.8295,-1.7965,-1.801,-1.8672,-1.8768,-1.907,-1.9549,-2.0161,-1.965,0.0,0.0,0.0,0.0,-0.9604,-0.7613,0.0,0.0,0.0,0.0,-0.2559,-0.1831,-0.1127,-0.0334,0.0,0.0,0.0,0.0,0.0,0.0,0.0,0.0,0.0,0.0,0.0,0.0,0.0,0.0117,0.079,0.1062,0.1229,0.1898,0.2676,0.3287,0.3287,0.3901,0.4519,0.4519,0.4519,0.4515,0.457,0.3508,0.2177,0.1105,-0.0729,-0.2187,0.0,0.0,0.0,0.0,0.0,0.0,0.0,0.0,0.0,0.0,0.0,0.0,0.0,0.0,0.0,0.0,0.0,0.0,1.4641,0.0,1.6223,1.7375,1.793,0.0,1.9818,2.0316,2.056,2.0617,2.0617,2.0273,1.969,1.969,1.9711,1.9782,2.0193,2.0382,2.0501,2.129,2.1628,2.1718,2.2135,2.231,2.231,0.0,0.0,0.0,0.0,0.0,0.0,0.0,-1.5303,-1.541,-1.541,-1.541,-1.541,-1.541,-1.541,-1.5526,-1.5806,-1.6255,-1.6765,-1.7357,-1.7605,-1.7897,-1.8333,-1.8657,-1.8999,-1.9369,-1.9885,-1.9656,0.0,0.0,0.0,-1.2054,0.0,0.0,0.0,0.0,-0.3954,-0.3254,-0.2103,-0.1249,-0.0471,-0.0135,0.0,0.0,0.0,0.0,0.0,0.0,0.0,0.0,0.0,0.0,0.0,0.0,0.0,0.0171,0.0898,0.1396,0.1953,0.2732,0.3456,0.4015,0.4015,0.4239,0.4519,0.4519,0.4519,0.4519,0.4519,0.3622,0.2483,0.1228,0.0525,-0.0155,0.0,0.0,0.0,0.0,0.0,0.0,0.0,0.0,0.0,0.0,0.0,0.0,0.0,0.0,0.0,0.0,0.0,0.0,1.3205,0.0,1.6138,1.7312,1.7886,1.8923,2.0423,2.0299,2.0608,2.1291,2.0902,2.0333,1.969,1.969,1.969,1.9711,1.9874,2.0089,2.0333,2.0667,2.1007,2.1244,2.1446,2.1675,2.1899,-1.6845,0.0,-1.6221,0.0,-1.5811,-1.5557,-1.543,-1.541,-1.541,-1.541,-1.541,-1.541,-1.541,-1.541,-1.5468,-1.569,-1.6208,-1.6595,-1.6821,-1.7302,-1.7639,-1.7816,-1.8172,0.0,-1.8869,-1.9269,-1.8989,-1.8093,-1.6554,0.0,0.0,-0.994,0.0,0.0,-0.4794,-0.3565,-0.2521,-0.1646,-0.0806,0.0,0.0,0.0,0.0,0.0,0.0,0.0,0.0,0.0,0.0,0.0,0.0,0.0,0.0,0.0,0.017,0.1121,0.1786,0.2397,0.3456,0.4125,0.4519,0.4519,0.4519,0.4519,0.4519,0.4519,0.4519,0.4519,0.3901,0.3007,0.1943,0.1763,0.1618,0.1073,0.0,0.0,0.0,0.0,0.0,0.0,0.0,0.2661,0.0,0.0,0.0,0.0,0.0,0.0,0.0,0.0,0.0,0.0,0.0,0.0,0.0,0.0,1.921,2.0792,2.0557,2.0883,2.1691,2.1019,2.0333,1.969,1.969,1.969,1.969,1.969,1.9874,2.0124,2.0246,2.0516,2.0829,2.0959,2.1181,2.143,-1.6845,-1.6728,-1.6582,-1.6143,-1.6115,-1.5908,-1.5478,-1.541,-1.541,-1.541,-1.541,-1.541,-1.541,-1.541,-1.569,-1.6436,-1.6482,-1.6821,-1.7523,-1.7578,-1.7622,0.0,0.0,-1.7904,-1.8613,-1.8613,-1.7938,-1.6551,0.0,0.0,-1.0672,-0.8203,-0.6086,-0.4442,-0.4384,-0.3281,-0.1339,-0.1273,-0.0806,0.0,0.0,0.0,0.0,0.0,0.0,0.0,0.0,0.0,0.0,0.0,0.0,0.0,0.0,0.0,0.0292,0.1748,0.2174,0.251,0.407,0.4519,0.4519,0.4519,0.4519,0.4519,0.4519,0.4519,0.4519,0.4519,0.3901,0.34,0.3287,0.2674,0.2449,0.3134,0.0,0.0,0.0,0.0,0.0,0.0,0.369,0.1796,0.0183,0.0,0.0,0.0,0.0,0.0,0.0,0.0,0.0,1.4401,1.5615,0.0,1.8958,1.897,1.962,2.0795,2.1411,2.1717,2.1657,2.1015,2.0333,1.969,1.969,1.969,1.969,1.969,1.969,1.9747,2.0158,2.0314,2.0348,2.0829,2.0991,2.1055,-1.8424,-1.7985,-1.7471,-1.7041,-1.6963,-1.6709,-1.5967,-1.5859,-1.5752,-1.5449,-1.541,-1.541,-1.541,-1.541,-1.5468,0.0,-1.5748,-1.5864,0.0,-1.6073,-1.6301,-1.681,-1.6877,-1.6935,-1.7071,-1.7126,-1.662,-1.5624,0.0,0.0,0.0,-0.7019,-0.6108,-0.589,-0.4086,-0.2892,-0.2143,-0.0941,-0.0269,0.0,0.0,0.0,0.0,0.0,0.0,0.0,0.0,0.0,0.0,0.0,0.0,0.0,0.0,0.0,0.0292,0.1748,0.2174,0.2565,0.407,0.4519,0.4519,0.4519,0.4519,0.4519,0.4519,0.4519,0.4519,0.4519,0.4294,0.4015,0.3456,0.3947,0.4348,0.4087,0.5073,0.0,0.0,0.0,0.0,0.0,0.0,0.0741,0.0,0.0,0.0,0.0,0.0,0.0,0.0,0.0,0.0,0.0,1.5053,0.0,1.8384,1.8809,1.9632,2.0795,2.0979,2.128,2.1686,2.1473,2.1021,2.0363,1.9884,1.969,1.969,1.969,1.969,1.9711,1.9839,1.9909,1.9909,2.005,2.0311,2.0583,-1.9694,-1.9365,-1.8833,-1.839,-1.806,-1.7627,-1.708,-1.6467,-1.6018,-1.5808,-1.5584,-1.541,-1.541,-1.541,0.0,-1.541,-1.541,-1.541,-1.541,-1.541,-1.5584,-1.6093,-1.5796,-1.5651,-1.5543,0.0,0.0,-1.3942,-1.144,-0.926,-0.7456,-0.6245,-0.5676,-0.5599,-0.3941,-0.3011,-0.2611,-0.1141,-0.0471,-0.0471,-0.0135,0.0,0.0,0.0,0.0,0.0,0.0,0.0,0.0,0.0,0.0,0.0,0.0,0.0179,0.0643,0.186,0.2397,0.2899,0.4181,0.4519,0.4519,0.4519,0.4519,0.4519,0.4519,0.4519,0.4519,0.4519,0.4519,0.446,0.4226,0.4882,0.5534,0.5629,0.6406,0.702,0.702,0.0,0.0,0.0,0.0,0.0,0.0,-0.1366,0.0,0.0,0.0,0.0,0.0,0.0,0.0,1.3469,1.5642,0.0,1.8714,1.9095,1.9674,2.0446,2.093,2.1327,2.17,2.168,2.1335,2.0677,1.9989,1.969,1.969,1.969,1.969,1.969,1.969,1.969,1.969,1.969,1.9874,2.0158,-2.0655,-2.0655,0.0,0.0,-1.9208,0.0,-1.8525,-1.7186,-1.6248,-1.6425,-1.5826,-1.541,-1.541,-1.541,-1.541,-1.541,0.0,0.0,0.0,-1.541,-1.5352,-1.5294,-1.4628,-1.4145,-1.4025,-1.3304,-1.2451,-1.1516,-0.9105,-0.7437,-0.6588,-0.5749,-0.4954,-0.4082,-0.4015,-0.3547,-0.2744,-0.1808,-0.134,-0.1207,-0.0404,-0.0067,0.0,0.0,0.0,0.0,0.0,0.0,0.0,0.0,0.0,0.0,0.0,0.053,0.1283,0.1971,0.2788,0.3569,0.4294,0.4519,0.4519,0.4519,0.4519,0.4519,0.4519,0.4519,0.4519,0.457,0.457,0.4787,0.5433,0.5592,0.614,0.7551,0.7717,0.7723,0.7717,0.0,0.0,0.0,0.0,0.0,0.0,-0.1006,-0.02,0.0,0.0,0.0,0.0,0.0,1.2449,1.5903,1.7059,1.8328,1.9798,1.9798,1.9798,1.9798,2.1086,2.1685,2.1642,2.168,2.1335,2.0677,1.9989,1.969,1.969,1.969,1.969,1.969,1.969,1.969,1.969,1.969,1.969,1.9818,0.0,0.0,-2.0546,-2.0434,-1.9706,-1.9007,-1.8616,-1.7449,-1.6468,-1.6198,-1.5733,-1.541,-1.541,-1.541,-1.541,-1.541,-1.541,-1.541,-1.541,-1.541,-1.5118,-1.451,-1.4332,-1.3657,-1.2381,-1.2197,-1.1066,-0.8913,-0.7623,-0.6593,-0.5686,-0.5491,-0.5292,-0.5024,-0.435,-0.3882,-0.3613,-0.2744,-0.1941,-0.1273,-0.1073,-0.0605,0.0,0.0,0.0,0.0,0.0,0.0,0.0,0.0,0.0,0.0,0.0,0.0898,0.198,0.214,0.2732,0.3511,0.4294,0.4519,0.4519,0.4519,0.4519,0.4519,0.4519,0.4519,0.4625,0.5164,0.5273,0.5492,0.6199,0.6799,0.7439,0.8324,0.8025,0.7658,0.7623,0.5936,0.0,0.0,0.2471,0.1235,-0.0375,0.0269,0.0752,0.0,0.0,0.0,0.0,0.0,1.3095,1.5924,1.7059,1.8328,1.9798,1.9798,1.9798,1.9798,2.1086,2.1453,2.1007,2.1501,2.1335,2.0677,1.9989,1.969,1.969,1.969,1.969,1.969,1.969,1.969,1.969,1.969,1.969,1.9818,-2.2384,-2.2063,-2.1741,-2.1741,-2.1037,-2.0295,-1.9783,-1.8511,-1.7405,-1.6951,-1.6335,-1.6016,-1.6016,-1.6016,-1.5928,-1.5723,-1.5527,-1.541,-1.541,-1.541,-1.505,-1.4273,-1.3855,-1.3053,-1.1834,-1.1469,-1.0199,-0.8027,-0.7502,-0.6662,-0.5428,-0.5428,-0.5428,-0.5362,-0.4888,-0.4619,-0.4553,-0.368,-0.3011,-0.2476,-0.1608,-0.1006,-0.0538,-0.0135,0.0,0.0,0.0,0.0,0.0,0.0,0.0,0.0,0.0,0.0991,0.2227,0.2188,0.301,0.3959,0.4405,0.4519,0.4519,0.4519,0.4519,0.4519,0.4519,0.4519,0.4677,0.5378,0.5487,0.5814,0.6907,0.7706,0.8283,0.8659,0.8389,0.7788,0.6796,0.5062,0.0,0.2952,0.2174,0.1505,0.1058,0.1394,0.1879,0.2429,0.0,0.0,0.9513,1.12,1.3277,1.5859,1.7016,1.8167,1.9307,1.9631,1.9798,1.9798,2.0818,2.1138,2.0826,2.1096,2.1015,2.0677,1.9989,1.969,1.969,1.969,1.969,1.969,1.969,1.969,1.969,1.969,1.969,1.9818,-2.3078,-2.3078,-2.3078,-2.3078,-2.2445,-2.1661,-2.1016,-1.9636,-1.8396,-1.7833,-1.7126,-1.6665,-1.6665,-1.6665,-1.6553,-1.6164,-1.5723,-1.5488,-1.542,-1.541,-1.4991,-1.4085,-1.3373,-1.2581,-1.1648,-1.0793,-0.9652,-0.8221,-0.7962,-0.7051,-0.5624,-0.5491,-0.5428,-0.5428,-0.5428,-0.5428,-0.5359,-0.4553,-0.4148,-0.3882,-0.221,-0.1407,-0.1207,-0.0337,0.0,0.0,0.0,0.0,0.0,0.0,0.0,0.0,0.0,0.101,0.2174,0.2174,0.3289,0.4519,0.4519,0.4519,0.4519,0.4519,0.4519,0.4515,0.4625,0.4625,0.4897,0.5651,0.581,0.6298,0.7765,0.8389,0.8724,0.8878,0.8482,0.7565,0.5681,0.0,0.2938,0.2452,0.1786,0.1675,0.2286,0.2341,0.2947,0.4316,0.5175,0.0,0.0,1.1554,1.3277,1.5558,1.6896,1.8004,1.8886,1.9475,1.9798,1.9798,2.0497,2.0681,2.0521,2.0627,2.0607,2.0399,1.9893,1.969,1.969,1.969,1.969,1.969,1.969,1.969,1.969,1.969,1.969,1.9818,-2.3078,-2.3078,-2.3078,-2.3078,-2.2445,-2.1592,-2.0808,-1.9488,-1.834,-1.7536,-1.7027,-1.6665,-1.6665,-1.6665,-1.6553,-1.6164,-1.6006,-1.5801,-1.5439,-1.541,-1.4746,-1.3243,-1.307,-1.2336,-1.0807,-0.9913,-0.9396,-0.9075,-0.7632,-0.6785,-0.6461,-0.5749,-0.5428,-0.5428,-0.5428,-0.5428,-0.5362,-0.5226,-0.4755,-0.3882,-0.2878,-0.2009,-0.1207,-0.0337,0.0,0.0,0.0,0.0,0.0,0.0,0.0,0.0,0.0,0.1029,0.2174,0.2174,0.3289,0.4519,0.4519,0.4519,0.4519,0.4519,0.4519,0.4625,0.5218,0.5324,0.5706,0.7069,0.7343,0.7812,0.9235,0.9099,0.8875,0.9194,0.7398,0.58,0.5142,0.0,0.2561,0.3065,0.301,0.301,0.3121,0.3121,0.3503,0.4316,0.5591,0.7353,0.9695,1.1792,1.3386,1.4326,1.646,1.8221,1.9631,1.9747,1.9798,1.9798,2.0497,2.0289,1.929,2.0259,2.0131,1.9203,1.9538,1.969,1.969,1.969,1.969,1.969,1.969,1.969,1.969,1.969,1.969,1.9782,-2.3078,-2.3078,-2.3078,-2.3078,-2.2823,-2.2249,-2.1428,-2.04,-1.9362,-1.8547,-1.7859,-1.7422,-1.7422,-1.7422,-1.7246,-1.6816,-1.6562,-1.624,-1.5791,-1.5537,-1.4874,-1.3726,-1.3243,-1.2282,-1.0624,-1.0238,-0.9786,-0.9274,-0.8027,-0.7177,-0.6654,-0.5815,-0.5428,-0.5428,-0.5428,-0.5428,-0.5428,-0.5428,-0.5111,-0.4511,-0.3205,-0.24,-0.1793,-0.0514,0.0,0.0,0.0,0.0,0.0,0.0,0.0,0.0,0.0,0.1019,0.2174,0.2174,0.3289,0.4519,0.4519,0.4519,0.4519,0.4519,0.4519,0.468,0.5324,0.5487,0.5919,0.7396,0.7723,0.8043,0.9047,0.8988,0.856,0.7942,0.6477,0.0,0.0,0.2986,0.251,0.3289,0.3345,0.3456,0.3901,0.4281,0.4769,0.5529,0.6903,0.8423,1.0222,1.1852,1.3393,1.4673,1.6569,1.8328,1.9798,1.9798,1.9798,1.9798,1.9812,1.9529,1.9021,1.9252,1.9195,1.8893,1.9169,1.9442,1.969,1.969,1.969,1.969,1.969,1.969,1.969,1.969,1.969,1.9747,-2.3078,-2.3078,-2.3078,-2.3078,-2.3078,-2.2823,-2.2002,-2.1164,-2.0268,-1.9431,-1.8529,-1.8008,-1.8008,-1.8008,-1.7793,-1.7275,-1.6924,-1.6504,-1.5947,-1.5596,-1.505,-1.4273,-1.3243,-1.2151,-1.0926,-1.0681,-1.0301,-0.9594,-0.8742,-0.7827,-0.6981,-0.6141,-0.5624,-0.5425,-0.5325,-0.5308,-0.5308,-0.5274,-0.5189,-0.4955,-0.3491,-0.2757,-0.2335,-0.0801,-0.0123,0.0,0.0,0.0,0.0,0.0,0.0,0.0,0.0,0.1006,0.2174,0.2174,0.3289,0.4519,0.4519,0.4519,0.4519,0.4519,0.4519,0.4736,0.5546,0.576,0.6195,0.7664,0.7937,0.8156,0.8903,0.8712,0.8057,0.6702,0.0,0.0,0.0,0.2697,0.2785,0.3561,0.3727,0.4116,0.4897,0.5437,0.614,0.7004,0.8258,0.9555,1.0965,1.2118,1.3559,1.538,1.7011,1.8442,1.9623,1.9623,1.956,1.9422,1.9032,1.877,1.8598,1.8332,1.8329,1.8535,1.865,1.8968,1.9332,1.9332,1.9332,1.9332,1.9332,1.9406,1.953,1.953,1.9603,1.9747,-2.3078,-2.3078,-2.3078,-2.3078,-2.3078,-2.2823,-2.2002,-2.1164,-2.0268,-1.9431,-1.8529,-1.8008,-1.8008,-1.8008,-1.7676,-1.6792,-1.6748,-1.6367,-1.5518,-1.543,-1.505,-1.4273,-1.2749,-1.1834,-1.171,-1.0989,-1.0561,-1.0498,-0.9658,-0.8748,-0.7897,-0.6981,-0.6203,-0.5422,-0.5213,-0.5148,-0.5138,-0.5006,-0.4945,-0.4809,-0.3883,-0.314,-0.2397,-0.1416,-0.0617,0.0,0.0,0.0,0.0,0.0,0.0,0.0,0.0,0.1006,0.2174,0.2174,0.3289,0.4519,0.4519,0.4519,0.4519,0.4519,0.4519,0.4842,0.6204,0.6529,0.6912,0.8427,0.8699,0.8903,0.9614,0.8666,0.7425,0.6331,0.0,0.0,0.2145,0.2733,0.3561,0.4262,0.4929,0.5651,0.6367,0.648,0.7058,0.8416,0.9224,1.025,1.1665,1.2789,1.4246,1.6065,1.7752,1.8762,1.9046,1.9033,1.8832,1.8329,1.8279,1.8025,1.7529,1.7987,1.7922,1.7463,1.7947,1.8185,1.8224,1.8224,1.8224,1.8224,1.8224,1.8535,1.8968,1.8968,1.9281,1.9711,-2.3078,-2.3078,-2.3078,-2.3078,-2.3078,-2.2823,-2.2002,-2.1164,-2.0268,-1.9431,-1.8529,-1.8008,-1.8008,-1.8008,-1.7773,-1.7187,-1.6885,-1.6475,-1.585,-1.5557,-1.505,-1.4273,-1.3122,-1.2328,-1.1834,-1.0982,-1.0624,-1.0624,-0.9722,-0.9139,-0.8812,-0.7897,-0.7312,-0.6981,-0.6718,-0.6567,-0.6554,-0.5888,-0.5512,-0.5354,-0.4112,-0.3362,-0.2896,-0.1624,-0.0929,-0.0638,-0.0172,0.0,0.0,0.0,0.0,0.0,0.0,0.1006,0.2397,0.3345,0.4015,0.4519,0.4519,0.4519,0.4519,0.4519,0.4519,0.4846,0.6263,0.6588,0.702,0.848,0.8804,0.8745,0.8514,0.7711,0.6567,0.5253,0.0,0.3471,0.2799,0.3501,0.4268,0.4984,0.5756,0.6312,0.6588,0.702,0.7652,0.8626,0.9761,1.0788,1.1765,1.289,1.4215,1.5717,1.6683,1.7579,1.8518,1.8518,1.8405,1.8204,1.7852,1.7589,1.7363,1.7219,1.7213,1.7312,1.7504,1.7787,1.8106,1.8106,1.8106,1.8106,1.8106,1.8419,1.8893,1.8893,1.9244,1.969,-2.3078,-2.3078,-2.3078,-2.3078,-2.3078,-2.2884,-2.2384,-2.129,-2.0398,-1.9814,-1.8721,-1.8008,-1.8008,-1.8008,-1.7842,-1.7422,-1.6982,-1.6602,-1.6289,-1.5859,-1.5311,-1.4638,-1.3795,-1.3,-1.2205,-1.1413,-1.0863,-1.0624,-0.9977,-0.9594,-0.9274,-0.8683,-0.8184,-0.7845,-0.7561,-0.736,-0.7285,-0.6484,-0.5974,-0.5624,-0.4599,-0.3866,-0.3289,-0.2174,-0.1507,-0.1006,-0.0504,-0.0224,0.0,0.0,0.0,0.0,0.0,0.1006,0.2454,0.379,0.4294,0.4519,0.4519,0.4519,0.4519,0.4519,0.4519,0.4846,0.6263,0.6588,0.702,0.848,0.8593,0.8321,0.7777,0.6907,0.5864,0.459,0.3999,0.3674,0.3669,0.4268,0.5089,0.6081,0.6632,0.702,0.7289,0.7925,0.8652,0.9304,1.0442,1.1425,1.2129,1.3066,1.4016,1.4964,1.5635,1.6443,1.7375,1.7747,1.7852,1.7677,1.7287,1.7112,1.7099,1.6697,1.671,1.7034,1.7034,1.7271,1.7585,1.7585,1.7585,1.7585,1.7585,1.7947,1.8419,1.8574,1.9006,1.9479,-2.3078,-2.3078,-2.3078,-2.3078,-2.3078,-2.3078,-2.3078,-2.1667,-2.059,-2.059,-1.911,-1.8008,-1.8008,-1.8008,-1.7842,-1.7422,-1.6982,-1.6665,-1.6728,-1.6309,-1.5869,-1.543,-1.4628,-1.3855,-1.3009,-1.2205,-1.1406,-1.0624,-1.0624,-1.0174,-0.9338,-0.9338,-0.8678,-0.7494,-0.739,-0.7168,-0.6889,-0.6678,-0.6204,-0.5487,-0.5487,-0.4663,-0.34,-0.3345,-0.2397,-0.1118,-0.1118,-0.0615,0.0,0.0,0.0,0.0,0.0,0.1006,0.2343,0.3178,0.3901,0.4519,0.4519,0.4519,0.4519,0.4519,0.4519,0.4846,0.6263,0.6588,0.702,0.848,0.8209,0.767,0.767,0.6465,0.5261,0.4535,0.4446,0.4508,0.4429,0.5039,0.6086,0.7503,0.7723,0.7996,0.8752,0.9413,1.0064,1.0762,1.1416,1.2129,1.2871,1.3467,1.3815,1.3815,1.4949,1.5588,1.5588,1.6794,1.7087,1.6522,1.6522,1.6522,1.6522,1.6522,1.6522,1.6522,1.6522,1.6522,1.6522,1.6522,1.6522,1.6522,1.6522,1.6837,1.7353,1.7907,1.8458,1.8968,-2.3078,-2.3078,-2.3078,-2.3078,-2.3078,-2.2884,-2.2322,-2.129,-2.0398,-1.9759,-1.8721,-1.8008,-1.8008,-1.8008,-1.7842,-1.7422,-1.7266,-1.6924,-1.6309,-1.6194,-1.5869,-1.543,-1.4628,-1.4094,-1.3855,-1.3061,-1.252,-1.2274,-1.1717,-1.1344,-1.1017,-1.0478,-0.9888,-0.9291,-0.9085,-0.8813,-0.8484,-0.772,-0.6961,-0.6204,-0.5706,-0.4944,-0.4125,-0.3511,-0.3065,-0.2621,-0.2063,-0.1396,-0.0783,-0.0783,-0.0448,0.0112,0.0615,0.1062,0.1675,0.301,0.3511,0.379,0.4349,0.4519,0.4519,0.4519,0.4519,0.4736,0.5601,0.5814,0.6091,0.7074,0.7074,0.6745,0.6249,0.581,0.5429,0.5206,0.521,0.5378,0.5864,0.6573,0.723,0.767,0.8156,0.8738,0.9413,0.9666,1.0261,1.1416,1.2187,1.2666,1.2881,1.3065,1.3372,1.3779,1.4133,1.4549,1.496,1.6178,1.6685,1.6522,1.6522,1.6522,1.6522,1.6522,1.6522,1.6522,1.6522,1.6522,1.6522,1.6522,1.6522,1.6522,1.6522,1.6837,1.7312,1.7463,1.8145,1.893,-2.3078,-2.3078,-2.3078,-2.3078,-2.3078,-2.2944,-2.2445,-2.1353,-2.0398,-1.9879,-1.8787,-1.8008,-1.8008,-1.8008,-1.791,-1.7656,-1.7637,-1.7187,-1.6194,-1.623,-1.6055,-1.5439,-1.4932,-1.451,-1.4213,-1.3726,-1.3312,-1.3009,-1.2512,-1.2266,-1.2258,-1.1591,-1.1005,-1.0387,-1.0086,-0.9618,-0.9004,-0.8391,-0.7723,-0.6966,-0.6253,-0.5492,-0.4838,-0.4064,-0.3622,-0.3289,-0.2788,-0.2174,-0.1507,-0.1174,-0.0615,0.0056,0.0504,0.0838,0.1284,0.2232,0.2899,0.34,0.3901,0.4239,0.4519,0.4519,0.4519,0.468,0.5324,0.5487,0.5706,0.6421,0.6367,0.6036,0.5597,0.5487,0.5487,0.5487,0.576,0.6199,0.6907,0.7402,0.783,0.8103,0.8533,0.9061,0.971,1.0064,1.0771,1.2138,1.2666,1.2881,1.2881,1.2881,1.3065,1.342,1.3684,1.3956,1.4329,1.5287,1.5788,1.5788,1.602,1.6139,1.6139,1.5876,1.6064,1.6479,1.6238,1.6281,1.6522,1.6522,1.6522,1.6522,1.6522,1.671,1.6993,1.7229,1.7827,1.8612,-2.3078,-2.3078,-2.3078,-2.3078,-2.3078,-2.3078,-2.3078,-2.1741,-2.0719,-2.0719,-1.9177,-1.8144,-1.8144,-1.8076,-1.8008,-1.8008,-1.8008,-1.7471,-1.6201,-1.6504,-1.6338,-1.5449,-1.541,-1.505,-1.4332,-1.4332,-1.3974,-1.3183,-1.313,-1.313,-1.3122,-1.2679,-1.1961,-1.0948,-1.0534,-0.9789,-0.891,-0.8804,-0.8374,-0.7616,-0.6966,-0.6258,-0.5542,-0.4897,-0.4177,-0.3508,-0.3508,-0.2952,-0.2174,-0.1397,-0.0671,-0.0112,0.0,0.0448,0.1006,0.1062,0.2063,0.3121,0.3287,0.3846,0.4405,0.4463,0.4519,0.468,0.5273,0.5433,0.5597,0.6258,0.5873,0.5433,0.5483,0.5487,0.5542,0.5651,0.6253,0.6966,0.767,0.7777,0.8049,0.8699,0.8804,0.9061,0.971,1.0466,1.1434,1.2774,1.2881,1.2881,1.2881,1.2881,1.2881,1.2881,1.342,1.3732,1.3732,1.4329,1.4663,1.4698,1.5276,1.5543,1.5499,1.4971,1.5299,1.6293,1.5776,1.582,1.6337,1.638,1.6423,1.6423,1.6466,1.6522,1.6552,1.7034,1.7585,1.8106,-2.3078,-2.3078,-2.3078,-2.3078,-2.3078,-2.3078,-2.3078,-2.2249,-2.1628,-2.1628,-2.0074,-1.9044,-1.9044,-1.8395,-1.8008,-1.8008,-1.8008,-1.7607,-1.665,-1.668,-1.6338,-1.5449,-1.541,-1.5294,-1.5108,-1.5108,-1.505,-1.4874,-1.4273,-1.3965,-1.3906,-1.3228,-1.2421,-1.1671,-1.1048,-1.0305,-0.9562,-0.9008,-0.8374,-0.767,-0.7509,-0.702,-0.6367,-0.6204,-0.5655,-0.5046,-0.5046,-0.4165,-0.2843,-0.1563,-0.1006,-0.0783,-0.0168,0.0112,0.0336,0.0951,0.134,0.184,0.301,0.3456,0.379,0.4349,0.4519,0.4519,0.4677,0.4732,0.4791,0.4901,0.4842,0.4897,0.5378,0.5487,0.5864,0.7009,0.7343,0.7723,0.848,0.854,0.8646,0.8758,0.8804,0.9061,0.971,1.0864,1.1931,1.2832,1.2881,1.2881,1.2881,1.2881,1.2881,1.2881,1.3017,1.3113,1.3113,1.3695,1.4236,1.4698,1.4835,1.488,1.488,1.4744,1.4835,1.5062,1.4971,1.4971,1.5107,1.5599,1.582,1.582,1.6337,1.6522,1.6522,1.6637,1.6993,1.7626,-2.3188,-2.3078,-2.3078,-2.3078,-2.3078,-2.3078,-2.3078,-2.2445,-2.1877,-2.1877,-2.0719,-1.9748,-1.9365,-1.8911,-1.8462,-1.8008,-1.8008,-1.7646,-1.6787,-1.6665,-1.6338,-1.5449,-1.541,-1.541,-1.541,-1.541,-1.541,-1.541,-1.4991,-1.4746,-1.4746,-1.4141,-1.3371,-1.2448,-1.1902,-1.0977,-0.9762,-0.9413,-0.889,-0.8209,-0.783,-0.745,-0.7074,-0.675,-0.6367,-0.5982,-0.5651,-0.4553,-0.3176,-0.2454,-0.173,-0.1006,-0.0671,-0.028,0.0056,0.0448,0.0839,0.1341,0.2454,0.3065,0.3511,0.4294,0.4519,0.4519,0.4519,0.4519,0.4519,0.4519,0.4519,0.468,0.5378,0.576,0.6416,0.7503,0.7996,0.8374,0.8752,0.8804,0.8804,0.8804,0.8804,0.9211,1.0167,1.1534,1.2501,1.2881,1.2881,1.2881,1.2881,1.2881,1.2881,1.2881,1.2559,1.2393,1.2393,1.2365,1.2531,1.285,1.3794,1.4283,1.4283,1.3978,1.4154,1.4698,1.4376,1.4422,1.4698,1.5062,1.532,1.5632,1.5964,1.6238,1.6522,1.6522,1.6993,1.7787,-2.3376,-2.314,-2.3078,-2.3078,-2.3078,-2.3078,-2.3078,-2.2506,-2.2137,-2.2137,-2.1365,-2.0462,-1.9628,-1.9243,-1.8787,-1.8076,-1.8008,-1.7676,-1.6894,-1.6846,-1.6445,-1.5566,-1.5527,-1.5488,-1.541,-1.541,-1.541,-1.541,-1.541,-1.541,-1.54,-1.5049,-1.4332,-1.3241,-1.2804,-1.1601,-0.9969,-0.9865,-0.9413,-0.8752,-0.8156,-0.7883,-0.783,-0.7235,-0.6912,-0.6691,-0.6086,-0.4933,-0.3671,-0.3616,-0.2619,-0.1452,-0.134,-0.0783,-0.0168,-0.0168,0.0336,0.1062,0.1786,0.2454,0.3121,0.407,0.4294,0.4349,0.446,0.4519,0.4519,0.4519,0.4519,0.4732,0.5546,0.6199,0.6858,0.7723,0.8427,0.8804,0.8804,0.8804,0.8804,0.8804,0.891,0.9458,1.0661,1.195,1.2774,1.2881,1.2881,1.2881,1.2881,1.2774,1.2715,1.2715,1.203,1.1616,1.1616,1.1065,1.0813,1.0813,1.2492,1.3273,1.3273,1.289,1.3266,1.4179,1.3815,1.392,1.4387,1.4525,1.4915,1.5454,1.5543,1.5952,1.6522,1.6522,1.7105,1.8027,-2.3891,-2.3477,-2.3078,-2.3078,-2.3078,-2.3078,-2.3078,-2.3017,-2.2944,-2.2944,-2.2261,-2.1365,-2.0526,-1.911,-1.8144,-1.8008,-1.8008,-1.7803,-1.7334,-1.7295,-1.6904,-1.6016,-1.6037,-1.5801,-1.542,-1.541,-1.541,-1.541,-1.541,-1.541,-1.541,-1.5352,-1.4836,-1.3917,-1.3303,-1.2158,-1.0618,-1.0064,-0.9413,-0.8804,-0.8699,-0.8646,-0.8646,-0.8533,-0.8103,-0.7557,-0.745,-0.6465,-0.5097,-0.4484,-0.3721,-0.2954,-0.2287,-0.1563,-0.095,-0.095,-0.0448,0.0336,0.1062,0.134,0.173,0.3178,0.3511,0.3622,0.4349,0.4519,0.4519,0.4519,0.4519,0.4897,0.6204,0.6534,0.7074,0.8427,0.8752,0.8804,0.8804,0.8804,0.8804,0.8804,0.9309,0.9969,1.072,1.1516,1.2187,1.2832,1.2881,1.2881,1.2881,1.2295,1.1972,1.1972,1.1266,1.0965,1.0965,1.0864,1.0813,1.0813,1.1057,1.1208,1.1208,1.1715,1.2061,1.2199,1.2793,1.3065,1.32,1.3695,1.4283,1.488,1.541,1.5952,1.6522,1.6522,1.6879,1.7435,-2.4519,-2.4004,-2.3615,-2.3615,-2.3351,-2.3078,-2.3078,-2.3078,-2.3078,-2.3078,-2.2823,-2.2063,-2.0719,-1.9044,-1.8008,-1.8008,-1.8008,-1.7832,-1.7412,-1.7383,-1.71,-1.6465,-1.6201,-1.5977,-1.5781,-1.5537,-1.541,-1.541,-1.541,-1.541,-1.541,-1.541,-1.4951,-1.4077,-1.38,-1.2572,-1.0762,-1.0466,-0.9762,-0.8857,-0.9211,-0.9106,-0.8857,-0.9211,-0.8942,-0.8262,-0.783,-0.7015,-0.6091,-0.5751,-0.4875,-0.3886,-0.355,-0.2613,-0.173,-0.173,-0.1507,-0.1005,0.0167,0.0502,0.0836,0.2341,0.2732,0.2788,0.3121,0.3231,0.3456,0.4294,0.4181,0.434,0.571,0.6312,0.6966,0.799,0.8533,0.8804,0.8804,0.8804,0.8804,0.8804,0.971,1.0466,1.0762,1.1783,1.2559,1.2881,1.2881,1.2667,1.2063,1.1748,1.1181,1.032,1.0108,0.9872,0.95,0.9607,0.9666,0.9666,0.9666,1.0064,1.0813,1.1116,1.1466,1.1814,1.2129,1.251,1.2929,1.32,1.3647,1.4283,1.4869,1.5688,1.6522,1.6522,1.6632,1.6864]},{"header":{"parameterUnit":"m.s-1","parameterCategory":1,"la1":30.6,"la2":28.766,"lo1":-90.7593,"lo2":-88.6598,"dx":0.0162,"dy":0.0183,"nx":116,"ny":114,"refTime":"2022-12-10T18:00:00:Z","depth":0,"parameterNumber":3,"parameterNumberName":"V-component_of_WINDS"},"data":[0.0,0.0,0.0,0.0,0.0,0.0,0.0,0.0,0.0,0.0,0.0,0.0,0.0,0.0,0.0,0.0,0.0,0.0,0.0,0.0,0.0,0.0,0.0,0.0,0.0,0.0,0.0,0.0,0.0,0.0,0.0,0.0,0.0,0.0,0.0,0.0,0.0,0.0,0.0,0.0,0.0,0.0,0.0,0.0,0.0,0.0,0.0,0.0,0.0,0.0,0.0,0.0,0.0,0.0,0.0,0.0,0.0,0.0,0.0,0.0,0.0,0.0,0.0,0.0,0.0,0.0,0.0,0.0,0.0,0.0,0.0,0.0,0.0,0.0,0.0,0.0,0.0,0.0,0.0,0.0,0.0,0.0,0.0,0.0,0.0,0.0,0.0,0.0,0.0,0.0,0.0,0.0,0.0,0.0,0.0,0.0,0.0,0.0,0.0,0.0,0.0,0.0,0.0,0.0,0.0,0.0,0.0,0.0,0.0,0.0,0.0,0.0,0.0,0.0,0.0,0.0,0.0,0.0,0.0,0.0,0.0,0.0,0.0,0.0,0.0,0.0,0.0,0.0,0.0,0.0,0.0,0.0,0.0,0.0,0.0,0.0,0.0,0.0,0.0,0.0,0.0,0.0,0.0,0.0,0.0,0.0,0.0,0.0,0.0,0.0,0.0,0.0,0.0,0.0,0.0,0.0,0.0,0.0,0.0,0.0,0.0,0.0,0.0,0.0,0.0,0.0,0.0,0.0,0.0,0.0,0.0,0.0,0.0,0.0,0.0,0.0,0.0,0.0,0.0,0.0,0.0,0.0,0.0,0.0,0.0,0.0,0.0,0.0,0.0,0.0,0.0,0.0,0.0,0.0,0.0,0.0,0.0,0.0,0.0,0.0,0.0,0.0,0.0,0.0,0.0,0.0,0.0,0.0,0.0,0.0,0.0,0.0,0.0,0.0,0.0,0.0,0.0,0.0,0.0,0.0,0.0,0.0,0.0,0.0,0.0,0.0,0.0,0.0,0.0,0.0,0.0,0.0,0.0,0.0,0.0,0.0,0.0,0.0,0.0,0.0,0.0,0.0,0.0,0.0,0.0,0.0,0.0,0.0,0.0,0.0,0.0,0.0,0.0,0.0,0.0,0.0,0.0,0.0,0.0,0.0,0.0,0.0,0.0,0.0,0.0,0.0,0.0,0.0,0.0,0.0,0.0,0.0,0.0,0.0,0.0,0.0,0.0,0.0,0.0,0.0,0.0,0.0,0.0,0.0,0.0,0.0,0.0,0.0,0.0,0.0,0.0,0.0,0.0,0.0,0.0,0.0,0.0,0.0,0.0,0.0,0.0,0.0,0.0,0.0,0.0,0.0,0.0,0.0,0.0,0.0,0.0,0.0,0.0,0.0,0.0,0.0,0.0,0.0,0.0,0.0,0.0,0.0,0.0,0.0,0.0,0.0,0.0,0.0,0.0,0.0,0.0,0.0,0.0,0.0,0.0,0.0,0.0,0.0,0.0,0.0,0.0,0.0,0.0,0.0,0.0,0.0,0.0,0.0,0.0,0.0,0.0,0.0,0.0,0.0,0.0,0.0,0.0,0.0,0.0,0.0,0.0,0.0,0.0,0.0,0.0,0.0,0.0,0.0,0.0,0.0,0.0,0.0,0.0,0.0,0.0,0.0,0.0,0.0,0.0,0.0,0.0,0.0,0.0,0.0,0.0,0.0,0.0,0.0,0.0,0.0,0.0,0.0,0.0,0.0,0.0,0.0,0.0,0.0,0.0,0.0,0.0,0.0,0.0,0.0,0.0,0.0,0.0,0.0,0.0,0.0,0.0,0.0,0.0,0.0,0.0,0.0,0.0,0.0,0.0,0.0,0.0,0.0,0.0,0.0,0.0,0.0,0.0,0.0,0.0,0.0,0.0,0.0,0.0,0.0,0.0,0.0,0.0,0.0,0.0,0.0,0.0,0.0,0.0,0.0,0.0,0.0,0.0,0.0,0.0,0.0,0.0,0.0,0.0,0.0,0.0,0.0,0.0,0.0,0.0,0.0,0.0,0.0,0.0,0.0,0.0,0.0,0.0,0.0,0.0,0.0,0.0,0.0,0.0,0.0,0.0,0.0,0.0,0.0,0.0,0.0,0.0,0.0,0.0,0.0,0.0,0.0,0.0,0.0,0.0,0.0,0.0,0.0,0.0,0.0,0.0,0.0,0.0,0.0,0.0,0.0,0.0,0.0,0.0,0.0,0.0,0.0,0.0,0.0,0.0,0.0,0.0,0.0,0.0,0.0,0.0,0.0,0.0,0.0,0.0,0.0,0.0,0.0,0.0,0.0,0.0,0.0,0.0,0.0,0.0,0.0,0.0,0.0,0.0,0.0,0.0,0.0,0.0,0.0,0.0,0.0,0.0,0.0,0.0,0.0,0.0,0.0,0.0,0.0,0.0,0.0,0.0,0.0,0.0,0.0,0.0,0.0,0.0,0.0,0.0,0.0,0.0,0.0,0.0,0.0,0.0,0.0,0.0,0.0,0.0,0.0,0.0,0.0,0.0,0.0,0.0,0.0,0.0,0.0,0.0,0.0,0.0,0.0,0.0,0.0,0.0,0.0,0.0,0.0,0.0,0.0,0.0,0.0,0.0,0.0,0.0,0.0,0.0,0.0,0.0,0.0,0.0,0.0,0.0,0.0,0.0,0.0,0.0,0.0,0.0,0.0,0.0,0.0,0.0,0.0,0.0,0.0,0.0,0.0,0.0,0.0,0.0,0.0,0.0,0.0,0.0,0.0,0.0,0.0,0.0,0.0,0.0,0.0,0.0,0.0,0.0,0.0,0.0,0.0,0.0,0.0,0.0,0.0,0.0,0.0,0.0,0.0,0.0,0.0,0.0,0.0,0.0,0.0,0.0,0.0,0.0,0.0,0.0,0.0,0.0,0.0,0.0,0.0,0.0,0.0,0.0,0.0,0.0,0.0,0.0,0.0,0.0,0.0,0.0,0.0,0.0,0.0,0.0,0.0,0.0,0.0,0.0,0.0,0.0,0.0,0.0,0.0,0.0,0.0,0.0,0.0,0.0,0.0,0.0,0.0,0.0,0.0,0.0,0.0,0.0,0.0,0.0,0.0,0.0,0.0,0.0,0.0,0.0,0.0,0.0,0.0,0.0,0.0,0.0,0.0,0.0,0.0,0.0,0.0,0.0,0.0,0.0,0.0,0.0,0.0,0.0,0.0,0.0,0.0,0.0,0.0,0.0,0.0,0.0,0.0,0.0,0.0,0.0,0.0,0.0,0.0,0.0,0.0,0.0,0.0,0.0,0.0,0.0,0.0,0.0,0.0,0.0,0.0,0.0,0.0,0.0,0.0,0.0,0.0,0.0,0.0,0.0,0.0,0.0,0.0,0.0,0.0,0.0,0.0,0.0,0.0,0.0,0.0,0.0,0.0,0.0,0.0,0.0,0.0,0.0,0.0,0.0,0.0,0.0,0.0,0.0,0.0,0.0,0.0,0.0,0.0,0.0,0.0,0.0,0.0,0.0,0.0,0.0,0.0,0.0,0.0,0.0,0.0,0.0,0.0,0.0,0.0,0.0,0.0,0.0,0.0,0.0,0.0,0.0,0.0,0.0,0.0,0.0,0.0,0.0,0.0,0.0,0.0,0.0,0.0,0.0,0.0,0.0,0.0,0.0,0.0,0.0,0.0,0.0,0.0,0.0,0.0,0.0,0.0,0.0,0.0,0.0,0.0,0.0,0.0,0.0,0.0,0.0,0.0,0.0,0.0,0.0,0.0,0.0,0.0,0.0,0.0,0.0,0.0,0.0,0.0,0.0,0.0,0.0,0.0,0.0,0.0,0.0,0.0,0.0,0.0,0.0,0.0,0.0,0.0,0.0,0.0,0.0,0.0,0.0,0.0,0.0,0.0,0.0,0.0,0.0,0.0,0.0,0.0,0.0,0.0,0.0,0.0,0.0,0.0,0.0,0.0,0.0,0.0,0.0,0.0,0.0,0.0,0.0,0.0,0.0,0.0,0.0,0.0,0.0,0.0,0.0,0.0,0.0,0.0,0.0,0.0,0.0,0.0,0.0,0.0,0.0,0.0,0.0,0.0,0.0,0.0,0.0,0.0,0.0,0.0,0.0,0.0,0.0,0.0,0.0,0.0,0.0,0.0,0.0,0.0,0.0,0.0,0.0,0.0,0.0,0.0,0.0,0.0,0.0,0.0,0.0,0.0,0.0,0.0,0.0,0.0,0.0,0.0,0.0,0.0,0.0,0.0,0.0,0.0,0.0,0.0,0.0,0.0,0.0,0.0,0.0,0.0,0.0,0.0,0.0,0.0,0.0,0.0,0.0,0.0,0.0,0.0,0.0,0.0,0.0,0.0,0.0,0.0,0.0,0.0,0.0,0.0,0.0,0.0,0.0,0.0,0.0,0.0,0.0,0.0,0.0,0.0,0.0,0.0,0.0,0.0,0.0,0.0,0.0,0.0,0.0,0.0,0.0,0.0,0.0,0.0,0.0,0.0,0.0,0.0,0.0,0.0,0.0,0.0,0.0,0.0,0.0,0.0,0.0,0.0,0.0,0.0,0.0,0.0,0.0,0.0,0.0,0.0,0.0,0.0,0.0,0.0,0.0,0.0,0.0,0.0,0.0,0.0,0.0,0.0,0.0,0.0,0.0,0.0,0.0,0.0,0.0,0.0,0.0,0.0,0.0,0.0,0.0,0.0,0.0,0.0,0.0,0.0,0.0,0.0,0.0,0.0,0.0,0.0,0.0,0.0,0.0,0.0,0.0,0.0,0.0,0.0,0.0,0.0,0.0,0.0,0.0,0.0,0.0,0.0,0.0,0.0,0.0,0.0,0.0,0.0,0.0,0.0,0.0,0.0,0.0,0.0,0.0,0.0,0.0,0.0,0.0,0.0,0.0,0.0,0.0,0.0,0.0,0.0,0.0,0.0,0.0,0.0,0.0,0.0,0.0,0.0,0.0,0.0,0.0,0.0,0.0,0.0,0.0,0.0,0.0,0.0,0.0,0.0,0.0,0.0,0.0,0.0,0.0,0.0,0.0,0.0,0.0,0.0,0.0,0.0,0.0,0.0,0.0,0.0,0.0,0.0,0.0,0.0,0.0,0.0,0.0,0.0,0.0,0.0,0.0,0.0,0.0,0.0,0.0,0.0,0.0,0.0,0.0,0.0,0.0,0.0,0.0,0.0,0.0,0.0,0.0,0.0,0.0,0.0,0.0,0.0,0.0,0.0,0.0,0.0,0.0,0.0,0.0,0.0,0.0,0.0,0.0,0.0,0.0,0.0,0.0,0.0,0.0,0.0,0.0,0.0,0.0,0.0,0.0,0.0,0.0,0.0,0.0,0.0,0.0,0.0,0.0,0.0,0.0,0.0,0.0,0.0,0.0,0.0,0.0,0.0,0.0,0.0,0.0,0.0,0.0,0.0,0.0,0.0,0.0,0.0,0.0,0.0,0.0,0.0,0.0,0.0,0.0,0.0,0.0,0.0,0.0,0.0,0.0,0.0,0.0,0.0,0.0,0.0,0.0,0.0,0.0,0.0,0.0,0.0,0.0,0.0,0.0,0.0,0.0,0.0,0.0,0.0,0.0,0.0,0.0,0.0,0.0,0.0,0.0,0.0,0.0,0.0,0.0,0.0,0.0,0.0,0.0,0.0,0.0,0.0,0.0,0.0,0.0,0.0,0.0,0.0,0.0,0.0,0.0,0.0,0.0,0.0,0.0,0.0,0.0,0.0,0.0,0.0,0.0,0.0,0.0,0.0,0.0,0.0,0.0,0.0,0.0,0.0,0.0,0.0,0.0,0.0,0.0,0.0,0.0,0.0,0.0,0.0,0.0,0.0,0.0,0.0,0.0,0.0,0.0,0.0,0.0,0.0,0.0,0.0,0.0,0.0,0.0,0.0,0.0,0.0,0.0,0.0,0.0,0.0,0.0,0.0,0.0,0.0,0.0,0.0,0.0,0.0,0.0,0.0,0.0,0.0,0.0,0.0,0.0,0.0,0.0,0.0,0.0,0.0,0.0,0.0,0.0,0.0,0.0,0.0,0.0,0.0,0.0,0.0,0.0,0.0,0.0,0.0,0.0,0.0,0.0,0.0,0.0482,0.0,0.0,0.0,0.0,0.0,0.0,0.0,0.0,0.0,0.0,0.0,0.0,0.0,0.0,0.0,0.0,0.0,0.0,0.0,0.0,0.0,0.0,0.0,0.0,-0.0202,-0.061,-0.0995,-0.1642,0.0,0.0,0.0,0.0,0.0,0.0,0.0,0.0,0.0,0.1364,0.1889,0.2247,0.2352,0.2215,0.1271,0.0079,-0.1381,0.0,0.0,0.0,0.0,0.0,0.0,0.0,0.0,0.0,0.0,0.0,0.0,0.0,0.0,0.0,0.0,0.0,0.0,0.0,0.0,0.0,0.0,0.0,0.0,0.0,0.0,0.0,0.0,0.0,0.0,0.0,0.0,0.0,0.0,0.0,0.0,0.0,0.0,0.0,0.0,0.0,0.0,0.0,0.0,0.0,0.0,0.0,0.0,0.0,0.0,0.0,0.0,0.0,0.0,0.0,0.0,0.0,0.0,0.0,0.0,0.0,0.0,0.0,0.0,0.0,0.0,0.0,0.0,0.0,0.0,0.0,0.0824,0.0,0.0,0.0,0.0,0.0,0.0,0.0,0.0,0.0,0.0,0.0,0.0,0.0,0.0,0.0,0.0,0.0,0.0,0.0,0.0,0.0,0.1068,0.1103,0.0447,0.0029,0.0065,-0.0987,-0.1642,-0.1637,-0.168,0.0,0.0,0.0,0.0,0.0557,0.1086,0.1637,0.2197,0.2912,0.3142,0.2933,0.2552,0.1552,0.0088,-0.1338,0.0,0.0,0.0,0.0,0.0,0.0,0.0,0.0,0.0,0.0,0.0,0.0,0.0,0.0,0.0,0.0,0.0,0.0,0.0,0.0,0.0,0.0,0.0,0.0,0.0,0.0,0.0,0.0,0.0,0.0,0.0,0.0,0.0,0.0,0.0,0.0,0.0,0.0,0.0,0.0,0.0,0.0,0.0,0.0,0.0,0.0,0.0,0.0,0.0,0.0,0.0,0.0,0.0,0.0,0.0,0.0,0.0,0.0,0.0,0.0,0.0,0.0,0.0,0.6446,0.6205,0.5309,0.5309,0.4884,0.4068,0.2888,0.2068,0.1486,0.0,0.0,0.0,0.0,0.0,0.0,0.0,0.0,0.0,0.0,0.0,0.0,0.0,0.0,0.0,0.0,0.0,0.0,0.0,0.0,0.1543,0.1131,0.1007,0.0776,0.0369,-0.0031,-0.0482,-0.0989,-0.114,0.0,0.0,0.0,0.0379,0.1163,0.1433,0.2016,0.2945,0.3575,0.3873,0.3809,0.3245,0.2735,0.2209,-0.007,-0.1404,-0.2006,0.0,0.0,0.0,0.0,0.0,0.0,0.0,0.0,0.0,0.0,0.0,0.0,0.0,0.0,0.0,0.0,0.0,0.0,0.0,0.0,0.0,0.0,0.0,0.0,0.0,0.0,0.0,0.0,0.0,0.0,0.0,0.0,0.0,0.0,0.0,0.0,0.0,0.0,0.0,0.0,0.0,0.8299,0.8274,0.0,0.0,0.0,0.0,0.0,0.0,0.0,0.0,0.0,0.0,0.0,0.0,0.0,0.5033,0.5403,0.6219,0.6628,0.668,0.778,0.7694,0.6561,0.6561,0.6151,0.5424,0.4961,0.0,0.2404,0.1177,0.0,0.0,0.0,0.0,0.0,0.0,0.0,0.0,0.0,0.0,0.0,0.0,0.0,0.0,0.0,0.0,0.0,0.0,0.0,0.0,0.0,0.2532,0.256,0.2285,0.1841,0.1286,0.0645,0.0171,0.0,0.0,0.0522,0.0914,0.1296,0.2054,0.3142,0.4547,0.4909,0.4973,0.4728,0.4441,0.395,0.3124,0.1682,0.0265,-0.1068,-0.1972,0.0,0.0,0.0,0.0,0.0,0.0,0.0,0.0,0.0,0.0,0.0,0.0,0.0,0.0,0.0,0.0,0.0,0.0,0.0,0.0,0.0,0.0,0.0,0.0,0.0,0.0,0.0,0.0,0.0,0.0,0.0,0.0,0.0,0.0,0.0,0.0,0.0,0.0,0.0,0.9196,0.8867,0.8716,0.8216,0.8041,0.0,0.0,0.0,0.0,0.0,0.0,0.0,0.0,0.0,0.5847,0.5707,0.5776,0.6124,0.6868,0.7355,0.7553,0.8644,0.8742,0.7973,0.7973,0.7522,0.6745,0.6372,0.5671,0.4653,0.3118,0.271,0.2941,0.0,0.0,0.0,0.0,0.335,0.3543,0.0,0.0,0.0,0.0,0.0,0.0,0.0,0.0,0.0,0.0,0.0,0.0,0.4041,0.4546,0.4796,0.4553,0.3917,0.3216,0.2492,0.1728,0.1187,0.0967,0.1391,0.1645,0.1648,0.3055,0.4567,0.6188,0.6179,0.5979,0.5593,0.5344,0.4645,0.3627,0.2921,0.1664,0.0037,-0.1106,-0.1724,-0.1949,0.0,0.0,0.0,0.0,0.0,0.0,0.0,0.0,0.0,0.0,0.0,0.0,0.0,0.0,0.0,0.0,0.0,0.0,0.0,0.0,0.0,0.0,0.0,0.0,0.0,0.0,0.0,0.0,0.0,0.0,0.0,0.0,0.0,0.0,0.0,0.0,0.0,0.9901,0.9591,0.928,0.8577,0.8182,0.0,0.0,0.0,0.0,0.0,0.0,0.6196,0.6196,0.6327,0.666,0.6453,0.6514,0.6821,0.7436,0.7878,0.8133,0.9096,0.9434,0.9135,0.9135,0.8829,0.8265,0.7896,0.7481,0.6975,0.5108,0.427,0.4059,0.3621,0.3651,0.3921,0.3884,0.4158,0.4481,0.0,0.0,0.0,0.0,0.0,0.0,0.0,0.0,0.0,0.0,0.0,0.5856,0.6195,0.7006,0.7338,0.6868,0.604,0.5151,0.4234,0.3359,0.2781,0.2509,0.2511,0.2569,0.2632,0.4547,0.622,0.7502,0.7139,0.6793,0.6409,0.5389,0.4529,0.3768,0.3159,0.2386,0.1432,0.0499,-0.0412,-0.1187,-0.1642,0.0,0.0,0.0,0.0,0.0,0.0,0.0,0.0,0.0,0.0,0.0,0.0,0.0,0.0,0.0,0.0,0.0,0.0,0.0,0.0,0.0,0.0,0.0,0.0,0.0,0.0,0.0,0.0,0.0,0.0,0.0,0.0,0.0,0.0,0.0,0.0,0.0,0.0,0.9626,0.9028,0.0,0.0,0.0,0.0,0.734,0.6866,0.6485,0.6209,0.6196,0.638,0.6782,0.6768,0.6949,0.734,0.7886,0.8133,0.8109,0.9064,0.9597,0.9752,0.9752,0.9907,1.0145,0.9818,0.9424,0.887,0.6553,0.5333,0.4912,0.4483,0.4644,0.5109,0.4976,0.538,0.5968,0.0,0.0,0.0,0.0635,0.082,0.1159,0.1931,0.2757,0.3416,0.3787,0.5795,0.7304,0.7607,0.9262,1.0112,0.9509,0.9107,0.8286,0.6844,0.556,0.4596,0.4032,0.373,0.4102,0.5262,0.6273,0.7309,0.8302,0.7842,0.7413,0.6923,0.5977,0.5202,0.4545,0.4003,0.3573,0.3175,0.1564,0.0576,0.0,-0.0532,-0.1305,0.0,0.0,0.0,0.0,0.0,0.0,0.0,0.0,0.0,0.0,0.0,0.0,0.0,0.0,0.0,0.0,0.0,0.0,0.0,0.0,0.0,0.0,0.0,0.0,0.0,0.0,0.0,0.0,0.0,0.0,0.0,0.0,0.0,0.0,0.0,0.0,0.0,0.9787,0.8806,0.0,0.0,0.7506,0.6934,0.7347,0.6751,0.6303,0.6203,0.6196,0.6373,0.6796,0.6589,0.6678,0.7061,0.7358,0.771,0.8177,0.8778,0.9458,1.0196,1.0196,1.0358,1.0688,1.0739,1.0528,1.0125,0.9454,0.8312,0.6971,0.6611,0.6578,0.6712,0.6393,0.6617,0.6969,0.0,0.0,0.0,0.0788,0.0892,0.1223,0.2215,0.3021,0.3967,0.5159,0.744,0.9341,1.0285,1.2054,1.2896,1.2178,1.182,1.0785,0.8724,0.7397,0.6169,0.4943,0.4883,0.5803,0.781,0.8133,0.8613,0.9262,0.8765,0.8168,0.7399,0.66,0.5905,0.5262,0.4888,0.4649,0.4458,0.3007,0.2011,0.1304,0.0655,-0.0273,-0.1291,0.0,0.0,0.0,0.0,0.0,0.0,0.0,0.0,0.0,0.0,0.0,0.0,0.0,0.0,0.0,0.0,0.0,0.0,0.0,0.0,0.0,0.0,0.0,0.0,0.0,0.0,0.0,0.0,0.0,0.0,0.0,0.0,0.0,0.0,0.0,1.0225,0.9524,0.8692,0.814,0.8055,0.7194,0.6655,0.6818,0.6325,0.6001,0.59,0.5894,0.6131,0.667,0.6482,0.6618,0.7161,0.7254,0.7618,0.8238,0.8612,0.936,1.0383,1.0602,1.0936,1.1355,1.1622,1.1584,1.1351,1.148,1.0773,0.9527,0.8597,0.8267,0.8244,0.7739,0.7693,0.7723,0.0,0.0,0.018,0.0805,0.0892,0.1311,0.2524,0.3336,0.4844,0.7715,0.9894,1.2015,1.4292,1.5392,1.5652,1.4863,1.4039,1.246,0.9781,0.8811,0.7411,0.5303,0.6074,0.7696,1.009,1.0134,1.0244,1.0418,0.9858,0.9002,0.7849,0.7212,0.6546,0.5868,0.5837,0.5614,0.5204,0.4815,0.3946,0.2708,0.1878,0.0847,-0.0196,0.0,0.0,0.0,0.0,0.0,0.0,0.0,0.0,0.0,0.0,0.0,0.0,0.0,0.0,0.0,0.0,0.0,0.0,0.0,0.0,0.0,0.0,0.0,0.0,0.0,0.0,0.0,0.0,0.0,0.0,0.0,0.0,0.0,1.1094,1.1008,1.0504,0.905,0.8776,0.8198,0.698,0.6674,0.6339,0.5758,0.5705,0.5578,0.5329,0.5309,0.5672,0.6457,0.648,0.6889,0.7666,0.7695,0.7899,0.8319,0.8634,0.9322,1.0307,1.0964,1.16,1.219,1.2494,1.261,1.2614,1.2485,1.2539,1.2446,1.0399,0.9654,0.9705,0.9036,0.865,0.8291,0.0,0.0,0.0192,0.079,0.0892,0.1311,0.2524,0.3481,0.5076,0.7826,1.0598,1.313,1.521,1.6755,1.7332,1.6522,1.5752,1.4342,1.2041,1.0483,0.9107,0.783,0.9407,1.0614,1.1249,1.1219,1.1057,1.0771,0.9939,0.935,0.9013,0.8208,0.7607,0.715,0.6827,0.6468,0.6129,0.6014,0.5578,0.4786,0.3067,0.1715,0.0707,0.0,0.0,0.0,0.0,0.0,0.0,0.0,0.0,0.0,0.0,0.0,0.0,0.0,0.0,0.0,0.0,0.0,0.0,0.0,0.0,0.0,0.0,0.0,0.0,0.0,0.0,0.0,0.0,0.0,0.0,0.0,0.0,1.2138,1.1664,1.159,1.1302,1.0494,0.9397,0.8454,0.7873,0.6906,0.6156,0.5745,0.5518,0.5364,0.5316,0.5309,0.5522,0.6037,0.6336,0.676,0.7246,0.7569,0.7899,0.829,0.8393,0.8958,0.9945,1.0392,1.1042,1.1864,1.2546,1.2931,1.3125,1.3494,1.3662,1.3549,1.2142,1.1693,1.1753,1.1304,1.1124,1.0997,0.0,0.0,0.0181,0.0787,0.0893,0.1251,0.2337,0.3378,0.5284,0.8761,1.1295,1.3917,1.6817,1.795,1.8244,1.7579,1.6629,1.5057,1.2625,1.0818,1.014,1.0736,1.1748,1.2615,1.3271,1.2703,1.2153,1.1603,1.0641,0.9919,0.9408,0.8895,0.8496,0.8135,0.7866,0.7627,0.7443,0.7297,0.7043,0.6661,0.4946,0.3442,0.2233,0.1826,0.1142,0.0388,-0.006,-0.0543,-0.1012,-0.1428,0.0,0.0,0.0,0.0,0.0,0.0,0.0,0.0,0.0,0.0,0.0,0.0,0.0,0.0,0.0,0.0,0.0,0.0,0.0,0.0,0.0,0.0,0.0,0.0,1.2318,1.2389,1.2138,1.192,1.1505,1.0771,0.954,0.8536,0.8015,0.6926,0.6117,0.5809,0.5467,0.5309,0.5309,0.5309,0.5491,0.589,0.6305,0.6691,0.708,0.75,0.7812,0.8062,0.8233,0.875,0.96,1.0205,1.0991,0.0,1.2718,1.3244,1.3551,1.4028,1.4286,0.0,0.0,0.0,0.0,0.0,1.2315,1.2549,0.0,0.0,0.0167,0.0748,0.0891,0.1188,0.2024,0.3078,0.5368,0.9798,1.1672,1.4148,1.827,1.8644,1.8467,1.8087,1.6948,1.5133,1.2447,1.0887,1.115,1.3561,1.3498,1.4062,1.5435,1.4242,1.3277,1.2625,1.1653,1.0612,0.9549,0.9549,0.9365,0.9,0.9,0.9,0.8931,0.8541,0.8391,0.8314,0.7175,0.5687,0.4098,0.3237,0.2587,0.2021,0.117,0.0502,-0.0033,-0.0881,0.0,0.0,0.0,0.0,0.0,0.0,0.0,0.0,0.0,0.0,0.0,0.0,0.0,0.0,0.0,0.0,0.0,0.0,0.0,0.0,0.0,0.0,0.0,0.0,1.2603,1.2673,1.2673,1.2234,1.1498,1.0338,0.9451,0.8557,0.7719,0.6857,0.6266,0.5998,0.5641,0.5404,0.5372,0.0,0.0,0.0,0.0,0.6691,0.708,0.75,0.7695,0.7695,0.8062,0.8584,0.9271,1.0141,1.1085,1.2041,1.2862,1.3424,1.3811,1.4235,1.4523,1.4654,1.4217,1.3856,1.3486,1.266,1.2877,1.3461,0.0,0.0,0.0119,0.0444,0.0823,0.1255,0.18,0.289,0.4938,0.8512,1.032,1.2757,1.6649,1.7329,1.7574,1.7778,1.7058,1.5839,1.4047,1.4077,1.431,1.4627,1.5558,1.5842,1.5352,1.4504,1.3637,1.2765,1.191,1.1394,1.116,1.116,1.0865,1.0323,1.0323,1.0177,0.9918,0.9615,0.9603,0.973,0.8975,0.7555,0.5801,0.467,0.375,0.2928,0.2077,0.1227,0.0474,-0.0074,-0.0822,-0.1581,-0.1662,-0.2305,0.0,0.0,0.0,0.0,0.0,0.0,0.0,0.0,0.0,0.0,0.0,0.0,0.0,0.0,0.0,0.0,0.0,0.0,0.0,1.2425,1.316,1.3622,1.3622,1.3166,1.2224,1.0566,0.983,0.9014,0.7867,0.7173,0.6674,0.639,0.6305,0.6129,0.5797,0.5797,0.0,0.5882,0.6305,0.6691,0.708,0.75,0.7695,0.7695,0.0,0.0,0.8915,0.9365,1.0266,1.1505,1.2238,1.2957,1.3616,1.4281,1.4365,1.4139,1.466,1.4823,1.4745,1.4561,1.4628,1.4614,0.0,0.0,0.0095,0.0356,0.0587,0.0976,0.1598,0.2442,0.411,0.719,0.8772,1.0698,1.3569,1.4347,1.4682,1.4743,1.4782,1.4759,1.4658,1.5312,1.6004,1.6713,1.7204,1.7127,1.6374,1.5336,1.4467,1.3762,1.2832,1.2351,1.2237,1.2237,1.1999,1.1541,1.1541,1.1427,1.1197,1.1045,1.111,1.1255,1.0755,1.0035,0.9008,0.684,0.5808,0.5398,0.4219,0.3375,0.2765,0.2089,0.144,0.0835,0.0416,-0.0069,-0.0682,0.0,0.0,0.0,0.0,0.0,0.0,0.0,0.0,0.0,0.0,0.0,0.0,0.0,0.0,1.1094,0.0,0.0,1.296,1.3429,1.3881,1.4224,1.4414,1.4053,1.3156,1.1543,1.0507,0.9597,0.8745,0.7983,0.7421,0.7127,0.6883,0.6584,0.6213,0.6183,0.6183,0.6183,0.6601,0.6901,0.708,0.75,0.7695,0.7695,0.7695,0.808,0.8816,0.915,1.0032,1.1328,1.2064,1.2855,1.363,1.4036,1.3826,1.3293,1.3685,1.3828,1.3859,1.4328,1.4193,1.3735,0.0,0.0,0.0066,0.0285,0.047,0.0796,0.1405,0.2081,0.3329,0.5714,0.6997,0.8409,1.0251,1.1051,1.1485,1.1624,1.2606,1.3766,1.5066,1.6044,1.7223,1.8699,1.8422,1.7944,1.7307,1.6221,1.5332,1.4682,1.3843,1.333,1.3179,1.3179,1.2991,1.2689,1.2709,1.2652,1.2557,1.2488,1.2556,1.2677,1.2321,1.2238,1.1988,0.9165,0.811,0.7945,0.6597,0.5788,0.5254,0.4698,0.4205,0.3721,0.301,0.2637,0.2258,0.1223,0.0587,0.0,0.0,0.0,0.0,0.0,0.0,0.0,0.0,0.0,0.9435,1.0036,1.1255,1.2384,1.304,1.3513,1.391,1.4259,1.4249,1.4351,1.4703,1.4502,1.3887,1.2703,1.1357,1.0312,0.9713,0.8957,0.8364,0.8039,0.7646,0.7231,0.6751,0.6721,0.6691,0.6601,0.6931,0.7148,0.7207,0.7618,0.7783,0.7695,0.7831,0.8213,0.8816,0.9162,0.9943,1.1066,1.1777,1.2606,1.3427,1.3454,1.3006,1.2323,1.2519,1.2373,1.2155,1.3242,1.3163,1.2498,0.0,0.0,0.0,0.0033,0.0698,0.1203,0.1163,0.2112,0.3111,0.3832,0.4938,0.6184,0.7665,0.8523,0.955,1.0957,1.3071,1.4794,1.5892,1.7436,1.8609,1.9281,1.8933,1.8179,1.6971,1.67,1.591,1.4607,1.4382,1.4231,1.4144,1.4144,1.4004,1.3723,1.3782,1.3812,1.3775,1.3538,1.3592,1.3802,1.3392,1.3128,1.2803,1.1211,1.0026,0.9114,0.8281,0.7401,0.6687,0.7245,0.6996,0.6429,0.61,0.5592,0.4965,0.3892,0.0,0.3388,0.2957,0.0,0.0,0.593,0.6737,0.7332,0.0,0.0,0.8931,0.9826,1.0958,1.2101,1.3263,1.3401,1.3432,1.358,1.361,1.367,1.389,1.399,1.3919,1.3584,1.225,1.103,1.0196,0.9818,0.9485,0.9153,0.9062,0.8612,0.7618,0.7569,0.7413,0.7059,0.708,0.7275,0.7627,0.8033,0.8062,0.7695,0.8354,0.8706,0.8816,0.9197,0.9641,1.0086,1.0712,1.154,1.2449,1.2345,1.1888,1.1362,1.2253,1.1698,1.0559,1.217,1.2637,1.2425,0.0,0.0,0.0,0.0,0.0537,0.0998,0.1198,0.1644,0.2122,0.2605,0.309,0.3612,0.4196,0.5361,0.6739,0.8295,1.1487,1.3871,1.504,1.7669,1.9324,1.9626,1.9008,1.8228,1.7214,1.6668,1.5879,1.4775,1.4718,1.4685,1.4645,1.4645,1.454,1.4364,1.4389,1.4354,1.427,1.4058,1.3967,1.3977,1.373,1.3289,1.2659,1.1744,1.1222,1.0852,1.0009,0.957,0.0,1.0147,1.0042,0.9567,0.9097,0.8446,0.7737,0.7148,0.6384,0.0,0.4907,0.0,0.0,0.0,0.594,0.6247,0.7228,0.8239,0.9315,1.0401,1.1862,1.3166,1.3926,1.4125,1.4125,0.0,1.3927,1.3922,1.4026,1.4047,1.4067,1.4157,1.2967,1.1894,1.1249,1.0731,1.0269,0.9869,0.969,0.9218,0.8389,0.8145,0.7984,0.7801,0.7579,0.7647,0.8033,0.8205,0.8308,0.8354,0.8651,0.8926,0.9143,0.8971,0.9146,0.9651,1.0333,1.0741,1.0977,1.1075,1.0758,1.0283,1.0822,1.0658,1.0254,1.1468,1.1567,1.1065,0.0,0.0,0.0034,0.0168,0.0571,0.0973,0.1273,0.142,0.1578,0.1792,0.1785,0.1808,0.1936,0.3158,0.4572,0.6088,0.9738,1.2644,1.419,1.7374,1.9401,1.9915,1.9107,1.8291,1.7528,1.6717,1.5862,1.4961,1.497,1.4901,1.4825,1.4825,1.4743,1.4589,1.4586,1.4503,1.4345,1.4208,1.3995,1.3729,1.3518,1.2902,1.2067,1.1453,1.1482,1.1776,1.1264,1.1276,1.1617,1.2265,1.2255,1.1878,1.1282,1.0678,1.0117,0.9657,0.8602,0.7416,0.6747,0.0,0.0,0.6035,0.5514,0.5521,0.682,0.8113,0.9379,1.055,1.2273,1.3749,1.4274,1.4529,0.0,1.3962,1.3821,1.3712,1.3482,1.3436,1.3518,1.37,1.2836,1.2084,1.1789,1.1307,1.0865,1.0545,1.0256,0.9805,0.912,0.8761,0.8561,0.8449,0.8166,0.8138,0.8449,0.8561,0.8662,0.8789,0.8859,0.9013,0.9235,0.8715,0.8806,0.942,0.9702,0.9837,0.9844,0.9921,0.9762,0.9522,0.9755,0.9927,1.013,1.0819,1.0672,1.0135,0.0,0.0,0.0134,0.0605,0.1007,0.1271,0.1305,0.1692,0.1815,0.1378,0.1211,0.1302,0.176,0.2596,0.3698,0.5108,0.8386,1.1416,1.386,1.6614,1.8791,2.0225,1.9333,1.8473,1.7801,1.7004,1.6092,1.509,1.5086,1.4924,1.4617,1.4617,1.4494,1.4316,1.4305,1.4202,1.4003,1.4007,1.3666,1.309,1.2623,1.1955,1.1141,1.0359,1.0542,1.1292,1.1865,1.2075,1.2216,1.3157,1.3233,1.2853,1.2251,1.2034,0.0,1.0839,0.9848,0.8931,0.0,0.0,0.7587,0.6447,0.6026,0.5873,0.5951,0.7198,0.8666,0.9791,1.1633,1.3227,1.3876,1.4234,1.405,1.2931,1.2767,1.2474,1.1681,1.1688,1.1776,1.1773,1.1459,1.1292,0.0,1.1351,1.1273,1.1273,1.1024,1.0543,0.9818,0.953,0.9182,0.8789,0.8761,0.8761,0.8789,0.9182,0.9182,0.8816,0.8996,0.9042,0.8909,0.8555,0.8777,0.9356,0.853,0.8651,0.9391,0.9009,0.8995,0.9233,0.9574,0.9793,0.9939,1.0148,1.0211,1.0195,0.0,0.0,0.0142,0.0603,0.1027,0.1398,0.172,0.1648,0.1475,0.1325,0.1169,0.0,0.0,0.0,0.0,0.0,0.7299,0.9855,1.1946,1.497,1.7069,1.7878,1.7977,1.7644,1.6881,1.6033,1.544,1.5091,1.4871,1.4655,1.4468,1.4148,1.391,1.3754,1.3627,1.352,1.3447,1.3335,1.2789,1.2013,1.1718,1.0624,0.9175,0.947,0.9703,0.9965,0.0,1.1388,1.1933,1.2943,1.274,0.0,1.2673,0.0,0.0,1.0522,1.0262,1.0003,0.8849,0.0,0.7437,0.5861,0.5233,0.4991,0.481,0.671,0.8751,0.9625,1.2323,1.4674,1.5163,1.5228,1.4785,1.3567,1.2694,1.1908,1.115,1.124,1.1347,1.1304,1.1051,0.0,0.0,0.0,0.0,1.0954,1.0736,1.0347,0.9893,0.9569,0.9343,0.9209,0.8926,0.8926,0.9209,0.9316,0.9449,0.9516,0.9376,0.8965,0.8359,0.8382,0.8328,0.8195,0.8035,0.8261,0.8722,0.8594,0.8829,0.9295,0.949,0.9699,0.9922,1.0128,1.0205,1.02,0.0,0.0187,0.0486,0.0935,0.1361,0.0,0.0,0.0,0.0,0.0,0.0,0.0,0.0,0.0,0.0,0.0,0.0,0.8241,1.0049,1.2627,1.4567,1.5692,1.5743,1.5708,1.5659,1.4653,1.4276,1.4554,1.4346,1.426,1.4301,1.394,1.3663,1.3456,1.3344,1.316,1.2954,1.2595,1.1779,1.0651,1.0085,0.9045,0.7891,0.8856,0.9454,0.0,1.072,1.1388,1.1938,1.2414,0.0,0.0,0.0,0.0,1.0889,1.0606,1.0561,1.0378,0.9494,0.8623,0.7539,0.5797,0.4721,0.4017,0.3788,0.5916,0.8198,0.9139,1.2525,1.5367,1.5616,1.5607,1.5259,1.4374,1.3085,1.2,1.1445,1.1166,1.0823,1.0334,0.9994,0.0,0.0,0.0,0.0,1.039,1.017,0.9983,0.9868,0.9569,0.9502,0.9751,0.9504,0.9557,0.9932,0.9932,0.9842,0.9613,0.9227,0.8648,0.7932,0.8132,0.8059,0.7782,0.7912,0.8187,0.8543,0.8543,0.8829,0.9313,0.9497,0.9678,0.9849,1.0073,1.0187,1.0194,0.0,0.0472,0.102,0.0,0.0,0.0,0.0,0.0,0.0,0.0,0.0,0.0,0.0,0.0,0.0,0.0,0.0,0.0,0.8242,0.9677,1.1443,1.3622,1.2811,1.287,1.4048,1.2904,1.2653,1.3422,1.3436,1.3629,1.3968,1.3818,1.3602,1.3324,1.3275,1.2991,1.2528,1.1889,1.0699,0.9151,0.7988,0.7406,0.7314,0.8423,0.967,1.0902,1.1554,1.2,0.0,0.0,0.0,0.0,0.0,0.0,0.0,1.1144,1.0759,1.0205,1.0153,0.9185,0.7853,0.6265,0.4495,0.306,0.2756,0.4781,0.7061,0.8274,1.2178,1.5355,0.0,0.0,1.5496,1.5215,1.3803,1.2609,1.2331,1.1378,1.0223,0.0,0.0,0.0,0.0,0.0,0.0,0.9487,0.0,0.9365,0.9728,0.9492,0.9699,1.0371,1.0396,1.0556,1.0897,1.0897,1.0275,0.9066,0.8649,0.8159,0.762,0.7812,0.7983,0.8115,0.8115,0.8386,0.8812,0.8807,0.9005,0.935,0.9599,0.9705,0.9744,1.0019,1.0134,1.0191,0.0,0.0,0.0,0.0,0.0,0.0,0.0,0.0,0.0,0.0,0.0,0.0,0.0,0.0,0.0,0.0,0.0,0.0,0.6266,0.7758,0.9032,1.0007,1.0789,1.1174,1.1109,1.0788,1.0717,1.0924,1.1272,1.1717,1.2238,1.19,1.1993,1.2392,1.1647,1.1627,1.2123,1.1801,1.0521,0.8668,0.8207,0.7601,0.7083,0.7961,0.9435,1.1094,1.1602,1.1852,0.0,0.0,0.0,0.0,0.0,0.0,1.1813,0.0,0.0,1.0217,0.9337,0.8831,0.8035,0.5789,0.4362,0.2935,0.0611,0.3635,0.679,0.6349,1.1714,1.6482,0.0,0.0,0.0,1.5043,1.3659,0.0,1.1078,1.0663,0.0,0.8937,0.0,0.7991,0.7472,0.6922,0.0,0.0,0.7779,0.8314,0.9031,0.8989,0.9401,1.0371,1.0396,1.0556,1.0897,1.0897,1.012,0.8578,0.8966,0.8731,0.798,0.8022,0.8147,0.8335,0.8431,0.8653,0.8957,0.8997,0.9242,0.9607,0.9732,0.9868,1.0019,1.0133,1.0154,1.0132,0.0,0.0,0.0,0.0,0.0,0.0,0.0,0.0,0.0,0.0,0.0,0.0,0.0,0.0,0.0,0.0,0.0,0.0,0.0,0.5809,0.671,0.7485,0.8066,0.8568,0.8927,0.8399,0.8428,0.9028,0.9096,0.948,1.0135,0.9797,0.982,1.0109,0.9534,0.9504,0.9862,0.9466,0.8267,0.0,0.0,0.5947,0.6132,0.7469,0.927,1.1247,1.2405,0.0,0.0,0.0,0.0,1.4953,1.4122,1.3427,1.2826,1.228,0.0,1.0712,1.0017,0.9306,0.8243,0.6123,0.4404,0.2712,0.074,0.3918,0.7289,0.7221,1.271,0.0,0.0,0.0,0.0,0.0,0.0,0.0,1.1808,1.1131,1.0263,0.0,0.8452,0.0,0.7168,0.657,0.6244,0.0,0.6794,0.7463,0.8273,0.8469,0.91,1.0333,1.0637,1.1061,1.1637,1.1355,1.0738,0.9805,0.9559,0.9188,0.8706,0.8443,0.8415,0.8591,0.0,0.8957,0.926,0.9305,0.9507,0.9799,0.9853,0.9979,1.0097,1.0117,1.0084,1.0032,0.0,0.0,0.0,0.0,0.0,0.0,0.0,0.0,0.0,0.0102,0.0,0.0263,0.0,0.0,0.0,0.0,0.0,0.0,0.0,0.0,0.4886,0.5802,0.5447,0.584,0.714,0.0,0.0,0.0,0.0,0.7151,0.7863,0.7655,0.7472,0.7364,0.7256,0.7148,0.6998,0.6393,0.5364,0.4073,0.334,0.3746,0.5017,0.0,0.0,0.0,0.0,0.0,0.0,0.0,1.7022,1.5969,1.5637,1.4755,1.3865,1.3767,1.2633,1.1395,1.1245,1.0085,0.853,0.6937,0.4776,0.2871,0.2324,0.5125,0.816,0.9292,0.0,0.0,1.6907,0.0,1.7818,1.7599,0.0,1.4062,1.3311,1.2052,1.0623,0.9042,0.8479,0.7905,0.7168,0.6366,0.5913,0.5913,0.6183,0.6691,0.7492,0.7848,0.8754,1.0305,1.0996,1.1719,1.2504,1.199,1.1654,1.1496,1.022,0.9606,0.9549,0.892,0.8716,0.8878,0.0,0.0,0.9621,0.9658,0.9769,0.9923,0.9999,1.0051,1.0085,1.0026,0.998,0.991,0.0,0.0,0.0,0.0,0.0,0.0,0.0,0.0,0.0,0.0,-0.0069,0.02,0.0,0.0,0.0,0.0,0.0,0.0,0.0,0.0,0.0,0.5001,0.4922,0.4884,0.0,0.0,0.0,0.0,0.0,0.0,0.5661,0.5669,0.5814,0.6074,0.5412,0.5527,0.6201,0.5966,0.4854,0.3225,0.3242,0.3908,0.5029,0.6322,0.0,0.0,0.0,0.0,0.0,0.0,1.837,1.8126,1.7465,1.6343,1.5083,1.4199,1.2993,1.1798,1.1003,1.0186,0.9177,0.7684,0.6214,0.5011,0.4409,0.6519,0.0,0.0,0.0,1.6913,1.6933,1.8042,1.8586,1.7524,0.0,0.0,0.0,0.0,1.0777,0.0,0.0,0.0,0.0,0.0,0.0,0.0,0.0,0.5844,0.6589,0.6996,0.8257,1.0576,1.1285,1.1763,1.2025,1.2288,1.195,1.1013,1.0556,1.0178,0.9895,0.9121,0.8938,0.922,0.9411,0.0,0.971,0.9933,1.0033,1.0079,1.0131,1.0136,1.0097,1.0016,0.9859,0.9669,0.0,0.0,0.0,0.0,0.0,0.0,0.0,0.1852,0.0884,-0.0269,-0.0497,-0.0297,0.0455,0.1382,0.2605,0.0,0.0,0.0,0.0,0.0,0.0,0.0,0.0,0.0,0.0,0.0,0.0,0.0,0.0,0.0,0.0,0.0,0.0,0.0,0.0,0.0,0.0,0.3274,0.2521,0.1347,0.0,0.0,0.0,0.0,0.0,0.0,0.0,0.0,0.0,0.0,1.902,1.9335,1.8767,1.7518,1.612,1.5314,1.4023,1.2677,1.1936,1.1198,1.0338,0.9145,0.7712,0.6745,0.7411,0.0,0.0,0.0,0.0,1.735,1.6967,1.8335,0.0,0.0,0.0,0.0,0.0,0.0,0.0,0.0,0.0,0.0,0.0,0.0,0.0,0.0,0.0,0.0,0.6129,0.7232,0.8802,1.0846,1.1555,1.2186,1.2784,1.3009,1.2906,1.2462,1.1952,1.1384,1.0812,1.0107,0.9659,0.9454,0.9632,0.0,0.9914,1.0017,1.0096,1.0149,1.0114,1.0102,1.007,0.9858,0.9706,0.9563,0.0,0.0,0.0,0.0,0.0,0.0,0.0,0.1983,0.0811,-0.0586,-0.1207,-0.1137,-0.0076,0.1076,0.2531,0.0,0.0,0.0,0.0,0.0,0.0,0.0,0.0,0.0,0.0,0.0,0.0,0.0,0.0,0.0,0.0,0.0,0.0,0.0,0.0,0.0,0.0,0.0,0.0,0.0,0.0,0.0,0.0,0.0,0.0,0.0,0.0,0.0,0.0,0.0,1.9427,1.9782,1.9647,1.8497,1.7075,1.6479,1.5184,1.3771,1.3108,1.2371,1.1609,1.0801,0.9432,0.8808,1.0791,1.1321,0.0,0.0,0.0,1.7812,1.725,0.0,1.9517,0.0,0.0,0.0,0.0,0.0,0.0,0.0,0.0,0.0,0.0,0.0,0.0,0.0,0.0,0.0,0.5913,0.7454,0.9079,1.0722,1.1602,1.2542,1.3567,1.363,1.378,1.3989,1.3221,1.2448,1.1689,1.1056,1.0363,0.9666,0.9812,0.0,0.0,1.0044,1.0102,1.0172,1.0059,1.0017,0.9977,0.9696,0.9552,0.9428,0.0,0.0,0.0,0.0,0.0,0.0,0.0,0.1656,0.0682,-0.1015,-0.2211,-0.2479,-0.1276,0.0708,0.2642,0.0,0.0,0.0,0.0,0.0,0.0,0.0,0.0,0.0,0.0,0.0,0.0,0.0,0.0,0.0,0.0,0.0,0.0,0.0,0.0,0.0,0.0,0.0,0.0,0.0,0.0,0.0,0.0,0.0,0.0,0.0,0.0,0.0,0.0,0.0,0.0,1.9302,1.9999,1.9277,1.8012,1.7169,0.0,0.0,1.392,1.3191,1.2671,1.2286,1.1705,1.1851,1.4343,0.0,0.0,1.7169,1.7417,1.728,1.8112,1.9113,0.0,0.0,0.0,1.8132,0.0,0.0,0.0,0.0,0.0,0.0,0.0,0.0,0.0,0.0,0.0,0.0,0.0,0.6695,0.7925,0.9591,1.1133,1.2429,1.3496,1.3745,1.4029,1.4336,1.3411,1.2665,1.2021,1.1299,1.0567,0.9881,1.0001,0.0,0.0,1.0126,1.0153,1.0118,1.0103,0.9944,0.9718,0.9644,0.9411,0.9119,0.0,0.0,0.0,0.0,0.0,0.0,0.2487,0.1895,0.0739,-0.1341,-0.2175,-0.2475,-0.2295,-0.0279,0.2076,0.4701,0.0,0.0,0.0,0.0,0.0,0.0,0.0,0.0,0.0,0.0,0.0,0.0,0.0,0.0,0.0,0.0,0.0,0.0,0.0,0.0,0.0,0.0,0.0,0.0,0.0,0.0,0.0,0.0,0.0,0.0,0.0,0.0,0.0,0.0,0.0,0.0,1.9491,1.9482,0.0,0.0,1.7092,1.581,1.5338,1.4489,1.3739,1.3721,1.3502,1.3786,1.5753,0.0,0.0,1.6726,1.6656,1.6491,1.7349,1.7997,1.8774,1.9846,1.9267,1.8466,1.7851,0.0,0.0,0.0,0.0,0.0,0.0,0.0,0.0,0.0,0.0,0.0,0.0,0.6966,0.8032,0.9467,1.0942,1.2294,1.3496,1.3853,1.4204,1.4569,1.4289,1.3766,1.3031,1.2256,1.1503,1.0779,1.0305,0.0,0.0,1.0175,1.0163,1.0088,1.0004,0.9837,0.9618,0.9471,0.9202,0.8913,0.0,0.0,0.0,0.0,0.0,0.3101,0.2478,0.1936,0.0814,-0.1297,-0.1929,-0.2239,-0.2334,-0.0839,0.1473,0.466,0.5866,0.0,0.0,0.0,0.0,0.0,0.0,0.0,0.0,0.0,0.0,0.3831,0.0,0.0,0.0,0.0,0.0,0.0,0.0,0.0,0.0,0.0,0.0,0.0,0.0,0.0,0.0,0.0,0.0,0.0,0.0,0.0,0.0,0.0,0.0,0.0,0.0,1.958,2.0094,0.0,1.8088,1.7023,1.6694,1.5798,1.505,1.5399,1.5194,1.5301,0.0,0.0,0.0,1.7001,1.6875,1.6797,1.7559,1.8004,1.8646,1.99,1.9613,1.9097,1.8703,1.7748,1.6244,0.0,0.0,0.0,0.0,0.0,0.0,0.0,0.0,0.0,0.0,0.7317,0.8278,0.9378,1.0889,1.224,1.3426,1.3956,1.4423,1.4811,1.4908,1.4552,1.3759,1.2931,1.2134,1.1345,0.0,0.0,0.0,1.0285,1.0289,1.041,0.9974,0.9661,0.9417,0.9221,0.8911,0.8616,0.0,0.0,0.0,0.0,0.0,0.0,0.1772,0.1615,0.0925,-0.0892,-0.1739,-0.1947,-0.1219,-0.0688,0.0879,0.4013,0.6056,0.0,0.0,0.0,0.0,0.0,0.0,0.0,0.0,0.0,0.5251,0.4389,0.3521,0.2666,0.0,0.0,0.0,0.0,0.0,0.0,0.0,0.0,0.0,0.0,0.0,0.0,0.0,0.0,0.0,0.0,0.0,0.0,0.0,0.0,0.0,0.0,0.0,1.9656,2.0073,1.9387,1.9188,1.8942,1.7869,1.7045,1.6651,1.7381,1.682,1.6455,0.0,0.0,0.0,1.8669,1.8658,1.8615,1.9428,1.9794,1.9992,2.0092,2.0196,2.027,2.0178,1.9488,0.0,0.0,0.0,0.0,0.0,0.0,0.0,0.0,0.0,0.0,0.0,0.7579,0.8497,0.9181,1.0972,1.2364,1.3288,1.4107,1.4707,1.5093,1.5094,1.4712,1.3978,1.3105,1.2226,0.0,0.0,0.0,0.0,1.0488,1.0572,1.1188,1.0037,0.939,0.9087,0.8876,0.8506,0.8154,0.0,0.0,0.0,0.0,0.0,0.0,0.0,0.1984,0.1205,-0.0293,-0.0687,-0.0743,-0.0509,0.0447,0.185,0.3804,0.5546,0.0,0.0,0.0,0.0,0.0,0.0,0.0,0.0,0.0,0.678,0.5821,0.4599,0.3437,0.2369,0.0768,0.0,0.0,0.0,0.0,0.0,0.0,0.0,0.0,0.0,0.0,0.0,0.0,0.0,0.0,0.0,0.0,0.0,0.0,0.0,0.0,0.0,0.0,0.0,1.9871,1.9556,1.9059,1.8729,1.8013,1.7426,1.756,1.7884,1.8163,1.8192,0.0,0.0,1.7996,1.7512,1.7335,1.831,1.831,1.8724,2.0489,2.0287,2.0113,0.0,0.0,0.0,0.0,0.0,0.0,0.0,0.0,0.0,0.0,0.0,0.0,0.0,0.8305,0.8678,0.8859,1.0713,1.2116,1.3018,1.3914,1.4562,1.4958,1.5068,1.4935,1.4595,1.3755,0.0,0.0,0.0,0.0,0.0,1.1433,1.1448,1.1397,1.0887,1.0457,1.0084,0.98,0.9453,0.9161,0.0,0.0,0.0,0.0,0.0,0.0,0.0,0.2393,0.175,0.0708,0.0568,0.0577,0.055,0.1286,0.2362,0.3692,0.4943,0.0,0.0,0.0,0.0,0.0,0.0,0.0,0.736,0.7978,0.7986,0.7284,0.5583,0.4243,0.3199,0.0898,-0.0082,-0.0039,-0.0812,0.0,0.0,0.0,0.0,0.0,0.0,0.0,0.721,0.0,0.0,0.0,0.0,0.0,0.0,0.0,0.0,0.0,0.0,0.0,0.0,0.0,1.9555,1.9488,1.9565,1.8947,1.8338,1.8557,1.8798,0.0,0.0,0.0,1.7904,1.7417,1.6976,1.6919,1.7745,1.7894,1.8466,2.0167,2.0306,2.0348,0.0,0.0,0.0,0.0,0.0,0.0,0.0,0.0,0.0,0.0,0.0,0.0,0.0,0.0,0.9115,0.9375,1.0917,1.2221,1.3295,1.4016,1.4544,1.4899,1.4987,1.4945,1.4749,1.401,0.0,0.0,0.0,0.0,0.0,1.1814,1.1683,1.152,1.0993,1.0519,1.0075,0.9851,0.9438,0.9034,0.0,0.0,0.0,0.0,0.0,0.0,0.0,0.2718,0.2501,0.1937,0.1842,0.1869,0.1887,0.1941,0.2413,0.3639,0.0,0.0,0.0,0.0,0.0,0.0,0.0,0.0,0.7768,0.8469,0.8767,0.8552,0.6569,0.5069,0.4002,0.1117,-0.0174,-0.0042,-0.1073,-0.1248,0.0,0.0,0.0,0.0,0.0,0.695,0.0,0.0,0.0,0.0,0.0,0.0,0.0,0.0,0.0,0.0,0.0,0.0,0.0,0.0,0.0,0.0,0.0,1.976,1.9371,2.0084,1.9563,1.8873,1.8915,1.8456,0.0,1.7053,1.6963,1.7185,1.7693,1.836,1.8996,1.9472,2.038,2.0877,0.0,2.038,0.0,0.0,0.0,0.0,0.0,0.0,0.0,0.0,0.0,0.0,0.0,0.0,0.9755,1.057,1.1514,1.264,1.3967,1.4335,1.4648,1.4895,1.4883,1.4779,1.4549,1.3931,0.0,0.0,0.0,0.0,0.0,1.1777,1.1472,1.1613,1.0591,0.9874,0.9403,0.9306,0.8818,0.8242,0.0,0.0,0.0,0.0,0.0,0.0,0.0,0.0,0.0,0.0,0.2488,0.2497,0.2475,0.3077,0.3383,0.0,0.0,0.0,0.0,0.0,0.0,0.0,0.0,0.0,0.7526,0.869,0.8904,0.8054,0.7496,0.599,0.3609,0.2031,0.0823,-0.0042,-0.0738,-0.0916,0.0,0.0,0.0,0.0,0.6138,0.823,0.0,0.0,0.0,0.0,1.0514,1.0466,0.0,0.0,0.0,0.0,0.0,0.0,0.0,0.0,1.8317,1.8813,1.9291,0.0,1.9991,1.9932,1.9697,1.9283,0.0,1.7681,1.706,1.6865,1.6508,1.6724,1.8255,1.8399,1.8855,2.0572,2.1115,2.1243,2.1097,0.0,0.0,0.0,0.0,0.0,0.0,0.0,0.0,0.0,0.0,0.0,0.0,0.0,1.0748,1.1617,1.2523,1.3219,1.3773,1.4302,1.4686,1.4898,1.4687,1.4489,1.4301,1.4131,0.0,0.0,0.0,0.0,1.2601,1.2476,1.222,1.187,1.1262,1.0829,1.0495,1.022,0.9986,0.9784,0.0,0.0,0.0,0.0,0.0,0.0,0.0,0.0,0.0,0.0,0.0,0.3208,0.3466,0.3497,0.0,0.0,0.0,0.0,0.0,0.0,0.0,0.0,0.0,0.8538,0.7771,0.8911,0.9206,0.8553,0.7603,0.6125,0.4135,0.2029,0.0669,0.0,-0.0339,-0.0456,0.0,0.0,0.0,0.0,0.7461,0.0,0.0,0.0,0.0,0.0,1.0895,1.0809,0.0,1.1931,1.2493,1.2813,0.0,0.0,0.0,0.0,1.7512,1.8177,1.8875,1.9453,1.9821,1.9543,1.9277,1.8831,1.8006,1.7117,1.6387,1.6269,1.6037,1.6219,1.7592,1.7884,1.8523,2.0303,2.0749,0.0,0.0,0.0,1.945,0.0,0.0,0.0,0.0,0.0,0.0,0.0,0.0,0.0,0.0,0.0,1.1829,1.2714,1.3428,1.3923,1.4192,1.4442,1.4573,1.4631,1.4344,1.4124,1.3927,1.4024,1.3716,0.0,0.0,0.0,1.2274,1.2293,1.1902,1.1233,1.0987,1.0602,1.0185,1.0008,0.9739,0.9387,0.0,0.0,0.0,0.0,0.0,0.0,0.0,0.0,0.0,0.0,0.0,0.0,0.0,0.0,0.0,0.0,0.0,0.0,0.0,0.0,0.0,0.0,0.0,0.8823,0.829,0.9072,0.9357,0.9086,0.7379,0.5868,0.4566,0.175,0.0229,-0.0135,-0.0044,0.0043,0.0,0.0,0.0,0.6208,0.8728,0.0,0.0,0.0,0.0,0.0,0.0,0.0,0.0,1.244,1.2868,1.2936,1.3373,0.0,0.0,0.0,0.0,0.0,1.8703,1.9213,1.9364,1.9056,1.8612,1.8082,1.751,1.6621,1.589,1.5747,1.5649,1.5874,1.6857,1.7482,1.8344,0.0,0.0,0.0,2.1189,2.091,2.045,0.0,0.0,0.0,0.0,0.0,0.0,0.0,0.0,0.0,0.0,0.0,0.0,1.3696,1.4205,1.4603,1.4853,1.4669,1.4506,1.4391,1.4057,1.381,1.3646,1.3751,1.3656,0.0,0.0,0.0,1.1943,1.1734,1.1148,1.0396,1.0322,0.9957,0.9408,0.9408,0.8965,0.8365,0.0,0.0,0.0,0.0,0.0,0.0,0.0,0.0,0.0,0.0,0.0,0.0,0.0,0.0,0.0,0.0,0.0,0.0,0.0,0.0,0.0,1.0003,0.9635,0.9191,0.8633,0.9204,0.9024,0.8112,0.7761,0.5981,0.295,0.1991,0.0712,-0.0717,-0.0231,0.0328,0.1075,0.302,0.4932,0.6933,0.0,0.0,0.0,0.0,0.0,0.0,0.0,0.0,0.0,1.1607,1.1826,1.181,1.1735,0.0,0.0,0.0,0.0,0.0,1.8474,1.9281,1.9453,1.8644,1.8181,1.7752,1.7001,1.6233,1.5775,1.6117,1.5877,1.6207,1.8128,1.8616,1.9245,0.0,0.0,0.0,0.0,0.0,0.0,0.0,0.0,0.0,0.0,0.0,0.0,0.0,0.0,0.0,0.0,0.0,0.0,1.4264,1.4639,1.4925,1.5134,1.4932,1.4837,1.4793,1.4179,1.3867,1.3838,1.3539,1.3278,0.0,0.0,1.2514,1.1713,1.1483,1.0978,1.0371,1.0097,0.9738,0.9408,0.9408,0.9128,0.8584,0.0,0.0,0.0,0.0,0.0,0.0,0.0,0.0,0.0,0.0,0.0,0.0,0.0,0.0,0.0,0.0,0.0,0.0,0.0,0.0,0.0,1.1103,1.1952,1.1587,0.9934,1.0439,1.0196,0.9015,0.8653,0.6893,0.3852,0.1796,0.0364,-0.0402,0.028,0.0952,0.1712,0.3322,0.5053,0.6892,0.0,0.0,0.0,0.0,0.0,0.0,0.0,0.0,0.0,0.0,1.2541,1.2653,1.2197,0.0,0.0,0.0,0.0,0.0,1.827,1.8936,1.9061,1.8891,1.881,1.8665,1.8297,1.7377,1.6846,1.7839,1.7535,1.7555,1.891,0.0,2.0202,2.0717,0.0,0.0,0.0,0.0,0.0,0.0,0.0,0.0,0.0,0.0,0.0,0.0,0.0,0.0,0.0,0.0,0.0,0.0,1.5046,1.5192,1.5257,1.5096,1.4922,1.4729,1.4051,1.3676,1.357,1.3278,1.2926,1.2569,0.0,1.2128,1.1468,1.119,1.0808,1.0371,1.0021,0.9555,0.9035,0.8634,0.8354,0.8127,0.0,0.0,0.0,0.0,0.0,0.0,0.0,0.0,0.0,0.0,0.0,0.0,0.0,0.0,0.0,0.0,0.0,0.0,0.0,0.0,1.0009,1.2143,1.4161,1.4237,1.2053,1.2544,1.2279,1.1115,1.022,0.8067,0.4778,0.169,0.0284,0.0321,0.0997,0.1694,0.2392,0.3599,0.5119,0.6985,0.0,0.0,0.0,0.0,0.0,0.0,0.0,0.0,0.0,0.0,0.0,0.0,0.0,0.0,0.0,1.5171,1.574,1.6483,1.8276,1.8868,1.9066,1.9531,1.9358,1.914,1.9445,1.8485,1.7844,1.8995,1.8825,1.8724,1.9497,2.071,0.0,2.1245,0.0,0.0,0.0,0.0,0.0,0.0,0.0,0.0,0.0,0.0,0.0,0.0,0.0,0.0,0.0,0.0,0.0,0.0,1.5301,1.5331,1.5277,1.5128,1.4909,1.4662,1.402,1.3582,1.3344,1.3035,1.2646,1.2205,1.2128,1.1796,1.1287,1.1001,1.0691,1.0347,0.9944,0.9387,0.8753,0.8218,0.7997,0.7997,0.0,0.0,0.0,0.0,0.0,0.0,0.0,0.0,0.0,0.0,0.0,0.0,0.0,0.0,0.0,0.0,0.0,0.0,0.0,0.0,1.0654,1.3095,1.5364,1.6136,1.5278,1.5737,1.5461,1.4458,1.2844,0.9392,0.4278,0.2073,0.1094,0.124,0.1699,0.2397,0.3255,0.4043,0.5588,0.7647,0.9227,0.0,0.0,0.0,0.0,0.0,0.0,0.0,0.0,0.0,0.0,0.0,0.0,0.0,1.3266,1.4507,1.559,1.6799,1.8725,1.9626,2.0096,2.0583,1.9238,1.8131,1.9234,1.8653,1.799,1.8398,1.8634,1.9035,1.9902,2.1832,2.3369,2.3536,0.0,0.0,0.0,0.0,0.0,0.0,0.0,0.0,0.0,0.0,0.0,0.0,0.0,0.0,0.0,0.0,0.0,0.0,0.0,1.527,1.5218,1.5014,1.4912,1.4867,1.4318,1.3863,1.3465,1.288,1.2475,1.2205,1.1955,1.1637,1.1287,1.1001,1.0691,1.0322,0.9673,0.921,0.8901,0.8892,0.8916,0.8849,0.0,0.0,0.0,0.0,0.0,0.0,0.0,0.0,0.0,0.0,0.0,0.0,0.0,0.0,0.0,0.0,0.0,0.0,0.0,0.8565,1.0798,1.3773,1.5996,1.7582,1.85,1.8377,1.7704,1.6473,1.2837,0.9439,0.6297,0.3682,0.2668,0.2987,0.3343,0.3559,0.3802,0.4707,0.5573,0.6421,0.7879,0.9377,0.0,0.0,0.0,0.0,0.0,0.0,0.0,0.0,1.2585,1.252,1.2253,1.3137,1.4395,1.5077,1.6143,1.7382,1.875,1.9723,2.0388,2.0572,1.9934,1.9565,2.0784,2.0043,1.958,2.1066,2.0932,2.1013,2.2538,0.0,2.3872,0.0,0.0,0.0,0.0,0.0,0.0,0.0,0.0,0.0,0.0,0.0,0.0,0.0,0.0,0.0,0.0,0.0,0.0,0.0,0.0,1.5014,1.4833,1.4749,1.4541,1.4144,1.4028,1.3666,1.3109,1.275,1.2356,1.1955,1.1833,1.1615,1.1316,1.1371,1.1042,1.0409,0.9779,0.9455,0.9316,0.907,0.9004,0.897,0.0,0.0,0.0,0.0,0.0,0.0,0.0,0.0,0.0,0.0,0.0,0.0,0.0,0.0,0.0,0.0,0.0,0.0,0.704,0.8511,1.0684,1.3652,1.5789,1.7715,1.9569,1.9557,1.9057,1.8134,1.3518,1.0343,0.8536,0.584,0.4673,0.482,0.4859,0.4836,0.4746,0.5336,0.5633,0.5777,0.703,0.8384,0.0,0.0,0.0,0.0,0.0,0.0,0.0,0.0,1.364,1.3383,1.3129,1.369,1.4565,1.5278,1.6461,1.7772,1.8932,1.9863,2.0558,2.0849,2.0603,2.0662,2.2084,2.1273,2.0731,2.2482,2.2456,2.2526,2.3917,0.0,0.0,0.0,0.0,0.0,0.0,0.0,0.0,0.0,0.0,0.0,0.0,0.0,0.0,0.0,0.0,0.0,0.0,0.0,0.0,0.0,0.0,1.5466,1.5202,1.5051,1.4738,1.4261,1.4223,1.3684,1.2771,1.2575,1.2215,1.1805,1.1881,1.169,1.1338,1.1494,1.1036,1.0184,0.9906,0.9807,0.9828,0.9532,0.9511,0.9607,0.0,0.0,0.0,0.0,0.0,0.0,0.0,0.0,0.0,0.0,0.0,0.0,0.0,0.0,0.0,0.0,0.0,0.0,0.6629,0.824,1.0254,1.2593,1.4614,1.6435,1.8052,1.8964,1.9468,1.9481,1.5405,1.249,1.0673,0.842,0.7115,0.6563,0.6177,0.6091,0.6166,0.5908,0.5916,0.6088,0.6884,0.7936,0.9215,0.0,0.0,0.0,0.0,0.0,0.0,0.0,1.5491,1.4241,1.489,1.4156,1.3326,1.4784,1.6364,1.7914,1.9388,2.0138,2.0704,2.1582,2.1143,2.1025,2.288,2.2081,2.1139,2.1941,2.2703,2.3289,2.3469,2.4542,0.0,0.0,0.0,0.0,0.0,0.0,0.0,0.0,0.0,0.0,0.0,0.0,0.0,0.0,0.0,0.0,0.0,0.0,0.0,0.0,0.0,0.0,1.6486,1.602,1.5696,1.5478,1.5015,1.3997,1.2505,1.2312,1.2075,1.1828,1.2086,1.1906,1.1401,1.1311,1.0642,0.9651,1.0064,1.0266,1.041,1.0308,1.0611,1.0943,0.0,0.0,0.0,0.0,0.0,0.0,0.0,0.0,0.0,0.0,0.0,0.0,0.0,0.0,0.0,0.0,0.0,0.0,0.7455,0.8078,0.9353,1.1476,1.3043,1.4554,1.6032,1.6418,1.6876,1.746,1.4498,1.251,1.1414,0.9012,0.7579,0.7025,0.732,0.6824,0.5803,0.7132,0.7187,0.6455,0.6884,0.751,0.8395,0.0,0.0,0.0,0.0,0.0,0.0,0.0,0.0,0.0,1.5107,1.5738,1.6502,1.5708,1.7058,1.881,1.8937,2.0009,2.1133,2.11,2.1789,2.2654,2.3281,2.2819,2.2501,2.3456,2.411,2.4553,2.4605,0.0,0.0,0.0,0.0,0.0,0.0,0.0,0.0,0.0,0.0,0.0,0.0,0.0,0.0,0.0,0.0,0.0,0.0,0.0,0.0,0.0,0.0,0.0,1.5305,1.5181,1.4911,1.4585,1.4435,1.4147,1.3688,1.3636,1.3325,1.2777,1.2464,1.1965,1.1307,1.0749,1.054,1.0558,1.0368,1.0494,1.0793,1.0417,1.0611,1.0857,0.0,0.0,0.0,0.0,0.0,0.0,0.0,0.0,0.0,0.0,0.9211,0.9211,0.0,0.0,0.0,0.0,0.0,0.0,0.7702,0.8038,0.8952,1.0538,1.164,1.2979,1.4659,1.4528,1.4803,1.5465,1.3806,1.262,1.189,0.9864,0.8595,0.8036,0.8427,0.7946,0.685,0.8242,0.8146,0.7075,0.7182,0.7357,0.7667,0.0,0.0,0.0,0.0,0.0,0.0,0.0,0.0,0.0,1.6228,1.6712,1.7409,1.6962,1.8198,1.9792,2.0189,2.1207,2.2204,2.2335,2.2895,2.3516,2.4018,2.3846,2.3764,0.0,2.4862,2.5136,2.5136,0.0,0.0,0.0,0.0,0.0,0.0,0.0,0.0,0.0,0.0,0.0,0.0,0.0,0.0,0.0,0.0,0.0,0.0,0.0,0.0,0.0,0.0,0.0,1.5817,1.5526,1.5271,1.5036,1.4898,1.4727,1.4539,1.404,1.3572,1.3156,1.2346,1.1678,1.1146,1.0509,1.0443,1.0687,1.039,1.0582,1.0943,1.0467,1.0457,1.058,0.0,0.0,0.0,0.0,0.0,0.0,0.0,0.0,0.0,0.9614,0.9718,0.9718,0.0,0.0,0.0,0.8487,0.839,0.8185,0.7634,0.8111,0.8819,0.9798,1.0573,1.1881,1.3861,1.3373,1.3313,1.3815,1.3265,1.2654,1.2083,1.0806,0.9907,0.9283,0.943,0.924,0.8767,0.9183,0.8807,0.7885,0.7767,0.737,0.7058,0.8414,0.0,0.0,0.0,0.0,0.0,0.0,0.0,0.0,1.7724,1.7295,1.7003,1.8253,1.9471,2.0733,2.2278,2.2984,2.3512,2.4483,2.4206,2.3941,2.4918,2.5004,2.4884,2.4937,0.0,0.0,0.0,0.0,0.0,0.0,0.0,0.0,0.0,0.0,0.0,0.0,0.0,0.0,0.0,0.0,0.0,0.0,0.0,0.0,0.0,0.0,0.0,0.0,0.0,0.0,1.7175,1.6565,1.6246,0.0,1.5898,1.5477,1.5,1.3883,1.3313,1.3122,1.1957,1.1257,1.0943,1.0505,1.0283,1.0283,1.0283,1.0582,1.0943,1.0428,1.0215,1.0138,0.0,0.0,0.0,0.0,0.0,0.0,0.0,0.0,0.8857,0.9008,0.9008,0.9008,0.9008,0.9008,0.0,0.8717,0.8504,0.8367,0.8239,0.8353,0.8728,0.9466,1.0842,1.2301,1.3807,1.3668,1.3674,1.3815,1.2558,1.1999,1.2151,1.1022,1.0214,0.9777,1.0177,0.9911,0.922,0.9789,0.9441,0.8562,0.8504,0.7939,0.7219,0.7938,0.8749,0.0,0.0,0.0,0.0,0.0,0.0,0.0,1.7595,1.8443,1.9261,1.8223,1.9462,2.1161,2.1176,2.2178,2.337,2.3941,2.4593,2.513,2.5429,2.5453,2.5415,2.5374,2.544,0.0,0.0,0.0,0.0,0.0,0.0,0.0,0.0,0.0,0.0,0.0,0.0,0.0,0.0,0.0,0.0,0.0,0.0,0.0,0.0,0.0,0.0,0.0,0.0,1.6459,1.6136,1.5983,1.5711,0.0,1.5285,1.5043,1.4613,1.4667,1.4134,1.3084,1.2118,1.1432,1.0943,1.0505,1.0283,1.0283,1.0283,1.0582,1.0905,0.9981,0.9894,1.0021,0.0,0.0,0.0,0.0,0.0,0.0,0.0,0.0,0.9065,0.9225,0.9263,0.9263,0.9263,0.9181,0.0,0.0,0.8544,0.8427,0.8427,0.8504,0.9024,1.0053,1.1795,1.3082,1.3768,1.4097,1.4128,1.3855,1.2619,1.1977,1.1904,1.0781,1.0136,0.9908,1.0383,1.0144,0.9353,1.0195,0.999,0.9189,0.9253,0.8583,0.7648,0.8093,0.8254,0.8499,1.0205,0.0,0.0,0.0,0.0,0.0,0.0,0.0,1.9698,1.9305,2.0159,2.1357,2.2009,2.2842,2.3721,2.449,2.5099,2.5558,2.5598,2.5611,2.5636,2.5603,0.0,0.0,0.0,0.0,0.0,0.0,0.0,0.0,0.0,0.0,0.0,0.0,0.0,0.0,0.0,0.0,0.0,0.0,0.0,0.0,0.0,0.0,0.0,0.0,1.7418,1.713,1.6969,1.6545,1.6201,1.5963,1.5439,1.4842,1.4214,1.4173,1.3398,1.2057,1.1594,1.1132,1.0649,1.039,1.0283,1.0283,1.0283,1.0467,1.0572,0.9795,0.9509,0.9332,0.0,0.0,0.0,0.0,0.0,0.0,0.0,0.0,0.0,0.9598,0.9614,0.9614,0.9614,0.9379,0.9105,0.0,0.0,0.0,0.8297,0.8769,0.9607,1.0762,1.2735,1.3862,1.3956,1.4482,1.4518,1.4068,1.3094,1.232,1.1727,1.0601,1.0056,1.0074,1.0494,1.0197,0.9527,1.0399,1.0242,0.9401,0.9692,0.9101,0.8064,0.8406,0.811,0.7747,0.9437,1.0865,1.2208,1.4198,0.0,0.0,0.0,0.0,1.9228,2.0141,2.0753,2.1396,2.2806,2.3458,2.4026,2.5226,2.5564,2.5629,2.5629,2.5642,2.5683,0.0,0.0,0.0,0.0,0.0,0.0,0.0,0.0,0.0,0.0,0.0,0.0,0.0,0.0,0.0,0.0,0.0,0.0,0.0,0.0,0.0,0.0,0.0,1.9038,1.8706,1.8315,1.813,1.813,1.7328,1.687,1.6787,1.573,1.478,1.3908,1.3373,1.2448,1.1234,1.1094,1.0802,1.039,1.0322,1.0283,1.0283,1.0205,1.0157,1.0088,0.9439,0.8958,0.848,0.0,0.0,0.0,0.0,0.0,0.0,0.0,0.0,0.0,0.0,0.8956,0.8956,0.8956,0.8697,0.8534,0.8481,0.8156,0.7989,0.7989,0.0,0.0,1.0797,1.2735,1.405,1.456,1.4737,1.4751,1.4681,1.3666,1.2876,1.2265,1.1246,1.0784,1.0784,1.0842,1.0601,1.0157,1.0186,0.959,0.8619,0.9277,0.896,0.8127,0.8537,0.8533,0.8447,0.9157,0.9798,1.0585,1.2503,1.3716,0.0,0.0,0.0,0.0,1.8791,2.0106,2.1346,2.0894,2.1927,2.3513,2.5177,2.5636,2.5683,0.0,0.0,2.5607,0.0,0.0,0.0,0.0,0.0,0.0,0.0,0.0,0.0,0.0,0.0,0.0,0.0,0.0,0.0,0.0,0.0,0.0,0.0,0.0,0.0,0.0,1.8747,1.833,1.8269,1.7941,1.7779,1.7779,1.719,1.6732,1.6368,1.5406,1.465,1.4038,1.3448,1.2869,1.2246,1.1394,1.0943,1.0867,1.0467,1.0283,1.0244,0.9804,0.9597,0.9478,0.848,0.8077,0.7912,0.0,0.0,0.0,0.0,0.0,0.0,0.0,0.0,0.0,0.0,0.0,0.8804,0.8804,0.8397,0.8196,0.8357,0.7943,0.7742,0.7875,0.9533,1.0523,1.0548,1.2749,1.415,1.4603,1.5301,1.5461,1.5093,1.4383,1.3749,1.3141,1.2207,1.1446,1.0923,1.0409,0.9961,0.9577,0.9755,0.9382,0.8746,0.9518,0.9798,0.9731,0.9318,0.935,0.9593,0.9467,0.9825,1.0594,1.186,1.3074,1.4225,1.526,0.0,0.0,0.0,1.8525,1.9684,2.0832,2.2374,2.3976,2.5273,2.5597,2.5595,2.5595,0.0,0.0,0.0,0.0,0.0,0.0,0.0,0.0,0.0,0.0,0.0,0.0,0.0,0.0,0.0,0.0,0.0,0.0,0.0,0.0,0.0,0.0,0.0,1.997,1.9577,1.9252,1.9049,1.891,1.8822,1.8822,1.7985,1.7026,1.5956,1.5554,1.5074,1.4528,1.395,1.3266,1.2474,1.1674,1.1358,1.1297,1.0813,1.0781,1.0977,1.0479,1.0238,1.0009,0.9191,0.8674,0.8283,0.0,0.0,0.0,0.0,0.0,0.0,0.0,0.0,0.0,0.0,0.0,0.8804,0.8804,0.0,0.0,0.0,0.7932,0.7712,0.7982,0.9563,1.0409,1.0223,1.2556,1.4024,1.4345,1.5345,1.5628,1.5045,1.4809,1.4405,1.3857,1.3195,1.2506,1.1796,1.0667,0.9909,0.9562,0.0,0.9595,0.9147,0.9988,1.0639,1.1022,1.0498,1.0683,1.1043,1.014,1.0317,1.1066,1.1421,1.2422,1.3719,1.4474,1.5453,0.0,0.0,0.0,1.8047,2.072,2.2323,2.355,2.4935,2.5387,2.5493,0.0,0.0,0.0,0.0,0.0,0.0,0.0,0.0,0.0,0.0,0.0,0.0,0.0,0.0,0.0,0.0,0.0,0.0,0.0,0.0,0.0,0.0,0.0,0.0,2.0348,2.0177,2.0,1.9726,1.969,1.969,1.969,1.865,1.737,1.5906,1.5906,1.568,1.5291,1.472,1.3967,1.299,1.2208,1.1727,1.1577,1.1211,1.126,1.1567,1.1064,1.065,1.0292,0.9694,0.9059,0.8428,0.0,0.0,0.0,0.0,0.0,0.0,0.0,0.0,0.0,0.0,0.0,0.8804,0.8804,0.8283,0.8119,0.8631,0.8187,0.7992,0.8276,0.9452,1.0004,0.9748,1.1989,0.0,1.391,1.4473,1.4652,1.4351,1.4769,1.4642,1.3984,1.4137,1.4169,1.4074,1.2412,1.1425,1.099,0.0,0.0,0.9649,1.0591,1.0982,1.1113,1.2145,0.0,0.0,0.0,0.0,1.1775,1.082,1.1256,1.2365,1.3292,1.4452,1.5556,0.0,0.0,0.0,1.9763,2.0521,2.1196,2.3739,2.4934,2.5493,0.0,0.0,0.0,0.0,0.0,0.0,0.0,0.0,0.0,0.0,0.0,0.0,0.0,0.0,0.0,0.0,0.0,0.0,0.0,0.0,0.0,0.0,0.0,0.0,2.0314,1.9929,1.9711,1.969,1.969,1.969,1.969,1.865,1.7531,1.6471,1.6471,1.6459,1.6391,1.578,1.5194,1.4529,1.3076,1.2105,1.1606,1.1577,1.1587,1.1553,1.0997,1.0365,0.9694,0.9152,0.8522,0.7929,0.0,0.0,0.0,0.0,0.0,0.0,0.0,0.0,0.0,0.0,0.0,0.0,0.0,0.9104,0.8883,0.8498,0.8754,0.8815,0.8574,0.9278,0.9775,0.9943,1.1449,1.276,1.3765,1.4624,1.5142,1.5255,1.5007,1.4975,1.5138,1.4486,1.4408,1.4701,1.2289,1.1497,1.1858,1.0648,0.0,0.0,1.1286,1.1964,1.2469,0.0,0.0,0.0,0.0,0.0,0.0,1.1683,1.1276,1.0983,1.2597,1.3012,0.0,0.0,1.5179,1.6179,1.8241,1.9548,2.0823,2.289,2.4006,2.473,2.5244,0.0,0.0,0.0,0.0,0.0,0.0,0.0,0.0,0.0,0.0,0.0,0.0,0.0,0.0,0.0,0.0,0.0,0.0,0.0,0.0,0.0,0.0,0.0,2.0314,1.9909,1.969,1.969,1.969,1.9369,1.8688,1.7947,1.7229,1.6522,1.6522,1.6522,1.6466,1.6281,1.5876,1.5219,1.4317,1.3342,1.243,1.2109,1.2158,1.2383,1.1907,1.1426,1.0959,1.0327,0.9703,0.9077,0.0,0.0,0.0,0.0,0.0,0.0,0.0,0.0,0.0,1.0864,0.0,0.0,0.0,0.0,0.9416,0.8781,0.9339,0.9558,0.8999,0.9319,0.9636,0.9899,1.0915,1.2106,1.3453,1.4479,1.5156,1.5469,1.5128,1.5061,1.5285,1.4519,1.4414,1.4727,1.2496,1.2112,0.0,0.0,0.0,1.1543,0.0,0.0,1.3071,0.0,0.0,0.0,0.0,0.0,0.0,0.0,0.0,0.0,0.0,0.0,0.0,0.0,0.0,1.5156,1.6621,1.82,1.9909,0.0,2.284,2.3572,2.4907,0.0,0.0,0.0,0.0,0.0,0.0,0.0,0.0,0.0,0.0,0.0,0.0,0.0,0.0,0.0,0.0,0.0,0.0,0.0,0.0,0.0,0.0,0.0,2.0089,1.9839,1.969,1.969,1.969,1.9281,1.838,1.7827,1.7312,1.6752,1.6595,1.6522,1.6522,1.6522,1.6194,1.5588,1.4971,1.4107,1.317,1.2653,1.2617,1.2852,1.2559,1.2061,1.1466,1.1216,1.0415,0.9413,0.0,0.0,0.0,0.0,0.0,0.0,0.0,0.0,1.1616,1.0965,0.0,0.0,0.0,0.0,0.0,0.956,1.0019,1.0088,0.9558,0.9518,0.9518,0.9518,1.0397,1.1519,1.2939,1.3971,1.4578,1.4812,1.5097,1.4931,1.4311,1.428,1.428,1.4241,1.3212,1.3397,1.4467,0.0,1.3289,1.2872,0.0,1.4311,1.2937,0.0,0.0,0.0,1.4126,1.4118,0.0,0.0,0.0,0.0,0.0,0.0,0.0,0.0,0.0,1.4037,0.0,0.0,0.0,0.0,0.0,0.0,0.0,0.0,0.0,0.0,0.0,0.0,0.0,0.0,0.0,0.0,0.0,0.0,0.0,0.0,0.0,0.0,0.0,0.0,0.0,0.0,0.0,0.0,0.0,2.0124,1.9747,1.9726,1.969,1.969,1.969,1.9442,1.8893,1.8341,1.7827,1.7312,1.6752,1.6522,1.6522,1.6522,1.6194,1.5588,1.4971,1.4376,1.3779,1.3152,1.2881,1.2881,1.2881,1.2049,1.0914,1.1566,1.0517,0.891,0.0,0.0,0.0,0.0,0.0,1.2832,1.2618,1.2608,1.251,0.0,0.0,0.0,1.0757,1.0242,1.0128,1.0466,1.0651,1.0565,1.0098,0.9716,0.9677,1.004,1.0273,1.1084,1.253,1.3498,1.4345,1.5023,1.4475,1.4369,1.4626,1.3667,1.347,1.393,1.384,1.3964,1.4199,1.3041,0.0,0.0,1.4036,1.4601,0.0,0.0,0.0,0.0,0.0,1.6214,0.0,0.0,1.3785,1.1836,0.0,0.0,0.0,0.0,0.0,1.2578,1.4765,0.0,0.0,0.0,0.0,0.0,0.0,0.0,0.0,0.0,0.0,0.0,0.0,0.0,0.0,0.0,0.0,0.0,0.0,0.0,0.0,0.0,0.0,0.0,0.0,0.0,0.0,0.0,2.0732,2.0246,2.0158,1.9874,1.969,1.969,1.9332,1.9043,1.8893,1.7987,1.7463,1.7312,1.6752,1.6522,1.6522,1.6522,1.6423,1.6194,1.5152,1.4606,1.4376,1.3344,1.2881,1.2881,1.2881,1.2353,1.1466,1.1166,1.0415,0.9465,0.0,0.0,1.2715,1.3105,1.3372,1.3461,1.3194,1.3145,1.3076,0.0,0.0,0.0,1.1497,1.1001,1.0766,1.0886,1.0908,1.0732,1.0312,0.9804,0.9716,1.0283,1.0244,1.0881,1.2378,1.3331,1.421,1.5104,1.4224,1.4004,1.4348,1.3002,1.2583,1.2972,1.3365,1.3543,1.3502,0.0,0.0,0.0,1.5335,0.0,0.0,1.7654,1.8233,0.0,0.0,0.0,1.5343,1.676,1.5085,0.0,0.0,0.0,0.0,0.0,0.0,1.2753,1.4375,1.5004,1.5621,0.0,0.0,0.0,0.0,0.0,0.0,0.0,0.0,0.0,0.0,0.0,0.0,0.0,0.0,0.0,0.0,0.0,0.0,0.0,0.0,0.0,0.0,0.0,0.0,0.0,2.0715,2.0212,2.0054,1.9854,1.969,1.969,1.9406,1.9244,1.9244,1.8185,1.7626,1.7626,1.6879,1.6522,1.6522,1.6522,1.638,1.6051,1.5107,1.4571,1.4236,1.3286,1.2881,1.2881,1.2881,1.2452,1.1765,1.1366,1.0618,0.9762,0.0,0.0,1.3686,1.3721,1.4173,1.4312,1.37,1.37,1.3501,0.0,1.2842,1.2676,1.2334,1.1904,1.1475,1.1084,1.1006,1.0801,1.0381,0.9862,0.9804,1.0283,1.0244,1.0891,1.2283,1.3196,1.4114,1.5043,1.4229,1.3819,1.378,1.2508,1.1886,1.1869,1.2376,1.261,1.2687,1.348,0.0,1.4163,1.7342,1.7295,0.0,0.0,1.9083,0.0,1.9069,1.8099,1.6443,1.8159,1.7107,0.0,0.0,0.0,0.0,0.0,1.2509,1.3915,1.408,1.4582,1.5469,0.0,0.0,0.0,2.1077,2.1337,0.0,0.0,0.0,0.0,0.0,0.0,0.0,0.0,0.0,0.0,0.0,0.0,0.0,0.0,0.0,0.0,0.0,0.0,2.1507,2.1023,2.0516,2.0089,1.9711,1.969,1.969,1.969,1.969,1.969,1.9603,1.8612,1.8066,1.7987,1.6993,1.6522,1.6522,1.6522,1.6194,1.5588,1.4971,1.4376,1.3732,1.3152,1.2881,1.2881,1.2881,1.2452,1.1814,1.1715,1.0864,0.9762,1.2083,1.2725,1.3453,1.4855,1.5196,1.5088,1.4461,1.4806,1.4596,1.3076,1.2578,1.2461,1.2725,1.2363,1.207,1.1927,1.1641,1.1292,1.0811,1.039,1.0196,1.0283,1.0273,1.0791,1.1909,1.239,1.331,1.4627,1.4227,1.3955,1.3795,1.2972,1.2433,1.2143,1.2455,1.2722,1.2993,0.0,0.0,1.5676,1.6531,0.0,1.852,2.0169,2.1114,2.1507,2.1519,2.076,1.9546,0.0,1.7711,1.6649,0.0,0.0,0.0,0.0,0.0,0.0,0.0,0.0,0.0,0.0,0.0,0.0,0.0,1.9487,0.0,0.0,0.0,0.0,0.0,0.0,0.0,0.0,0.0,0.0,0.0,0.0,0.0,0.0,0.0,0.0,0.0,0.0,2.184,2.1071,2.0277,1.9782,1.9711,1.969,1.969,1.969,1.969,1.9479,1.9043,1.8419,1.7867,1.7463,1.6795,1.6522,1.6522,1.6522,1.6194,1.5588,1.4971,1.4376,1.3732,1.3152,1.2881,1.2881,1.2881,1.2452,1.1715,1.1216,1.0466,0.971,1.2043,1.3062,1.41,1.517,1.5894,1.609,1.5499,1.5659,1.5355,1.3979,1.3309,1.3081,1.3304,1.2857,1.2461,1.22,1.1816,1.142,1.0937,1.0518,1.0283,1.0283,1.0505,1.1029,1.1774,1.2437,1.331,1.4501,1.3927,1.3685,1.3795,1.2762,1.2666,1.3274,1.2812,1.3209,1.4249,0.0,1.4654,1.5323,1.7258,0.0,2.0248,2.1578,2.2412,2.2895,2.2694,2.2214,2.1349,1.9483,1.8604,0.0,0.0,1.6682,1.6552,0.0,1.5245,1.5781,0.0,0.0,0.0,1.5097,0.0,0.0,0.0,0.0,0.0,0.0,0.0,0.0,0.0,0.0,0.0,0.0,0.0,0.0,0.0,0.0,0.0,0.0,0.0,0.0,0.0,0.0,2.1598,2.0715,2.007,1.969,1.969,1.969,1.969,1.969,1.9442,1.9169,1.8893,1.8106,1.7585,1.7312,1.6752,1.6522,1.6479,1.6194,1.5732,1.5096,1.4514,1.392,1.3334,1.3017,1.2881,1.2881,1.2881,1.2666,1.2246,1.1174,1.0568,1.0167,1.2003,1.3548,1.4838,1.5354,1.6405,1.6966,1.6329,1.6341,1.6058,1.4994,1.4329,1.3909,1.3815,1.3372,1.2869,1.2383,1.1953,1.1504,1.1064,1.0755,1.0596,1.0596,1.0836,1.1296,1.192,1.2516,1.3336,1.4367,1.3615,1.3457,1.378,1.2599,1.2792,1.4034,1.346,0.0,0.0,0.0,0.0,1.5442,0.0,1.9879,2.0417,2.226,2.2958,2.2994,2.3271,2.3071,2.2399,2.0433,0.0,1.9304,1.8538,1.8364,0.0,0.0,0.0,0.0,0.0,0.0,0.0,0.0,0.0,1.5967,0.0,0.0,0.0,0.0,0.0,0.0,0.0,0.0,0.0,0.0,0.0,0.0,0.0,0.0,0.0,0.0,0.0,0.0,0.0,0.0,2.1082,2.0366,1.9893,1.9611,1.9711,1.969,1.969,1.969,1.9169,1.8855,1.8727,1.7787,1.7229,1.7146,1.671,1.6522,1.6466,1.5864,1.5276,1.4652,1.405,1.3467,1.2881,1.2881,1.2881,1.2881,1.2881,1.2881,1.2725,1.1484,1.0914,1.0618,1.3331,1.4179,1.5005,1.6068,1.6864,1.7119,1.6467,1.6864,1.6851,1.5671,1.496,1.4376,1.3862,1.3732,0.0,0.0,0.0,0.0,1.1557,0.0,1.1558,1.1627,1.1162,1.1374,1.2389,1.2033,1.2493,1.379,1.3562,1.3572,1.3795,1.329,1.2947,1.2879,1.4586,0.0,0.0,0.0,1.7235,0.0,1.9369,1.8707,0.0,2.0917,2.2145,2.2298,2.3474,2.3584,2.2894,0.0,2.0627,2.0149,0.0,1.8485,2.0101,0.0,0.0,0.0,0.0,0.0,0.0,0.0,1.6895,0.0,0.0,0.0,0.0,0.0,0.0,0.0,0.0,0.0,0.0,0.0,0.0,0.0,0.0,0.0,0.0,0.0,0.0,0.0,0.0,0.0,0.0,2.0335,1.9639,1.939,1.9681,1.969,1.969,1.969,1.9169,1.865,1.8224,1.7585,1.7076,1.6595,1.6522,1.6522,1.6466,1.5864,1.5276,1.4652,1.405,1.3467,1.2881,1.2881,1.2881,1.2881,1.2881,1.2881,1.2774,1.1981,1.1316,1.0712,1.3228,1.4061,1.4947,1.5716,1.6733,1.733,1.702,1.7182,1.7149,1.6655,1.6046,1.5596,0.0,0.0,0.0,0.0,0.0,1.2418,0.0,0.0,1.1596,1.1351,1.1662,1.1873,1.2022,1.2263,1.2641,1.3107,1.302,1.3121,1.3435,1.304,1.336,1.4316,1.5284,0.0,1.6724,0.0,0.0,0.0,0.0,0.0,0.0,2.1985,2.3629,2.3708,2.4257,2.4332,2.3989,0.0,2.1862,0.0,0.0,0.0,0.0,0.0,0.0,0.0,0.0,0.0,0.0,0.0,0.0,0.0,1.5929,0.0,1.5936,0.0,0.0,0.0,0.0,0.0,0.0,0.0,0.0,0.0,0.0,0.0,0.0,0.0,0.0,0.0,0.0,0.0,0.0,0.0,0.0,1.9333,1.9681,1.969,1.969,1.969,1.8893,1.8341,1.8106,1.7271,1.671,1.6522,1.6522,1.6522,1.6466,1.5511,1.4926,1.4663,1.3695,1.3152,1.2881,1.2881,1.2881,1.2881,1.2881,1.2881,1.2822,1.208,1.1366,1.0712,1.3478,1.4247,1.5085,1.5451,1.6423,1.7181,1.7359,1.7307,0.0,0.0,0.0,0.0,1.6621,1.5728,0.0,0.0,0.0,1.3165,0.0,0.0,1.2247,1.2097,1.2448,0.0,0.0,1.2639,1.2792,1.2698,1.2643,1.2962,1.3593,1.3047,1.3663,1.5227,0.0,1.7096,1.8379,0.0,0.0,1.8678,1.9454,1.9697,1.9897,2.3,2.4471,2.4855,2.4855,2.4828,2.4666,2.381,2.2548,0.0,2.2595,0.0,0.0,0.0,0.0,0.0,1.7093,0.0,0.0,0.0,0.0,0.0,0.0,0.0,0.0,0.0,0.0,0.0,0.0,0.0,0.0,0.0,0.0,0.0,0.0,0.0,0.0,0.0,0.0,0.0,0.0,0.0,0.0,0.0,0.0,0.0,1.9681,1.969,1.969,1.969,1.865,1.8106,1.8106,1.7034,1.6522,1.6522,1.6522,1.6522,1.6479,1.5242,1.4698,1.4606,1.343,1.2881,1.2881,1.2881,1.2881,1.2881,1.2881,1.2881,1.2822,1.2295,1.1575,1.0712,1.4663,1.5141,1.5588,1.5611,1.612,1.6705,1.7214,0.0,0.0,0.0,0.0,0.0,0.0,0.0,0.0,0.0,0.0,1.4474,1.4036,0.0,1.4215,0.0,0.0,1.3198,0.0,0.0,1.2696,1.2701,1.2639,1.3306,1.4639,1.3717,1.3683,1.4533,1.6956,1.7628,1.7139,1.9851,2.1544,2.2439,2.2458,2.3514,2.487,0.0,2.364,2.4979,2.4979,0.0,0.0,2.2911,2.2306,0.0,0.0,0.0,0.0,0.0,0.0,0.0,0.0,0.0,0.0,1.7109,0.0,0.0,0.0,0.0,1.6337,0.0,0.0,0.0,0.0,0.0,0.0,0.0,0.0,0.0,0.0,0.0,0.0,0.0,0.0,0.0,0.0,0.0,0.0,0.0,0.0,0.0,1.9651,1.969,1.969,1.969,1.865,1.8106,1.8106,1.7034,1.6522,1.6522,1.6522,1.6522,1.6479,1.5242,1.4698,1.4606,1.343,1.2881,1.2881,1.2881,1.2881,1.2881,1.2881,1.2881,1.2881,1.2881,1.1999,1.0813,1.574,1.6305,1.6617,1.6219,1.6629,1.7188,0.0,1.8145,0.0,0.0,0.0,0.0,0.0,0.0,1.7781,0.0,0.0,1.6006,1.5147,1.5014,0.0,0.0,0.0,1.4204,0.0,0.0,0.0,0.0,0.0,1.3934,1.456,1.4382,1.4568,1.5163,0.0,1.8318,0.0,0.0,0.0,0.0,0.0,2.3781,2.5286,0.0,0.0,2.5203,2.5203,2.5171,0.0,2.4326,2.3446,2.2708,2.3182,2.2297,2.125,2.2111,2.1985,0.0,0.0,0.0,2.1318,1.8203,0.0,0.0,0.0,0.0,0.0,0.0,0.0,0.0,0.0,0.0,0.0,0.0,0.0,0.0,0.0,0.0,0.0,0.0,0.0,0.0,0.0,0.0,0.0,0.0,0.0,0.0,0.0,1.969,1.969,1.969,1.9006,1.8458,1.8106,1.7394,1.6837,1.6522,1.6522,1.6522,1.6466,1.5644,1.5276,1.5231,1.4003,1.3515,1.3457,1.3055,1.2881,1.2881,1.2881,1.2881,1.2881,1.2881,1.2295,1.1316,1.6411,1.6883,1.7216,1.7024,1.7327,0.0,0.0,0.0,0.0,0.0,2.0367,0.0,2.0783,0.0,1.9268,0.0,1.804,1.7383,1.656,1.6338,0.0,1.6798,1.6208,0.0,0.0,0.0,0.0,0.0,0.0,1.4937,1.5558,1.5188,1.5287,1.5857,0.0,1.8541,1.9863,0.0,2.3233,0.0,0.0,2.4566,0.0,0.0,2.5339,2.533,0.0,2.5303,2.5274,2.5152,2.4474,2.3851,2.4807,2.3736,2.2339,2.3419,2.2987,2.203,2.1507,2.2144,0.0,1.9555,1.9698,0.0,1.6931,0.0,0.0,0.0,0.0,0.0,0.0,0.0,0.0,0.0,0.0,0.0,0.0,0.0,0.0,0.0,0.0,0.0,0.0,0.0,0.0,0.0,0.0,0.0,0.0,0.0,1.9839,1.9711,1.9169,1.8727,1.838,1.7666,1.7105,1.6795,1.6595,1.6522,1.6466,1.5864,1.5499,1.5231,1.4226,1.3684,1.3467,1.3065,1.2881,1.2881,1.2881,1.2881,1.2881,1.2881,1.2452,1.1665,1.6665,1.7063,0.0,0.0,1.821,0.0,0.0,0.0,2.0201,0.0,2.1413,2.197,2.2443,2.1393,2.067,2.0744,1.9619,0.0,1.8274,1.8078,0.0,0.0,1.8616,1.8402,1.8327,0.0,0.0,0.0,0.0,0.0,1.7488,1.6109,1.5843,1.6565,1.7132,0.0,2.0161,2.293,2.46,2.5361,2.5322,2.5876,2.6624,2.5788,0.0,2.5452,2.535,2.5293,2.5293,2.5313,2.5303,2.5303,2.5293,2.5357,2.5398,2.5394,2.5459,2.5172,2.3637,2.3215,2.2814,2.1132,0.0,0.0,0.0,0.0,1.9277,0.0,0.0,0.0,0.0,0.0,0.0,0.0,0.0,0.0,0.0,0.0,0.0,0.0,0.0,0.0,0.0,0.0,0.0,0.0,0.0,0.0,0.0,0.0,0.0,1.9771,1.9221,1.8945,1.8936,1.7921,1.7353,1.7312,1.6795,1.6522,1.6466,1.5908,1.532,1.4744,1.4097,1.3505,1.2968,1.2929,1.2881,1.2881,1.2881,1.2881,1.2881,1.2881,1.2452,1.1765,1.7571,1.8669,1.9555,0.0,1.9728,1.9904,0.0,0.0,0.0,0.0,2.3128,2.3613,2.3708,2.2979,2.226,2.1774,2.0944,0.0,0.0,0.0,0.0,2.042,1.9402,1.9187,1.9877,1.8311,0.0,1.7814,0.0,0.0,1.7704,1.6697,1.6482,1.6953,0.0,0.0,2.1228,2.3299,2.5046,2.6353,2.5657,2.5977,0.0,0.0,2.6476,2.64,2.5647,2.5368,2.5379,2.5322,2.5303,2.5303,2.5363,2.5383,2.5413,2.5465,2.5498,2.5425,2.5063,2.4957,2.4557,2.2885,2.2465,2.1989,0.0,0.0,0.0,0.0,0.0,0.0,0.0,0.0,0.0,0.0,0.0,0.0,0.0,0.0,0.0,0.0,0.0,0.0,0.0,0.0,0.0,0.0,0.0,0.0,0.0,0.0,0.0,2.0423,1.9834,1.953,1.9627,1.8867,1.8106,1.7312,1.7146,1.6879,1.6466,1.6337,1.6194,1.5976,1.4926,1.4376,1.4154,1.3296,1.2881,1.2881,1.2881,1.2881,1.2881,1.2881,1.2774,1.2501,1.8002,0.0,0.0,2.0812,0.0,0.0,2.1519,0.0,0.0,2.3023,2.3711,0.0,2.4454,2.4097,2.3594,2.2947,2.2183,0.0,0.0,0.0,0.0,2.1259,2.0557,2.0401,2.0957,1.947,0.0,1.8893,0.0,0.0,1.8294,1.7201,1.6826,1.7113,0.0,1.8486,0.0,2.3107,2.4987,2.6223,2.6073,0.0,0.0,2.7436,2.7686,2.7957,2.6961,2.6124,2.5441,2.5406,2.5383,2.5398,2.5434,2.5451,2.5484,2.5539,2.5561,2.5598,2.5634,2.5622,2.5371,2.4436,2.4163,2.3685,2.1905,2.187,2.2153,0.0,0.0,0.0,0.0,0.0,0.0,0.0,0.0,0.0,0.0,0.0,0.0,0.0,0.0,0.0,0.0,0.0,0.0,0.0,0.0,0.0,0.0,0.0,0.0,2.0491,1.9978,1.9745,1.9815,1.8965,1.8263,1.7626,1.7146,1.6795,1.6522,1.6522,1.638,1.6051,1.5377,1.4778,1.4236,1.3552,1.3152,1.2881,1.2881,1.2881,1.2881,1.2881,1.2881,1.2822,1.8393,0.0,0.0,0.0,0.0,0.0,0.0,2.2457,0.0,2.3342,0.0,2.4616,2.4989,2.4941,2.4678,2.4166,0.0,2.2504,2.144,2.1595,2.173,2.1669,2.1493,2.1413,2.1413,2.0302,0.0,0.0,0.0,0.0,1.8733,1.7442,1.6951,0.0,0.0,0.0,0.0,2.3158,2.511,0.0,2.671,2.755,2.8383,2.8383,2.8881,2.9492,2.8682,2.7287,2.5834,2.5707,2.5668,2.5649,2.5561,2.5554,2.5603,2.5605,2.5659,2.5703,2.5703,2.5658,2.5601,2.5595,2.5543,2.5093,2.356,2.3211,2.3134,2.2887,2.214,2.2149,0.0,0.0,0.0,0.0,0.0,0.0,0.0,0.0,0.0,0.0,0.0,0.0,0.0,0.0,0.0,0.0,0.0,0.0,0.0,0.0,0.0,0.0,1.9955,0.0,1.9824,0.0,1.8185,1.8106,1.7076,1.6552,1.6522,1.6522,1.6194,1.572,1.5632,1.4994,1.4039,1.3956,1.3552,1.3017,1.2929,1.2881,1.2881,1.2881,1.2881,1.2881,0.0,0.0,0.0,0.0,0.0,2.3611,2.4003,2.4607,2.5011,2.5145,2.5782,0.0,2.6354,2.5815,2.5411,2.5326,2.4618,0.0,0.0,0.0,0.0,2.1954,2.0985,2.0456,2.0456,1.9448,1.8842,0.0,0.0,0.0,1.7489,1.6868,1.6812,0.0,0.0,0.0,2.4341,2.576,0.0,2.875,2.8171,2.8522,2.9355,2.9355,2.9453,2.957,2.9414,2.8644,2.7602,2.6821,2.6569,2.6461,2.5798,2.5595,2.5605,2.5661,2.5683,2.5703,2.5703,2.5658,2.5595,2.5539,2.5471,2.5321,2.4964,2.4879,2.4822,2.4614,2.4415,2.4026,2.314,0.0,0.0,0.0,0.0,0.0,0.0,0.0,0.0,0.0,0.0,0.0,0.0,0.0,0.0,0.0,0.0,0.0,0.0,0.0,0.0,0.0,0.0,0.0,0.0,0.0,0.0,1.8106,1.7463,1.6909,1.6522,1.6522,1.6423,1.6324,1.582,1.5499,1.5276,1.4744,1.4201,1.36,1.3104,1.2881,1.2881,1.2881,1.2881,1.2881,0.0,0.0,0.0,0.0,0.0,0.0,0.0,2.5693,0.0,2.5659,2.5913,2.6133,2.6133,2.615,2.6031,2.5642,2.5011,2.4381,2.3737,2.3176,2.2601,2.2029,2.0934,0.0,1.9893,1.8924,1.814,1.7604,0.0,0.0,1.6519,1.6343,1.6298,1.6478,0.0,2.0757,0.0,0.0,0.0,2.8255,2.8725,2.9197,2.9648,3.0098,3.0273,3.0273,3.0273,2.998,2.9389,2.8032,2.7284,2.6837,2.6457,2.6011,2.566,2.5683,2.5682,2.5658,2.5658,2.5567,2.5498,2.5465,2.5398,2.5339,2.5303,2.5303,2.5234,2.5034,2.501,2.4481,2.2759,2.119,0.0,0.0,0.0,0.0,0.0,0.0,0.0,0.0,0.0,0.0,0.0,0.0,0.0,0.0,0.0,0.0,0.0,0.0,0.0,0.0,0.0,0.0,0.0,0.0,0.0,1.8602,1.7733,1.7034,1.6522,1.6522,1.6522,1.6466,1.6182,1.5908,1.5543,1.4971,1.4329,1.3768,1.3457,1.32,1.2881,1.2881,1.2881,1.2881,0.0,2.4199,0.0,0.0,2.5101,0.0,2.5609,2.6234,2.6488,2.5913,2.5845,2.5845,2.5845,2.6353,2.6438,2.5748,2.5311,2.472,2.3888,2.3371,2.2801,2.2177,2.1129,2.0309,1.967,1.877,1.791,0.0,0.0,0.0,0.0,1.6171,1.6407,0.0,0.0,0.0,0.0,0.0,2.7345,2.7909,2.9316,2.9883,2.9941,3.0644,3.0898,3.0898,3.0898,3.0898,3.0664,2.9101,2.8125,2.748,2.7129,2.6523,2.5937,2.5742,2.5636,2.5601,2.5573,2.5498,2.5406,2.5394,2.5346,2.5303,2.5303,2.5303,2.5264,2.5099,2.5083,2.4559,2.2711,2.1776,0.0,0.0,0.0,0.0,0.0,0.0,0.0,0.0,0.0,0.0,0.0,0.0,0.0,0.0,0.0,0.0,0.0,0.0,0.0,0.0,0.0,0.0,2.0707,0.0,1.9689,0.0,1.8175,1.7333,1.6697,1.6697,1.6635,1.6522,1.6522,1.6238,1.5732,1.5141,1.4595,1.4179,1.3909,1.3505,1.3055,1.2978,1.2881,1.2881,0.0,0.0,0.0,0.0,0.0,0.0,0.0,2.6234,2.6674,2.6607,2.659,2.659,2.659,2.6657,2.6488,2.6021,2.5898,2.5447,2.4389,2.3733,2.3156,2.2651,2.1495,2.054,1.9893,1.93,1.8647,0.0,0.0,0.0,0.0,1.6804,1.8156,0.0,0.0,0.0,0.0,2.7851,2.8907,3.037,3.0662,3.0781,3.0781,3.0879,3.0898,3.0898,3.0898,3.0898,3.0742,2.9805,2.9414,2.9082,2.75,2.6934,2.6718,2.5867,2.5603,2.5595,2.5535,2.5465,2.5394,2.5394,2.5346,2.5303,2.5303,2.5303,2.5284,2.5274,2.5364,2.4885,2.3001,2.3856,2.3806,0.0,0.0,0.0,0.0,0.0,0.0,0.0,0.0,0.0,0.0,0.0,0.0,0.0,0.0,0.0,0.0,0.0,0.0,2.1007,0.0,2.0487,2.0707,2.0177,0.0,1.9818,1.9195,1.8351,1.73,1.73,1.7011,1.6522,1.6522,1.6466,1.638,1.5776,1.5499,1.5309,1.4226,1.3779,1.3637,1.3104,1.2881,1.2881,0.0,0.0,0.0,0.0,0.0,0.0,0.0,2.6505,2.6691,2.6691,2.6691,2.6691,2.6691,2.6691,2.6624,2.6436,2.6139,2.5815,2.5373,2.4796,2.4077,2.3151,2.2334,2.1474,2.05,1.9972,1.94,0.0,0.0,0.0,1.7215,0.0,0.0,0.0,0.0,2.6069,2.8015,2.9162,3.0111,3.0817,3.0879,3.0898,3.0898,3.0898,3.0898,3.0898,3.0898,3.0898,3.0859,3.0508,2.9687,2.8613,2.7383,2.6641,2.6132,2.5726,2.5567,2.5531,2.5459,2.5391,2.5348,2.5348,2.5331,2.5303,2.5303,2.5303,2.5303,2.5303,2.5368,2.521,2.4461,2.4076,2.3749,0.0,0.0,0.0,0.0,0.0,0.0,0.0,0.0,0.0,0.0,0.0,0.0,0.0,0.0,0.0,0.0,0.0,0.0,2.0928,0.0,2.1416,2.1667,2.1222,2.0833,2.0512,1.986,1.8967,1.7865,1.7539,1.7061,1.6522,1.6522,1.6522,1.6466,1.6238,1.5908,1.5531,1.5084,1.4641,1.4329,1.4061,1.3742,1.342,2.8884,0.0,2.8095,0.0,2.7385,2.6945,2.6725,2.6691,2.6691,2.6691,2.6691,2.6691,2.6691,2.6691,2.6657,2.6505,2.6191,2.5924,2.5779,2.5411,2.4844,2.3967,2.3575,0.0,2.1898,2.1495,2.109,2.0631,1.9993,0.0,0.0,2.0381,0.0,0.0,2.6186,2.7544,2.8816,3.015,3.0771,3.0898,3.0898,3.0898,3.0898,3.0898,3.0898,3.0898,3.0898,3.0898,3.0859,3.0605,2.9707,2.8535,2.7656,2.6777,2.6015,2.5679,2.5543,2.5473,2.5391,2.533,2.5303,2.5303,2.5303,2.5303,2.5303,2.5303,2.5303,2.5303,2.5346,2.5409,2.5394,2.4448,2.3891,2.4566,0.0,0.0,0.0,0.0,0.0,0.0,0.0,2.2067,0.0,0.0,0.0,0.0,0.0,0.0,0.0,0.0,0.0,0.0,0.0,0.0,0.0,0.0,2.1808,2.1436,2.0737,1.9817,1.869,1.7794,1.7061,1.6522,1.6522,1.6522,1.6522,1.6522,1.6238,1.5864,1.5676,1.532,1.4926,1.4744,1.4422,1.405,2.8884,2.8975,2.8721,2.796,2.7772,2.7554,2.681,2.6691,2.6691,2.6691,2.6691,2.6691,2.6691,2.6691,2.6505,2.6049,2.5997,2.5779,2.5259,2.5221,2.5166,0.0,0.0,2.487,2.4147,2.4147,2.4022,2.3747,0.0,0.0,2.4111,2.4338,2.5595,2.7653,2.7682,2.8798,3.0674,3.0696,3.0771,3.0898,3.0898,3.0898,3.0898,3.0898,3.0898,3.0898,3.0898,3.0898,3.0762,2.9902,2.9609,2.9434,2.8555,2.7695,2.6795,2.58,2.5493,2.5482,2.5339,2.5303,2.5303,2.5303,2.5303,2.5303,2.5303,2.5303,2.5303,2.5303,2.5346,2.5398,2.5394,2.5446,2.486,2.303,0.0,0.0,0.0,0.0,0.0,0.0,1.7546,1.674,2.0917,0.0,0.0,0.0,0.0,0.0,0.0,0.0,0.0,2.2389,2.2826,0.0,2.2694,2.2709,2.2669,2.2694,2.1979,2.1064,1.9932,1.8188,1.7061,1.6522,1.6522,1.6522,1.6522,1.6522,1.6522,1.6423,1.582,1.5588,1.5543,1.4926,1.4698,1.4606,2.9919,3.023,3.026,2.9516,2.9381,2.8941,2.7655,2.7469,2.7283,2.6759,2.6691,2.6691,2.6691,2.6691,2.6657,0.0,2.647,2.6401,0.0,2.6229,2.6087,2.5762,2.5742,2.5587,2.5308,2.5271,2.535,2.5496,0.0,0.0,0.0,2.6427,2.7554,2.9277,2.9543,3.0037,3.0648,3.0786,3.0858,3.0898,3.0898,3.0898,3.0898,3.0898,3.0898,3.0898,3.0898,3.0898,3.0859,3.0586,3.0098,2.9453,2.8574,2.7695,2.6795,2.58,2.5493,2.5477,2.5339,2.5303,2.5303,2.5303,2.5303,2.5303,2.5303,2.5303,2.5303,2.5303,2.5322,2.5348,2.5391,2.528,2.4976,2.4426,2.4659,0.0,0.0,0.0,0.0,0.0,0.0,2.2644,0.0,0.0,0.0,0.0,0.0,0.0,0.0,0.0,0.0,0.0,2.2851,0.0,2.3111,2.2817,2.2684,2.2694,2.2498,2.156,1.9959,1.8584,1.7639,1.7087,1.6685,1.6522,1.6522,1.6522,1.6522,1.6466,1.6281,1.6194,1.6194,1.602,1.5656,1.5231,3.0038,3.0251,3.0286,2.9573,2.9615,2.9192,2.7466,2.7542,2.7467,2.6571,2.659,2.6691,2.6691,2.6691,0.0,2.6691,2.6691,2.6691,2.6691,2.6691,2.659,2.6262,2.6419,2.6437,2.6387,0.0,0.0,2.707,2.695,2.728,2.807,2.8464,2.92,3.0208,3.0449,3.0575,3.0611,3.076,3.0817,3.0836,3.0879,3.0898,3.0898,3.0898,3.0703,3.0449,3.0781,3.0684,3.041,3.041,3.0059,2.9394,2.8184,2.7421,2.677,2.5792,2.5473,2.5441,2.5321,2.5303,2.5303,2.5303,2.5303,2.5303,2.5303,2.5303,2.5303,2.5303,2.5303,2.5293,2.5254,2.5116,2.496,2.4879,2.4771,2.4685,2.4685,0.0,0.0,0.0,0.0,0.0,0.0,2.3163,0.0,0.0,0.0,0.0,0.0,0.0,0.0,2.3211,2.3632,0.0,2.3422,2.3164,2.3035,2.3009,2.2543,2.1514,1.9972,1.8763,1.7903,1.735,1.6773,1.6522,1.6522,1.6522,1.6522,1.6522,1.6522,1.6522,1.6522,1.6522,1.6238,1.582,2.9361,2.9361,0.0,0.0,2.8884,0.0,2.6703,2.7238,2.7446,2.6286,2.6469,2.6691,2.6691,2.6691,2.6691,2.6691,0.0,0.0,0.0,2.6691,2.6725,2.6758,2.7083,2.7317,2.7378,2.7736,2.8129,2.8504,2.9322,2.9829,3.0028,3.0279,3.0419,3.049,3.0498,3.0537,3.06,3.065,3.0693,3.0718,3.0837,3.0898,3.0898,3.0898,3.0391,2.9805,3.0605,3.0371,2.9687,2.9687,2.9648,2.9316,2.7617,2.7006,2.6707,2.5764,2.5453,2.5395,2.5322,2.5303,2.5303,2.5303,2.5303,2.5303,2.5303,2.5303,2.5303,2.5274,2.5274,2.5214,2.5022,2.4967,2.4858,2.4508,2.4476,2.4495,2.4476,0.0,0.0,0.0,0.0,0.0,0.0,2.195,2.289,0.0,0.0,0.0,0.0,0.0,2.4565,2.4488,2.4938,2.4657,2.3595,2.3595,2.3595,2.3595,2.2317,2.1124,2.0006,1.8763,1.7903,1.735,1.6773,1.6522,1.6522,1.6522,1.6522,1.6522,1.6522,1.6522,1.6522,1.6522,1.6522,1.6337,0.0,0.0,2.9342,2.9182,2.9632,2.9691,2.8665,2.8615,2.8381,2.7498,2.6978,2.6691,2.6691,2.6691,2.6691,2.6691,2.6691,2.6691,2.6691,2.6691,2.6858,2.7147,2.7241,2.7542,2.8139,2.8219,2.864,2.9381,2.9742,3.0047,3.0311,3.0367,3.0402,3.0428,3.0472,3.0516,3.0529,3.06,3.0642,3.0696,3.0723,3.0814,3.0898,3.0898,3.0762,3.0625,3.082,3.0762,3.0586,3.0586,3.0156,2.9414,2.832,2.7446,2.6645,2.5751,2.5459,2.5383,2.5322,2.5303,2.5303,2.5303,2.5303,2.5303,2.5303,2.5303,2.5264,2.5099,2.5077,2.503,2.4864,2.4727,2.4522,2.4173,2.4336,2.4474,2.4362,2.4727,0.0,0.0,2.4544,2.4598,2.4567,2.4647,2.4617,0.0,0.0,0.0,0.0,0.0,2.5023,2.4521,2.4938,2.4657,2.3595,2.3595,2.3595,2.3595,2.2317,2.136,2.0644,1.8939,1.7903,1.735,1.6773,1.6522,1.6522,1.6522,1.6522,1.6522,1.6522,1.6522,1.6522,1.6522,1.6522,1.6337,2.814,2.8367,2.8591,2.8591,2.9088,2.9255,2.8517,2.8779,2.8824,2.8072,2.787,2.774,2.774,2.774,2.7588,2.7232,2.6894,2.6691,2.6691,2.6691,2.6873,2.7272,2.7487,2.7833,2.8394,2.8565,2.9001,2.9696,2.9813,3.0052,3.0398,3.0398,3.0398,3.041,3.043,3.0452,3.0462,3.0521,3.0575,3.0603,3.068,3.0745,3.0816,3.0879,3.0644,3.0312,3.0312,3.0059,2.9648,2.9258,2.8809,2.8262,2.7383,2.67,2.6116,2.5649,2.5428,2.5357,2.5303,2.5303,2.5303,2.5303,2.5303,2.5303,2.5303,2.5303,2.5234,2.5034,2.501,2.4937,2.4697,2.4439,2.4229,2.4118,2.4192,2.4331,2.4505,2.4881,0.0,2.5415,2.5493,2.5522,2.5505,2.5528,2.5282,2.4666,0.0,0.0,2.4151,2.5009,2.5236,2.4656,2.4991,2.4776,2.3948,2.3709,2.3595,2.3595,2.262,2.1699,2.0826,1.9331,1.8188,1.735,1.6773,1.6522,1.6522,1.6522,1.6522,1.6522,1.6522,1.6522,1.6522,1.6522,1.6522,1.6337,2.7625,2.7625,2.7625,2.7625,2.8091,2.8357,2.789,2.8571,2.9015,2.8539,2.8787,2.9011,2.9011,2.9011,2.867,2.7857,2.7232,2.6826,2.6708,2.6691,2.6906,2.7348,2.7725,2.8093,2.8471,2.8868,2.927,2.9643,2.9713,2.9943,3.0343,3.0367,3.0398,3.0398,3.0398,3.0398,3.039,3.0462,3.0481,3.0516,3.0643,3.069,3.0718,3.0857,3.0449,2.9785,2.9648,2.9121,2.8359,2.748,2.7109,2.6875,2.6133,2.5703,2.5493,2.5493,2.5413,2.5303,2.5303,2.5303,2.5303,2.5303,2.5303,2.5284,2.5264,2.5264,2.5192,2.4974,2.4917,2.4799,2.4441,2.4192,2.3969,2.3746,2.3953,2.4176,2.4366,0.0,2.5299,2.5468,2.5543,2.5551,2.5484,2.5479,2.5376,2.512,2.4878,0.0,0.0,2.5063,2.5236,2.4778,2.5049,2.4894,2.4282,2.3837,2.3595,2.3595,2.2965,2.2081,2.0882,1.966,1.8474,1.7346,1.6766,1.6522,1.6522,1.6522,1.6522,1.6522,1.6522,1.6522,1.6522,1.6522,1.6522,1.6337,2.7625,2.7625,2.7625,2.7625,2.8091,2.8654,2.9037,2.9166,2.935,2.977,2.9343,2.9011,2.9011,2.9011,2.867,2.7857,2.7723,2.7368,2.6742,2.6691,2.7019,2.7765,2.7869,2.8201,2.8905,2.9203,2.9353,2.9454,2.978,2.9984,3.0075,3.0279,3.0398,3.0398,3.0398,3.0398,3.041,3.0414,3.0451,3.0516,3.0587,3.0657,3.0718,3.0857,3.082,3.0605,2.9863,2.9512,2.9277,2.8398,2.7617,2.6973,2.6836,2.6191,2.5493,2.5493,2.5413,2.5303,2.5303,2.5303,2.5303,2.5303,2.5303,2.5264,2.5088,2.5046,2.4962,2.4651,2.4591,2.4405,2.3903,2.4018,2.358,2.1792,2.3287,2.4157,2.2726,0.0,2.5438,2.5421,2.5428,2.5428,2.5415,2.5415,2.5325,2.512,2.4707,2.4241,2.3699,2.4584,2.4913,2.4565,2.4987,2.4736,2.3709,2.3638,2.3595,2.3595,2.2965,2.2045,2.0868,1.9649,1.8447,1.729,1.6761,1.6522,1.6522,1.6522,1.6522,1.6522,1.6522,1.6522,1.6522,1.6522,1.6522,1.638,2.7625,2.7625,2.7625,2.7625,2.781,2.8222,2.8826,2.9134,2.9531,3.0118,3.0169,3.0176,3.0176,3.0176,2.9871,2.9127,2.8687,2.8129,2.7351,2.6911,2.6971,2.753,2.7765,2.8246,2.8994,2.9112,2.9246,2.9412,2.9696,2.9893,3.0013,3.0267,3.0398,3.0398,3.0398,3.0398,3.0398,3.0398,3.0136,2.9738,2.9868,2.9669,2.932,2.9449,2.9492,2.9394,2.8516,2.8203,2.8066,2.7187,2.6621,2.6309,2.6309,2.5937,2.5493,2.5493,2.5413,2.5303,2.5303,2.5303,2.5303,2.5303,2.5303,2.5253,2.5046,2.501,2.4892,2.4575,2.4495,2.4392,2.4037,2.4039,2.3842,2.3065,2.3964,0.0,0.0,2.4762,2.5482,2.5413,2.5406,2.5391,2.5346,2.5245,2.5118,2.4941,2.4475,2.3953,2.337,2.4033,2.4286,2.4062,2.4798,2.4657,2.3595,2.3595,2.3595,2.3595,2.2993,2.2074,2.0849,1.9936,1.8699,1.7312,1.7034,1.6752,1.6522,1.6522,1.6522,1.6522,1.6522,1.6522,1.6522,1.6522,1.6522,1.6423,2.7625,2.7625,2.7625,2.7625,2.7625,2.781,2.8415,2.8996,2.9629,3.0208,3.0838,3.119,3.119,3.119,3.0818,2.9922,2.9313,2.8586,2.7621,2.7012,2.6873,2.7272,2.7765,2.8281,2.8839,2.8952,2.9089,2.931,2.9514,2.9729,2.9939,3.0182,3.0343,3.0379,3.0198,3.0102,3.0102,2.991,2.9429,2.8835,2.895,2.8637,2.8106,2.8231,2.8281,2.8184,2.7305,2.6992,2.6875,2.5996,2.5703,2.5703,2.5703,2.5605,2.5493,2.5493,2.5413,2.5303,2.5303,2.5303,2.5303,2.5303,2.5303,2.5243,2.5018,2.4949,2.4845,2.4493,2.4426,2.4375,2.4133,2.4099,2.4078,2.3963,0.0,0.0,0.0,2.5129,2.5434,2.5337,2.5313,2.5272,2.5192,2.5041,2.4858,2.4629,2.4155,2.365,2.3117,2.3528,2.3723,2.357,2.4521,2.4474,2.3385,2.3385,2.331,2.3146,2.2682,2.188,2.0837,2.0182,1.9063,1.7666,1.7544,1.7229,1.6879,1.6879,1.6879,1.6879,1.6879,1.6795,1.668,1.668,1.6595,1.6423,2.7625,2.7625,2.7625,2.7625,2.7625,2.781,2.8415,2.8996,2.9629,3.0208,3.0838,3.119,3.119,3.119,3.0615,2.9231,2.9008,2.8349,2.6877,2.6725,2.6873,2.7272,2.7974,2.8394,2.8446,2.8815,2.9017,2.904,2.9289,2.9532,2.9731,2.9939,3.015,3.0359,2.9563,2.9198,2.914,2.839,2.8044,2.7988,2.8073,2.8106,2.8101,2.8187,2.8255,2.8184,2.7305,2.6992,2.6875,2.5996,2.5703,2.5703,2.5703,2.5605,2.5493,2.5493,2.5413,2.5303,2.5303,2.5303,2.5303,2.5303,2.5303,2.5203,2.4883,2.4799,2.4716,2.4303,2.4228,2.4133,2.3795,2.4136,2.3913,2.2262,0.0,0.0,2.3339,2.4457,2.5337,2.5129,2.5067,2.4974,2.4842,2.4832,2.4613,2.41,2.3719,2.3294,2.2772,2.3192,2.3362,2.3157,2.399,2.3907,2.2798,2.2783,2.2443,2.1844,2.1784,2.1386,2.0706,2.0152,1.9473,1.8727,1.8263,1.8027,1.7987,1.7987,1.7987,1.7987,1.7987,1.7666,1.7229,1.7229,1.6909,1.6466,2.7625,2.7625,2.7625,2.7625,2.7625,2.781,2.8415,2.8996,2.9629,3.0208,3.0838,3.119,3.119,3.119,3.0784,2.977,2.9245,2.8535,2.7452,2.6945,2.6873,2.7272,2.7823,2.8183,2.8394,2.8797,2.8994,2.8994,2.9267,2.9434,2.9513,2.9731,2.988,2.9939,2.9098,2.8732,2.8674,2.8001,2.74,2.6914,2.7112,2.69,2.6443,2.6552,2.6605,2.6594,2.6308,2.6191,2.6133,2.5801,2.5703,2.5703,2.5703,2.5605,2.5473,2.5406,2.5348,2.5303,2.5303,2.5303,2.5303,2.5303,2.5303,2.5222,2.4888,2.4804,2.4685,2.4284,2.419,2.419,2.4211,2.4458,2.4507,2.3942,0.0,2.5093,2.4568,2.4911,2.5168,2.5056,2.493,2.4855,2.4804,2.4685,2.4456,2.4026,2.3566,2.3136,2.2721,2.3136,2.3084,2.2447,2.3174,2.3118,2.2069,2.2069,2.1934,2.1695,2.1276,2.0961,2.0692,2.0072,1.9455,1.8893,1.8688,1.8419,1.8106,1.8106,1.8106,1.8106,1.8106,1.7787,1.7312,1.7312,1.6951,1.6522,2.7625,2.7625,2.7625,2.7625,2.7625,2.776,2.814,2.8904,2.954,2.9935,3.0699,3.119,3.119,3.119,3.0903,3.0176,2.9414,2.8755,2.8213,2.7469,2.7063,2.71,2.7517,2.788,2.8237,2.8608,2.8863,2.8994,2.9181,2.931,2.9412,2.9551,2.9511,2.928,2.8466,2.7954,2.767,2.7006,2.6403,2.59,2.6082,2.5865,2.5413,2.5493,2.5561,2.5605,2.5659,2.5683,2.5703,2.5703,2.5703,2.5703,2.5703,2.5605,2.5488,2.5363,2.5322,2.5303,2.5303,2.5303,2.5303,2.5303,2.5303,2.5222,2.4888,2.4804,2.4685,2.4284,2.4266,2.4339,2.4478,2.4697,2.4905,2.5071,2.5252,2.534,2.5302,2.5168,2.5015,2.4853,2.4752,2.4685,2.4607,2.4389,2.4099,2.3771,2.3315,2.2915,2.2573,2.2745,2.254,2.1875,2.2123,2.192,2.1265,2.1338,2.1276,2.1066,2.0602,2.0393,2.0378,1.9899,1.9479,1.9169,1.9169,1.893,1.8612,1.8612,1.8612,1.8612,1.8612,1.8263,1.7787,1.7626,1.7188,1.671,2.7625,2.7625,2.7625,2.7625,2.7625,2.7625,2.7625,2.8622,2.9406,2.9406,3.0435,3.119,3.119,3.119,3.0903,3.0176,2.9414,2.9011,2.8975,2.8247,2.7486,2.6725,2.7083,2.7487,2.7897,2.8237,2.859,2.8994,2.8994,2.9134,2.9392,2.9392,2.9064,2.8464,2.7582,2.6752,2.5937,2.5144,2.4883,2.501,2.501,2.5157,2.5398,2.5406,2.5473,2.5601,2.5601,2.5637,2.5703,2.5703,2.5703,2.5703,2.5703,2.5605,2.5498,2.5427,2.5346,2.5303,2.5303,2.5303,2.5303,2.5303,2.5303,2.5222,2.4888,2.4804,2.4685,2.4284,2.4357,2.4512,2.4512,2.4776,2.5019,2.5081,2.5216,2.5245,2.512,2.5045,2.4872,2.4543,2.4495,2.4428,2.4209,2.3896,2.3566,2.3212,2.2898,2.2573,2.2293,2.1869,2.1582,2.1582,2.0765,2.0314,2.0314,2.0555,2.0363,1.969,1.969,1.969,1.969,1.969,1.969,1.969,1.969,1.969,1.969,1.969,1.969,1.969,1.969,1.9369,1.8855,1.8302,1.7747,1.7229,2.7625,2.7625,2.7625,2.7625,2.7625,2.776,2.8189,2.8904,2.954,2.9995,3.0699,3.119,3.119,3.119,3.0903,3.0176,2.9905,2.9313,2.8247,2.7908,2.7486,2.6725,2.7083,2.7365,2.7487,2.7851,2.812,2.8228,2.8464,2.8615,2.87,2.8984,2.8716,2.797,2.7153,2.6338,2.5542,2.4864,2.4682,2.4883,2.4962,2.5143,2.533,2.5383,2.5421,2.5471,2.5503,2.5567,2.5633,2.5633,2.566,2.5683,2.5637,2.5603,2.5551,2.5428,2.5383,2.5363,2.5313,2.5303,2.5303,2.5303,2.5303,2.5243,2.5005,2.4937,2.4891,2.467,2.467,2.4741,2.4831,2.4917,2.5003,2.5031,2.505,2.5034,2.4905,2.4747,2.4604,2.4512,2.4375,2.4172,2.3896,2.3774,2.3459,2.2898,2.2563,2.2388,2.231,2.218,2.1928,2.1628,2.1352,2.107,2.0781,2.0248,1.9884,1.969,1.969,1.969,1.969,1.969,1.969,1.969,1.969,1.969,1.969,1.969,1.969,1.969,1.969,1.9369,1.8893,1.8727,1.8066,1.7271,2.7625,2.7625,2.7625,2.7625,2.7625,2.771,2.8091,2.8857,2.954,2.9892,3.0658,3.119,3.119,3.119,3.1021,3.0581,3.0548,2.977,2.7908,2.8112,2.7807,2.6742,2.6939,2.7147,2.7303,2.753,2.7754,2.7897,2.8102,2.821,2.8192,2.8157,2.7761,2.7059,2.6275,2.5555,2.4907,2.4543,2.4495,2.47,2.485,2.503,2.5184,2.5301,2.5368,2.5413,2.5453,2.5493,2.5561,2.5598,2.5637,2.5683,2.5659,2.5611,2.5573,2.5508,2.5441,2.5398,2.5346,2.5331,2.5303,2.5303,2.5303,2.5253,2.5046,2.501,2.4962,2.4828,2.4842,2.4904,2.4986,2.501,2.501,2.501,2.4949,2.4864,2.4697,2.4594,2.4461,2.4393,2.4266,2.4074,2.3735,2.3566,2.323,2.259,2.2388,2.231,2.231,2.231,2.218,2.1899,2.1688,2.1491,2.1244,2.0565,2.0208,2.0208,2.005,1.9929,1.9929,2.0139,2.0015,1.9726,1.9874,1.9839,1.969,1.969,1.969,1.969,1.969,1.9479,1.9207,1.8968,1.838,1.7585,2.7625,2.7625,2.7625,2.7625,2.7625,2.7625,2.7625,2.8591,2.9316,2.9316,3.0393,3.1112,3.1112,3.1151,3.119,3.119,3.119,3.026,2.8061,2.8586,2.8298,2.6759,2.6691,2.6873,2.7241,2.7241,2.7426,2.7794,2.784,2.784,2.7823,2.7189,2.6551,2.5949,2.5275,2.4693,2.4151,2.419,2.4321,2.4528,2.47,2.4869,2.4998,2.5192,2.5302,2.5364,2.5364,2.5415,2.5493,2.5587,2.5636,2.5683,2.5703,2.566,2.5605,2.5603,2.5503,2.5415,2.5394,2.5354,2.5303,2.5313,2.5303,2.5253,2.5077,2.5022,2.4986,2.4869,2.4943,2.5022,2.4991,2.501,2.4998,2.4974,2.485,2.47,2.4512,2.4478,2.441,2.4228,2.419,2.4074,2.3735,2.3369,2.2933,2.2349,2.231,2.231,2.231,2.231,2.231,2.231,2.1899,2.1658,2.1658,2.1244,2.1039,2.0991,2.055,2.0348,2.0382,2.0797,2.0581,1.9854,2.0193,2.0158,1.9818,1.9782,1.9747,1.9747,1.9711,1.969,1.9639,1.9169,1.8612,1.8106,2.7625,2.7625,2.7625,2.7625,2.7625,2.7625,2.7625,2.8222,2.8701,2.8701,2.9761,3.0477,3.0477,3.0918,3.119,3.119,3.119,3.0497,2.8839,2.889,2.8298,2.6759,2.6691,2.6758,2.6841,2.6841,2.6873,2.6971,2.7272,2.7409,2.7439,2.7578,2.6943,2.561,2.5715,2.5032,2.3816,2.4094,2.4321,2.4512,2.4561,2.4685,2.4842,2.4883,2.4993,2.5083,2.5083,2.5225,2.5447,2.5558,2.5605,2.5633,2.5683,2.5683,2.5662,2.5627,2.557,2.552,2.5428,2.5391,2.5363,2.5313,2.5303,2.5303,2.5234,2.5224,2.5233,2.5212,2.5203,2.5192,2.5034,2.501,2.4905,2.4648,2.4591,2.4495,2.4284,2.4284,2.4247,2.4227,2.419,2.4074,2.3735,2.3165,2.2678,2.2338,2.231,2.231,2.231,2.231,2.231,2.231,2.2209,2.2152,2.2152,2.1705,2.1306,2.0991,2.0894,2.0862,2.0862,2.0959,2.0894,2.0731,2.0797,2.0797,2.0698,2.033,2.0158,2.0158,1.9818,1.969,1.969,1.9566,1.9207,1.8574,2.7634,2.7625,2.7625,2.7625,2.7625,2.7625,2.7625,2.8091,2.8511,2.8511,2.9316,2.9978,3.0251,3.0559,3.0878,3.119,3.119,3.0565,2.9076,2.9011,2.8298,2.6759,2.6691,2.6691,2.6691,2.6691,2.6691,2.6691,2.6906,2.7019,2.7019,2.6878,2.6243,2.5242,2.5094,2.451,2.3714,2.3896,2.4096,2.4357,2.4461,2.4559,2.467,2.476,2.4842,2.4917,2.4974,2.5178,2.5408,2.5488,2.5547,2.5605,2.5636,2.5662,2.5683,2.566,2.5631,2.559,2.5488,2.5421,2.5383,2.5322,2.5303,2.5303,2.5303,2.5303,2.5303,2.5303,2.5303,2.5253,2.5034,2.4949,2.4809,2.4543,2.4428,2.4321,2.4209,2.419,2.419,2.419,2.419,2.3996,2.3522,2.2883,2.2436,2.231,2.231,2.231,2.231,2.231,2.231,2.231,2.2426,2.2473,2.2473,2.2422,2.2262,2.2035,2.1549,2.1275,2.1275,2.1524,2.1385,2.0991,2.1213,2.1181,2.0991,2.0731,2.0516,2.028,2.007,1.9874,1.969,1.969,1.9207,1.8419,2.7859,2.77,2.7625,2.7625,2.7625,2.7625,2.7625,2.8042,2.8334,2.8334,2.8873,2.9496,3.0081,3.0351,3.0658,3.1151,3.119,3.0615,2.9262,2.9178,2.8484,2.6962,2.6894,2.6826,2.6691,2.6691,2.6691,2.6691,2.6691,2.6691,2.6674,2.6065,2.5462,2.4902,2.4337,2.3917,2.3628,2.3671,2.3896,2.4209,2.4375,2.4444,2.4461,2.4623,2.4716,2.4756,2.4872,2.5086,2.5321,2.5329,2.5451,2.5564,2.557,2.5633,2.5683,2.5683,2.5642,2.5603,2.5543,2.5488,2.5415,2.5339,2.5322,2.5313,2.5293,2.5303,2.5303,2.5303,2.5303,2.5224,2.5018,2.4864,2.4731,2.4495,2.4303,2.419,2.419,2.419,2.419,2.419,2.4151,2.3858,2.3259,2.2712,2.2349,2.231,2.231,2.231,2.231,2.2349,2.236,2.236,2.2625,2.2797,2.2797,2.3069,2.3189,2.3189,2.2307,2.1874,2.1874,2.2215,2.1969,2.1321,2.1582,2.1538,2.1229,2.1134,2.0813,2.0416,2.0348,2.0054,1.969,1.969,1.908,1.8185,2.8472,2.7979,2.7625,2.7625,2.7625,2.7625,2.7625,2.7675,2.771,2.771,2.8238,2.8873,2.9451,3.0435,3.1112,3.119,3.119,3.0835,3.0023,2.9956,2.9279,2.774,2.7637,2.7368,2.6708,2.6691,2.6691,2.6691,2.6691,2.6691,2.6691,2.659,2.5827,2.4598,2.4758,2.4252,2.33,2.3566,2.3896,2.419,2.4228,2.4247,2.4247,2.4266,2.4393,2.4526,2.4559,2.4776,2.5053,2.5111,2.5274,2.5434,2.5503,2.5558,2.5607,2.5607,2.5641,2.5662,2.5603,2.557,2.5547,2.5427,2.5383,2.5368,2.5313,2.5303,2.5303,2.5303,2.5303,2.5192,2.4883,2.4818,2.467,2.4303,2.4209,2.419,2.419,2.419,2.419,2.419,2.3937,2.3628,2.3253,2.2848,2.2563,2.2338,2.231,2.231,2.231,2.2527,2.2634,2.2634,2.2972,2.3117,2.3117,2.3165,2.3189,2.3189,2.3052,2.2979,2.2979,2.2746,2.2565,2.2468,2.2271,2.218,2.2077,2.1705,2.1275,2.0862,2.0449,2.0054,1.969,1.969,1.9332,1.8779,2.922,2.8607,2.8143,2.8143,2.7829,2.7625,2.7625,2.7625,2.7625,2.7625,2.781,2.8367,2.9316,3.0477,3.119,3.119,3.119,3.0886,3.0159,3.0108,2.9617,2.8518,2.8061,2.7672,2.7334,2.6911,2.6691,2.6691,2.6691,2.6691,2.6691,2.6691,2.5896,2.4506,2.4641,2.415,2.3212,2.3369,2.3714,2.417,2.3996,2.4036,2.417,2.3996,2.4077,2.4339,2.4461,2.4666,2.4891,2.4911,2.5077,2.5249,2.526,2.5393,2.5547,2.5547,2.5561,2.5586,2.5546,2.5542,2.5533,2.5479,2.5459,2.5453,2.5415,2.5401,2.5391,2.5322,2.5321,2.5255,2.4981,2.4855,2.47,2.4409,2.4266,2.419,2.419,2.419,2.419,2.419,2.3735,2.3369,2.3212,2.2755,2.2426,2.231,2.231,2.2163,2.1875,2.1979,2.1944,2.1759,2.2438,2.2841,2.2935,2.3482,2.3774,2.3774,2.3774,2.3566,2.3189,2.3045,2.2873,2.2695,2.2573,2.2453,2.2282,2.2077,2.1735,2.1275,2.0846,2.0261,1.969,1.969,1.9133,1.8323]}]]